     2.10           OBSERVATION DATA    G (GPS)             RINEX VERSION / TYPE
teqc 2002Mar14 SOPAC 20050725 21:28:30UTC                   PGM / RUN BY / DATE
Linux 2.0.36|Pentium II|gcc -static|Linux|486/DX+           COMMENT
BIT 2 OF LLI FLAGS DATA COLLECTED UNDER A/S CONDITION       COMMENT
HPGN D CA 01 AK                                             MARKER NAME
01AK                                                        MARKER NUMBER
Paul Dunham                                                 OBSERVER / AGENCY
0220223934 TRIMBLE 4700                                     REC # / TYPE / VERS
0220203928 TRM33429.00+GP NONE                              ANT # / TYPE
 -2685505.0000 -4195564.0000  3970354.0000                  APPROX POSITION XYZ
        2.0000        0.0000        0.0000                  ANTENNA: DELTA H/E/N
     1     1                                                WAVELENGTH FACT L1/2
     6    L1    L2    C1    P2    P1    D1                  # / TYPES OF OBSERV
    15.0000                                                 INTERVAL
Northern California Height Modernization 2004               COMMENT
                                                            COMMENT
SOPAC - Scripps Orbit and Permanent Array Center            COMMENT
IGPP - Institute of Geophysics and Planetary Physics        COMMENT
SIO - Scripps Institution of Oceanography                   COMMENT
UCSD - University of California, San Diego                  COMMENT
                                                            COMMENT
email: archive@gpsmail.ucsd.edu                             COMMENT
ftp://garner.ucsd.edu                                       COMMENT
http://sopac.ucsd.edu                                       COMMENT
                                                            COMMENT
                                                            COMMENT
Approximate Lat, Lon : 38.744, -122.623                     COMMENT
                                                            COMMENT
SNR is mapped to RINEX snr flag value [1-9]                 COMMENT
L1: 3 -> 1; 8 -> 5; 40 -> 9                                 COMMENT
L2: 1 -> 1; 5 -> 5; 60 -> 9                                 COMMENT
  2004     9    14    20    54   45.0000000     GPS         TIME OF FIRST OBS
                                                            END OF HEADER
 04  9 14 20 54 45.0000000  0  5G 3G 8G13G23G27
     -5051.39259     -6348.96657  23012905.6564   23012903.7624
       224.5004
    -44675.81059    -24136.06557  22437597.5634   22437594.7814
      2021.6724
     10101.48159       252.86958  20220640.1414   20220635.1214
      -459.5474
     61842.15659     23007.22858  21784177.5704   21784172.6254
     -2773.4534
    -18034.07259    -15849.96758  21292037.6414   21292034.0084
       802.4844
 04  9 14 20 55  0.0000000  0  6G 3G 8G13G19G23G27
     -8396.18349     -8955.30347  23012269.2424   23012266.6174
       221.0784
    -75022.57549    -47782.89247  22431822.5864   22431819.8794
      2024.2504
     17007.64849      5634.27248  20221954.5944   20221949.5274
      -461.6094
    -77017.78159    -48925.33057  23620142.1724   23620138.3364
      2075.8134
    103442.17349     55422.80048  21792094.9534   21792088.6724
     -2773.6414
    -30094.58649    -25247.78448  21289742.3444   21289738.9344
       805.2194
 04  9 14 20 55 15.0000000  0  6G 3G 8G13G19G23G27
    -11669.84349    -11506.22047  23011645.6174   23011643.7194
       214.9694
   -105391.16349    -71446.72247  22426043.5164   22426041.0204
      2024.3914
     23962.22049     11053.40848  20223277.9304   20223273.6414
      -466.1724
   -108148.47449    -73182.95547  23614219.2034   23614214.1214
      2074.4844
    145062.55149     87854.23848  21800014.2734   21800008.7074
     -2776.2344
    -42178.28849    -34663.66948  21287443.1884   21287439.6414
       805.4694
 04  9 14 20 55 30.0000000  0  6G 3G 8G13G19G23G27
    -14843.64149    -13979.33647  23011041.4844   23011039.6294
       207.4534
   -135752.69549    -95105.05247  22420265.9614   22420263.7624
      2023.1564
     30993.61549     16532.39948  20224615.4534   20224611.6134
      -471.9844
   -139249.26449    -97417.27047  23608299.1414   23608296.0984
      2071.6564
    186731.93549    120323.84848  21807944.0554   21807938.3364
     -2780.3594
    -54256.82549    -44075.51848  21285144.4844   21285141.4064
       804.4064
 04  9 14 20 55 45.0000000  0  6G 3G 8G13G19G23G27
    -17892.29049    -16354.90747  23010461.5784   23010459.7034
       198.4844
   -166082.28649   -118738.50047  22414494.6254   22414492.1254
      2020.3444
     38127.32249     22091.12748  20225973.2894   20225968.7624
      -479.5004
   -170294.53949   -121608.36447  23602391.9454   23602387.9304
      2067.2344
    228475.33849    152851.15448  21815887.1564   21815881.3794
     -2785.8914
    -66304.93749    -53463.67248  21282851.9774   21282848.4924
       801.7194
 04  9 14 20 56  0.0000000  0  6G 3G 8G13G19G23G27
    -20790.97949    -18613.64347  23009909.8204   23009908.0394
       187.7194
   -196355.10849   -142327.70747  22408733.7194   22408731.2234
      2015.8134
     45388.08949     27748.85448  20227354.9534   20227350.4614
      -488.7974
   -201259.34749   -145736.74047  23596500.1414   23596496.5434
      2061.0474
    270317.12449    185455.11648  21823849.7814   21823844.1214
     -2793.2344
    -78297.93649    -62808.88048  21280569.3524   21280565.8054
       797.1884
 04  9 14 20 56 15.0000000  0  6G 3G 8G13G19G23G27
    -23523.32649    -20742.73647  23009390.3834   23009387.9104
       176.3914
   -226555.01249   -165860.09147  22402987.2424   22402984.1644
      2010.6414
     52792.17749     33518.26448  20228763.6484   20228759.4024
      -498.5944
   -232126.99649   -169789.41547  23590626.4774   23590621.9774
      2054.3914
    312273.62649    218148.47048  21831833.7814   21831827.5044
     -2801.1564
    -90219.72349    -72098.58448  21278300.5164   21278297.1604
       792.2344
 04  9 14 20 56 30.0000000  0  6G 3G 8G13G19G23G27
    -26077.56149    -22733.06947  23008904.3594   23008902.1524
       164.0784
   -256670.16249   -189326.43147  22397256.4144   22397253.9964
      2004.6564
     60351.42049     39408.57148  20230202.4844   20230197.7584
      -509.3284
   -262885.47949   -193757.01447  23584772.7274   23584768.5514
      2046.6254
    354356.39749    250940.21448  21839841.7974   21839836.1994
     -2809.9374
   -102058.47149    -81323.58848  21276048.2344   21276044.6174
       786.2664
 04  9 14 20 56 45.0000000  0  6G 3G 8G13G19G23G27
    -28448.79749    -24580.79047  23008453.4694   23008451.0434
       151.7344
   -286695.83449   -212723.05047  22391543.1414   22391539.7814
      1998.4384
     68070.43449     45423.37948  20231671.1954   20231666.6094
      -520.1564
   -293529.87549   -217635.72247  23578941.4304   23578937.5314
      2038.7974
    396569.90149    283833.83648  21847874.5004   21847869.0984
     -2818.9374
   -113809.77449    -90480.45348  21273811.7664   21273808.1884
       780.2034
 04  9 14 20 57  0.0000000  0  6G 3G 8G13G19G23G27
    -30629.26949    -26279.84547  23008037.8134   23008035.6604
       139.3594
   -316624.45949   -236044.03947  22385847.4224   22385844.6454
      1992.3284
     75957.04049     51568.76848  20233171.8674   20233167.5824
      -531.0164
   -324052.12649   -241419.24747  23573133.2734   23573129.3954
      2031.0634
    438921.52449    316835.07948  21855934.1954   21855928.8244
     -2827.7344
   -125465.91349    -99563.16648  21271594.2424   21271590.3524
       774.2814
 04  9 14 20 57 15.0000000  0  6G 3G 8G13G19G23G27
    -32625.58249    -27835.43347  23007657.6644   23007655.4144
       126.6884
   -346462.66349   -259294.57547  22380169.2584   22380166.9414
      1985.9064
     84004.77949     57839.71748  20234703.2894   20234698.6684
      -542.2194
   -354458.52249   -265112.48647  23567346.7584   23567343.2974
      2022.8754
    481404.72349    349938.85248  21864018.4304   21864012.7424
     -2836.9534
   -137033.60749   -108576.95848  21269392.3524   21269388.9884
       767.9224
 04  9 14 20 57 30.0000000  0  6G 3G 8G13G19G23G27
    -34433.97649    -29244.55647  23007314.3674   23007311.4534
       114.2194
   -376207.07249   -282472.02347  22374509.0084   22374506.2584
      1979.8284
     92217.24749     64239.04848  20236266.4304   20236261.9884
      -553.0624
   -384745.28249   -288712.50147  23561583.6094   23561579.7424
      2015.0784
    524022.75949    383147.69348  21872128.1644   21872122.4924
     -2845.7814
   -148509.33549   -117519.08448  21267208.9844   21267205.1684
       761.9224
 04  9 14 20 57 45.0000000  0  6G 3G 8G13G19G23G27
    -36058.90149    -30510.74647  23007005.2504   23007001.6954
       102.6414
   -405862.07149   -305579.80947  22368865.8674   22368862.8674
      1974.3594
    100590.06149     70763.30548  20237859.2664   20237855.0784
      -563.1874
   -414916.30249   -312222.33147  23555842.2034   23555838.2734
      2007.9384
    566771.09049    416458.04548  21880263.3674   21880257.0664
     -2853.8754
   -159897.47349   -126392.95848  21265041.7814   21265038.1954
       756.6724
 04  9 14 20 58  0.0000000  0  6G 3G 8G13G19G23G27
    -37503.46349    -31636.36447  23006729.8914   23006726.9654
        90.3594
   -435430.72849   -328620.30747  22363239.3204   22363236.8794
      1968.3284
    109119.86049     77409.89748  20239482.7504   20239478.5274
      -573.7974
   -444974.58949   -335644.32747  23550122.3674   23550118.6214
      2000.1254
    609646.17149    449867.18948  21888421.7034   21888416.3164
     -2862.5624
   -171201.50949   -135201.29348  21262890.7584   21262887.6174
       750.8444
 04  9 14 20 58 15.0000000  0  6G 3G 8G13G19G23G27
    -38768.77349    -32622.30947  23006488.9454   23006486.7544
        78.5944
   -464914.49549   -351594.66347  22357628.2734   22357626.0984
      1963.0474
    117805.62649     84178.01848  20241135.3914   20241131.0664
      -584.0474
   -474921.23249   -358979.32647  23544424.0394   23544419.9144
      1992.9694
    652646.72149    483374.08548  21896604.3204   21896598.9734
     -2870.6564
   -182422.73449   -143945.10948  21260755.3754   21260751.8134
       745.5944
 04  9 14 20 58 30.0000000  0  6G 3G 8G13G19G23G27
    -39860.49249    -33473.02947  23006281.3524   23006279.2154
        67.2034
   -494319.28449   -374507.47347  22352033.1724   22352030.1564
      1957.7974
    126641.54049     91063.13448  20242817.0234   20242812.5824
      -593.9534
   -504761.51149   -382231.45647  23538745.4614   23538740.7704
      1985.8914
    695766.90349    516974.19748  21904810.6484   21904804.3834
     -2878.6564
   -193566.90149   -152628.87848  21258634.7894   21258631.1414
       740.4694
 04  9 14 20 58 45.0000000  0  6G 3G 8G13G19G23G27
    -40781.55449    -34190.73447  23006105.5234   23006104.6844
        55.7344
   -523647.96149   -397360.97247  22346451.8524   22346449.0984
      1952.7344
    135624.64449     98062.95548  20244526.5554   20244521.2584
      -603.8594
   -534498.03549   -405402.72147  23533087.1484   23533082.6054
      1978.9844
    739003.57049    550665.09948  21913037.9384   21913032.2774
     -2886.3444
   -204636.98049   -161254.91648  21256527.8674   21256524.2504
       735.5314
 04  9 14 20 59  0.0000000  0  6G 3G 8G13G19G23G27
    -41532.58649    -34775.92847  23005963.3674   23005961.2544
        44.4844
   -552901.12749   -420155.64547  22340885.1024   22340882.4574
      1947.7814
    144754.53249    105177.13948  20246263.7424   20246258.8754
      -613.4534
   -564131.23749   -428493.48147  23527446.7974   23527443.6804
      1972.1414
    782355.75749    584445.98848  21921287.4064   21921282.2624
     -2893.9694
   -215633.81649   -169823.87548  21254435.4454   21254432.0164
       730.7504
 04  9 14 20 59 15.0000000  0  6G 3G 8G13G19G23G27
    -42117.54349    -35231.75347  23005850.9384   23005849.5434
        33.7974
   -582082.74649   -442894.56347  22335331.7814   22335329.2894
      1943.4224
    154027.13249    112402.53548  20248028.1094   20248024.1294
      -622.5474
   -593664.93849   -451506.68347  23521826.6724   23521822.8054
      1965.9534
    825819.25549    618313.64048  21929558.8364   21929553.0234
     -2900.9374
   -226561.59549   -178339.02448  21252355.7974   21252352.2664
       726.6094
 04  9 14 20 59 30.0000000  0  6G 3G 8G13G19G23G27
    -42540.29849    -35561.20147  23005771.8134   23005768.7854
        22.7974
   -611196.98149   -465580.95947  22329792.2034   22329789.5514
      1938.7034
    163438.55849    119736.09948  20249819.3054   20249814.7854
      -632.1414
   -623102.69249   -474445.15047  23516225.2504   23516220.9064
      1959.2664
    869390.03149    652264.86548  21937849.9384   21937844.0004
     -2908.3124
   -237424.09849   -186803.31948  21250289.1254   21250285.3984
       722.0314
 04  9 14 20 59 45.0000000  0  6G 3G 8G13G19G23G27
    -42801.77349    -35764.93147  23005721.4924   23005719.5984
        12.2194
   -640244.93549   -488215.71147  22324264.2734   22324261.4184
      1934.4534
    172987.73249    127177.03148  20251636.4694   20251631.8484
      -641.0474
   -652445.43949   -497309.59647  23510641.7584   23510637.1484
      1953.1414
    913066.93649    686298.79948  21946161.2034   21946155.5554
     -2915.1414
   -248222.52849   -195217.66848  21248233.5784   21248230.6214
       717.9064
 04  9 14 21  0  0.0000000  0  6G 3G 8G13G19G23G27
    -42902.20149    -35843.19047  23005702.9224   23005700.7274
         1.4384
   -669226.85849   -510799.03047  22318749.7974   22318745.8874
      1930.0944
    182674.42349    134725.08148  20253480.2114   20253475.5394
      -650.1564
   -681692.84249   -520099.72747  23505076.0634   23505071.9884
      1946.7664
    956849.31949    720414.93248  21954492.5234   21954487.3834
     -2922.1724
   -258957.22149   -203582.36748  21246191.3524   21246187.9414
       713.6724
 04  9 14 21  0 15.0000000  0  6G 3G 8G13G19G23G27
    -42843.36249    -35797.35247  23005712.8914   23005711.5944
        -8.8914
   -698144.59949   -533332.31847  22313246.3984   22313243.5554
      1925.9844
    192496.87049    142378.93048  20255349.1414   20255344.5084
      -659.0944
   -710846.42949   -542816.76747  23499528.0394   23499524.3524
      1940.5784
   1000735.20249    754611.69448  21962843.0944   21962838.1684
     -2928.9224
   -269630.08749   -211898.88148  21244160.5704   21244156.6134
       709.7344
 04  9 14 21  0 30.0000000  0  6G 3G 8G13G19G23G27
    -42625.74549    -35627.76847  23005755.4224   23005753.5594
       -19.9064
   -726998.64049   -555815.97148  22307755.5784   22307752.0274
      1921.4384
    202454.55649    150138.16348  20257243.6724   20257239.3204
      -668.4064
   -739906.48049   -565460.92147  23493997.4384   23493994.5704
      1934.1884
   1044724.03149    788888.68448  21971214.3984   21971208.6804
     -2936.0784
   -280241.76949   -220167.73348  21242141.2114   21242137.1644
       705.3594
 04  9 14 21  0 45.0000000  0  6G 3G 8G13G19G23G27
    -42252.31149    -35336.79747  23005826.3364   23005823.8364
       -29.8754
   -755792.21049   -578252.51047  22302276.4924   22302273.6524
      1917.8284
    212544.39749    158000.36448  20259163.6954   20259159.1484
      -676.9224
   -768875.69349   -588034.29247  23488485.5784   23488481.9064
      1928.4844
   1088812.50149    823243.30748  21979604.0944   21979598.6994
     -2942.3444
   -290795.39749   -228391.34048  21240132.8754   21240129.1724
       701.8754
 04  9 14 21  1  0.0000000  0  6G 3G 8G13G19G23G27
    -41728.67649    -34928.76147  23005926.0474   23005923.8284
       -39.7034
   -784531.12549   -600646.45747  22296807.7274   22296804.4414
      1914.2814
    222760.71949    165961.13948  20261107.8834   20261103.0394
      -685.1094
   -797759.55349   -610541.14647  23482988.4694   23482985.5664
      1922.9224
   1132994.70649    857670.97648  21988011.7974   21988006.4804
     -2948.3914
   -301296.70249   -236574.16948  21238134.5084   21238130.6524
       698.5634
 04  9 14 21  1 15.0000000  0  6G 3G 8G13G19G23G27
    -41055.69949    -34404.35747  23006053.5704   23006051.2274
       -49.8754
   -813216.38149   -622998.59347  22291348.6094   22291345.9844
      1910.5314
    233102.61349    174019.74848  20263075.6644   20263070.9304
      -693.6564
   -826558.67549   -632981.97747  23477508.1724   23477505.1604
      1917.0784
   1177269.49349    892170.79848  21996437.1484   21996431.6564
     -2954.6874
   -311746.72349   -244717.03948  21236145.7114   21236141.8054
       694.9384
 04  9 14 21  1 30.0000000  0  6G 3G 8G13G19G23G27
    -40232.67049    -33763.05947  23006210.5314   23006208.2274
       -59.5944
   -841847.19049   -645308.30848  22285900.7344   22285897.5784
      1907.0784
    243570.93149    182176.87148  20265067.9614   20265063.2274
      -701.8284
   -855272.12349   -655356.04547  23472044.1724   23472040.8444
      1911.6094
   1221637.37849    926743.13748  22004879.8594   22004874.9264
     -2960.6874
   -322144.83349   -252819.46948  21234167.2034   21234163.3714
       691.6884
 04  9 14 21  1 45.0000000  0  6G 3G 8G13G19G23G27
    -39262.58549    -33007.12547  23006395.2974   23006393.3204
       -69.2664
   -870426.55449   -667577.92947  22280462.3204   22280459.4024
      1903.6414
    254162.64049    190430.14848  20267083.3754   20267078.8954
      -710.1094
   -883902.55049   -677665.44247  23466596.2274   23466592.2704
      1906.0474
   1266095.19749    961385.59148  22013339.8284   22013334.4734
     -2966.6564
   -332494.14949   -260883.85648  21232197.3594   21232194.2504
       688.4384
 04  9 14 21  2  0.0000000  0  6G 3G 8G13G19G23G27
    -38142.92649    -32134.66747  23006608.1094   23006606.2424
       -79.4694
   -898952.12249   -689805.63247  22275033.5864   22275031.6054
      1900.0474
    264880.23949    198781.51548  20269123.3284   20269118.4344
      -718.5474
   -912447.41849   -699908.15247  23461163.9224   23461160.4304
      1900.3284
   1310645.11949    996099.78948  22021817.8754   22021812.0354
     -2972.9064
   -342792.30949   -268908.39948  21230237.8134   21230234.8954
       685.0164
 04  9 14 21  2 15.0000000  0  6G 3G 8G13G19G23G27
    -36874.23149    -31146.08847  23006849.8204   23006847.1884
       -89.7814
   -927424.52949   -711991.90548  22269616.2504   22269613.1454
      1896.2194
    275723.39349    207230.71948  20271186.8204   20271182.0044
      -727.2814
   -940906.83849   -722084.31647  23455749.2664   23455744.5704
      1894.2034
   1355286.42149   1030885.18448  22030312.7894   22030306.7344
     -2979.3124
   -353039.91749   -276893.56048  21228288.0634   21228284.4384
       681.2504
 04  9 14 21  2 30.0000000  0  6G 3G 8G13G19G23G27
    -35456.98749    -30041.74947  23007119.2274   23007117.4734
       -99.3284
   -955844.36649   -734137.20547  22264207.2504   22264204.8444
      1893.0004
    286691.22049    215777.08148  20273273.3204   20273268.9454
      -735.2194
   -969281.00849   -744194.00547  23450349.1094   23450345.3324
      1888.8284
   1400018.41549   1065741.26948  22038824.6644   22038819.4534
     -2985.0314
   -363237.54249   -284839.74948  21226347.1414   21226343.4534
       678.2344
 04  9 14 21  2 45.0000000  0  6G 3G 8G13G19G23G27
    -33894.18449    -28823.98447  23007417.1564   23007414.6414
      -108.7814
   -984214.79149   -756244.02147  22258808.6174   22258805.7624
      1889.9694
    297780.69949    224418.21848  20275383.4614   20275379.4344
      -743.0624
   -997572.69349   -766239.48147  23444965.7344   23444961.9104
      1883.6094
   1444837.84449   1100665.47248  22047353.8284   22047348.1564
     -2990.5944
   -373388.34049   -292749.46448  21224415.8054   21224412.2074
       675.4064
 04  9 14 21  3  0.0000000  0  6G 3G 8G13G19G23G27
    -32183.18849    -27490.74547  23007742.9924   23007740.0044
      -119.0624
  -1012532.98049   -778310.13447  22253420.4924   22253417.3554
      1886.0474
    308994.51049    233156.24448  20277518.0084   20277512.9224
      -751.7664
  -1025779.00249   -788218.37347  23439597.4144   23439593.9344
      1877.4694
   1489747.23549   1135659.76848  22055899.5704   22055894.5234
     -2997.0004
   -383489.76549   -300620.69848  21222493.6024   21222489.5704
       671.7034
 04  9 14 21  3 15.0000000  0  6G 3G 8G13G19G23G27
    -30326.39649    -26043.89947  23008095.1644   23008093.3444
      -128.8754
  -1040801.64949   -800337.65548  22248041.0234   22248037.9884
      1882.7034
    320330.10849    241989.17748  20279674.7114   20279670.1644
      -760.0004
  -1053902.12749   -810132.45947  23434246.7734   23434242.0044
      1871.9694
   1534743.76049   1170721.96748  22064462.2034   22064457.0274
     -3002.8284
   -393544.45149   -308455.52048  21220580.2424   21220576.5044
       668.5784
 04  9 14 21  3 30.0000000  0  6G 3G 8G13G19G23G27
    -28322.99049    -24482.81847  23008477.5554   23008474.8714
      -138.4844
  -1069020.01149   -822325.97847  22242670.9454   22242667.7544
      1879.5164
    331788.46849    250917.75448  20281855.2894   20281850.6564
      -767.9844
  -1081940.97049   -831980.89647  23428910.4844   23428905.8204
      1866.3594
   1579828.14549   1205852.63348  22073041.8204   22073036.2814
     -3008.5314
   -403551.64249   -316253.33348  21218675.7194   21218672.2704
       665.5634
 04  9 14 21  3 45.0000000  0  6G 3G 8G13G19G23G27
    -26175.48849    -22809.42647  23008885.2194   23008883.6914
      -148.1094
  -1097190.39549   -844276.90547  22237310.6644   22237307.8094
      1876.2974
    343367.06449    259940.04348  20284058.8054   20284054.0594
      -776.0474
  -1109897.87049   -853765.46847  23423589.7424   23423586.3594
      1860.8914
   1624997.49349   1241049.49148  22081637.3984   22081631.7154
     -3014.2664
   -413513.95049   -324016.17248  21216780.0474   21216776.5664
       662.4694
 04  9 14 21  4  0.0000000  0  6G 3G 8G13G19G23G27
    -23882.81349    -21022.92247  23009322.0314   23009319.8204
      -157.5624
  -1125312.01149   -866189.84847  22231958.8524   22231956.3524
      1873.2974
    355066.94949    269056.82148  20286284.9064   20286280.3164
      -783.9064
  -1137771.50449   -875485.13147  23418285.6094   23418282.7424
      1855.5314
   1670252.76649   1276313.31748  22090248.4304   22090243.1484
     -3019.7504
   -423430.36549   -331743.24748  21214893.2664   21214889.8524
       659.6884
 04  9 14 21  4 15.0000000  0  6G 3G 8G13G19G23G27
    -21445.05749    -19123.38547  23009785.5864   23009784.0164
      -167.2344
  -1153385.07849   -888064.94747  22226616.6024   22226614.1134
      1870.0164
    366887.89049    278267.94448  20288534.2504   20288530.4264
      -791.9224
  -1165561.72649   -897139.83247  23412998.1884   23412993.7424
      1850.0634
   1715593.52649   1311643.75748  22098877.1174   22098871.3874
     -3025.4224
   -433301.18849   -339434.79248  21213014.9924   21213011.3984
       656.6414
 04  9 14 21  4 30.0000000  0  6G 3G 8G13G19G23G27
    -18863.22449    -17111.56947  23010276.4844   23010274.5514
      -176.9374
  -1181410.76749   -909903.13447  22221284.0084   22221280.8404
      1866.8444
    378828.95449    287572.66248  20290806.8284   20290802.3014
      -800.0474
  -1193269.15749   -918730.01947  23407725.9384   23407721.6334
      1844.3594
   1761018.66549   1347039.93648  22107521.3054   22107515.2274
     -3031.1564
   -443127.45149   -347091.62548  21211144.7584   21211141.5634
       653.6094
 04  9 14 21  4 45.0000000  0  6G 3G 8G13G19G23G27
    -16139.09749    -14988.88347  23010795.7734   23010792.9804
      -186.3914
  -1209390.79649   -931705.74347  22215959.0554   22215956.5044
      1863.8594
    390888.39249    296969.62848  20293101.5394   20293097.3984
      -807.8444
  -1220895.44849   -940256.98347  23402467.3984   23402464.0354
      1839.0944
   1806526.11549   1382500.26247  22116180.9924   22116175.6214
     -3036.5624
   -452911.10949   -354715.25148  21209283.3284   21209279.5234
       650.8444
 04  9 14 21  5  0.0000000  0  6G 3G 8G13G19G23G27
    -13272.33249    -12755.02547  23011341.1174   23011338.8524
      -195.9694
  -1237325.03249   -953472.66847  22210643.7274   22210640.1994
      1860.6724
    403066.42249    306458.99248  20295418.9304   20295414.5594
      -815.9224
  -1248439.93549   -961720.19947  23397226.1564   23397223.5394
      1833.4694
   1852115.90149   1418024.74748  22124856.5164   22124851.0314
     -3042.1724
   -462651.90649   -362305.47248  21207429.5554   21207426.1174
       647.8594
 04  9 14 21  5 15.0000000  0  6G 3G 8G13G19G23G27
    -10261.66449    -10409.07347  23011914.5314   23011911.3134
      -205.5784
  -1265212.19749   -975202.92447  22205336.5164   22205334.3364
      1857.5314
    415364.33349    316041.77048  20297759.5554   20297754.3524
      -823.8754
  -1275900.95549   -983118.37547  23392000.6094   23391997.4574
      1827.9224
   1897789.23249   1453614.32347  22133547.6724   22133542.4264
     -3047.7194
   -472348.65649   -369861.39048  21205584.5084   21205580.6914
       644.9694
 04  9 14 21  5 30.0000000  0  6G 3G 8G13G19G23G27
     -7106.67949     -7950.64347  23012514.6094   23012511.9384
      -215.0164
  -1293051.78949   -996896.10548  22200038.5234   22200035.7274
      1854.4844
    427782.54949    325718.30048  20300122.5314   20300117.7974
      -831.8124
  -1303277.86549  -1004451.02647  23386791.5704   23386787.8954
      1822.3594
   1943546.26049   1489269.13047  22142254.9144   22142250.2074
     -3053.1564
   -482000.89449   -377382.61048  21203747.4534   21203744.0004
       642.0944
 04  9 14 21  5 45.0000000  0  6G 3G 8G13G19G23G27
     -3810.33749     -5382.05647  23013141.7734   23013139.3284
      -224.2974
  -1320847.02549  -1018554.72048  22194749.6804   22194746.8524
      1851.7344
    440318.00149    335486.17748  20302507.9384   20302503.2624
      -839.4534
  -1330573.50449  -1025720.31447  23381597.0234   23381593.1294
      1817.2974
   1989383.77949   1524986.64648  22150977.9064   22150972.6134
     -3058.3594
   -491611.89549   -384871.69748  21201918.8204   21201914.7624
       639.5784
 04  9 14 21  6  0.0000000  0  6G 3G 8G13G19G23G27
      -368.64449     -2700.22647  23013796.7344   23013794.6914
      -233.9844
  -1348593.79149  -1040175.56148  22189469.5314   22189466.9144
      1848.4534
    452974.92849    345348.70948  20304916.1174   20304911.7154
      -847.5624
  -1357783.49449  -1046922.88847  23376419.7504   23376415.6804
      1811.4224
   2035305.60149   1560769.85847  22159716.4064   22159711.3914
     -3063.9844
   -501177.55449   -392325.45248  21200098.5634   21200094.7194
       636.5314
 04  9 14 21  6 15.0000000  0  6G 3G 8G13G19G23G27
      3214.99949        92.21747  23014478.2194   23014476.1094
      -243.3754
  -1376295.72649  -1061761.47847  22184198.1804   22184195.2624
      1845.5004
    465749.69649    355303.07548  20307347.2114   20307342.3094
      -855.2974
  -1384911.11249  -1068061.27447  23371257.9924   23371253.6374
      1805.9694
   2081307.98249   1596615.84748  22168470.7274   22168464.8984
     -3069.2194
   -510701.57349   -399746.76948  21198285.8284   21198282.2504
       633.8444
 04  9 14 21  6 30.0000000  0  6G 3G 8G13G19G23G27
      6943.79949      2997.76747  23015188.1174   23015185.2424
      -253.2504
  -1403949.70349  -1083310.02748  22178936.2114   22178932.8244
      1842.1254
    478645.57749    365351.80248  20309801.2664   20309797.2234
      -863.6874
  -1411952.78549  -1089132.70347  23366111.7814   23366106.9384
      1800.0004
   2127394.04049   1632527.03548  22177240.1724   22177235.6524
     -3075.1094
   -520180.78549   -407133.16448  21196482.2034   21196478.4384
       630.5784
 04  9 14 21  6 45.0000000  0  6G 3G 8G13G19G23G27
     10820.47549      6018.55947  23015926.3364   23015923.4454
      -262.9224
  -1431552.90049  -1104819.00047  22173682.8524   22173680.2894
      1838.9844
    491665.18449    375496.94548  20312279.2344   20312273.8404
      -871.6254
  -1438905.52749  -1110134.82547  23360982.7504   23360978.3134
      1794.3444
   2173566.17949   1668505.29047  22186026.4384   22186021.7734
     -3080.5474
   -529612.59049   -414482.62348  21194687.5394   21194683.6294
       627.6564
 04  9 14 21  7  0.0000000  0  6G 3G 8G13G19G23G27
     14839.80349      9150.48847  23016690.6644   23016687.6684
      -272.9844
  -1459110.61649  -1126292.54248  22168438.7274   22168436.1454
      1835.3284
    504803.34149    385734.46148  20314778.5004   20314774.2074
      -880.1724
  -1465774.35949  -1131071.55147  23355869.2344   23355865.6174
      1788.1414
   2219819.03349   1704546.44448  22194827.9144   22194823.2154
     -3086.5624
   -539002.19149   -421799.19548  21192900.3284   21192896.2774
       624.1724
 04  9 14 21  7 15.0000000  0  6G 3G 8G13G19G23G27
     19001.83949     12393.64447  23017482.1094   23017480.4224
      -282.3754
  -1486622.89649  -1147730.65347  22163203.4384   22163200.3364
      1832.6884
    518060.03749    396064.35848  20317301.4774   20317296.7814
      -887.7034
  -1492558.89349  -1151942.60847  23350772.1884   23350768.2114
      1782.8754
   2266152.37549   1740650.32448  22203645.5554   22203639.7934
     -3091.6094
   -548349.65849   -429082.93148  21191121.7664   21191118.0904
       621.7504
 04  9 14 21  7 30.0000000  0  6G 3G 8G13G19G23G27
     23305.53349     15747.18147  23018301.0634   23018299.4964
      -291.7974
  -1514090.67549  -1169134.12048  22157976.7894   22157973.7624
      1829.6094
    531434.28149    406485.84648  20319846.9304   20319841.7584
      -895.6254
  -1519259.79149  -1172748.50447  23345691.0474   23345687.1804
      1777.1724
   2312565.02749   1776816.00047  22212477.3594   22212471.4774
     -3096.8914
   -557656.06149   -436334.67548  21189351.2114   21189347.2974
       619.0634
 04  9 14 21  7 45.0000000  0  6G 3G 8G13G19G23G27
     27755.39449     19214.57147  23019148.5864   23019146.3054
      -301.4224
  -1541509.70049  -1190499.57848  22152758.7734   22152755.9734
      1826.3754
    544930.54749    417002.40848  20322414.8754   20322410.1644
      -903.7194
  -1545872.46149  -1193485.64847  23340627.0784   23340622.4964
      1771.3134
   2359061.19849   1813046.75447  22221325.1094   22221319.9064
     -3102.5004
   -566917.01949   -443551.01148  21187588.0944   21187584.7424
       615.9844
 04  9 14 21  8  0.0000000  0  6G 3G 8G13G19G23G27
     32351.14249     22795.70147  23020022.5004   23020020.5944
      -311.2664
  -1568880.18549  -1211827.22948  22147550.6484   22147547.3874
      1823.0004
    558548.60749    427613.87048  20325006.3284   20325001.3874
      -911.9694
  -1572396.83149  -1214153.98747  23335580.3134   23335575.6254
      1765.3444
   2405640.44549   1849342.23748  22230189.2974   22230183.4494
     -3108.1254
   -576133.05149   -450732.33348  21185834.8914   21185831.0704
       612.7974
 04  9 14 21  8 15.0000000  0  6G 3G 8G13G19G23G27
     37087.96649     26486.71147  23020924.4774   23020922.6094
      -320.1564
  -1596207.24649  -1233121.03148  22142350.4064   22142347.5554
      1820.6884
    572283.55949    438316.42248  20327619.9454   20327615.2814
      -919.1414
  -1598837.53849  -1234757.11447  23330547.7344   23330544.3914
      1760.3594
   2452297.73249   1885698.53648  22239067.4144   22239062.3484
     -3112.6874
   -585308.90049   -457882.34248  21184089.0314   21184085.0084
       610.8134
 04  9 14 21  8 30.0000000  0  6G 3G 8G13G19G23G27
     41965.29849     30287.24347  23021852.6884   23021850.1884
      -330.0164
  -1623491.49449  -1254381.46548  22137158.3594   22137154.9024
      1817.3134
    586134.86749    449109.65248  20330255.8524   20330251.4734
      -927.4374
  -1625194.82349  -1255295.24247  23325532.5554   23325528.7194
      1754.2194
   2499032.21649   1922114.99547  22247961.5004   22247955.6884
     -3118.3594
   -594445.19349   -465001.52948  21182350.1804   21182346.4454
       607.6254
 04  9 14 21  8 45.0000000  0  6G 3G 8G13G19G23G27
     46986.24749     34199.66447  23022806.9534   23022805.3634
      -339.2664
  -1650729.53649  -1275605.91648  22131975.8674   22131971.9224
      1814.6414
    600105.61349    459995.93448  20332914.1724   20332909.6644
      -935.0164
  -1651465.22749  -1275765.66047  23320534.1484   23320529.9224
      1748.7344
   2545846.85349   1958593.90747  22256869.5944   22256864.2814
     -3123.3444
   -603538.88749   -472087.51948  21180619.7664   21180615.6414
       605.1724
 04  9 14 21  9  0.0000000  0  6G 3G 8G13G19G23G27
     52149.52749     38222.98847  23023790.9454   23023787.5554
      -349.0314
  -1677922.91449  -1296795.55248  22126800.2504   22126796.7504
      1811.2974
    614194.59149    470974.35148  20335595.3204   20335591.0984
      -943.2974
  -1677649.70049  -1296169.15347  23315550.9064   23315546.9344
      1742.6564
   2592740.18549   1995134.12848  22265792.7274   22265787.9304
     -3129.0004
   -612591.35249   -479141.39848  21178897.0164   21178893.1054
       602.0004
 04  9 14 21  9 15.0000000  0  6G 3G 8G13G19G23G27
     57451.81349     42354.63347  23024798.7894   23024796.9654
      -358.2344
  -1705074.86149  -1317952.90048  22121633.6174   22121629.9694
      1808.6414
    628398.40949    482042.25548  20338298.2424   20338293.4694
      -950.7974
  -1703751.47749  -1316508.20147  23310583.6564   23310579.7034
      1737.2974
   2639708.48849   2031732.77847  22274730.8594   22274725.6294
     -3133.7664
   -621606.07449   -486165.84848  21177181.5004   21177177.2584
       599.7034
 04  9 14 21  9 30.0000000  0  6G 3G 8G13G19G23G27
     62894.21649     46595.48347  23025835.3134   23025833.7234
      -367.2664
  -1732184.34049  -1339077.15947  22116474.4224   22116471.8094
      1806.1414
    642718.18449    493200.52448  20341023.5084   20341018.9264
      -958.2194
  -1729769.10649  -1336781.66747  23305633.2584   23305628.9104
      1732.0164
   2686752.70149   2068390.56347  22283683.4144   22283677.8364
     -3138.5624
   -630581.97149   -493160.05248  21175473.2504   21175470.2194
       597.3284
 04  9 14 21  9 45.0000000  0  6G 3G 8G13G19G23G27
     68480.80849     50948.65747  23026897.8364   23026896.1884
      -377.7194
  -1759247.22649  -1360165.11147  22111324.0864   22111321.6054
      1802.1414
    657157.85649    504452.20048  20343771.1484   20343766.4024
      -967.1414
  -1755698.20649  -1356986.16047  23300698.7974   23300694.1054
      1725.1254
   2733876.78649   2105110.60747  22292650.8594   22292645.5704
     -3144.6724
   -639515.04549   -500120.88948  21173773.6484   21173769.9064
       593.5944
 04  9 14 21 10  0.0000000  0  6G 3G 8G13G19G23G27
     74209.94249     55412.90047  23027988.7504   23027987.0204
      -386.8444
  -1786265.54549  -1381218.34848  22106183.0164   22106180.5434
      1799.5164
    671715.83049    515796.07048  20346541.0554   20346536.2424
      -974.6254
  -1781540.12549  -1377122.71347  23295780.9774   23295776.4224
      1719.7194
   2781078.83749   2141891.39848  22301632.9614   22301627.0474
     -3149.5164
   -648407.01949   -507049.69348  21172081.4144   21172077.8794
       591.2814
 04  9 14 21 10 15.0000000  0  6G 3G 8G13G19G23G27
     80080.03349     59986.99647  23029105.6804   23029104.0824
      -396.1414
  -1813240.86049  -1402238.06448  22101049.8284   22101046.8094
      1796.9064
    686390.63549    527230.98248  20349333.8054   20349329.5554
      -982.3284
  -1807296.14649  -1397192.32647  23290880.2344   23290876.5474
      1714.0784
   2828357.08649   2178731.55548  22310629.3204   22310624.3794
     -3154.5314
   -657259.55349   -513947.76548  21170396.9924   21170393.2774
       588.7664
 04  9 14 21 10 30.0000000  0  6G 3G 8G13G19G23G27
     86095.66049     64674.48947  23030250.1414   23030247.5664
      -406.0314
  -1840168.58449  -1423220.69948  22095925.9774   22095922.8674
      1793.5314
    701186.75249    538760.41148  20352149.2974   20352144.5634
      -990.5624
  -1832961.45149  -1417191.25747  23285995.8054   23285991.8834
      1707.8444
   2875715.90149   2215634.51447  22319641.9144   22319636.3554
     -3160.0474
   -666068.01949   -520811.51448  21168720.7584   21168717.3754
       585.6564
 04  9 14 21 10 45.0000000  0  6G 3G 8G13G19G23G27
     92254.10149     69473.25847  23031422.0634   23031419.6884
      -415.1254
  -1867051.31249  -1444168.25548  22090810.0944   22090807.4224
      1790.8284
    716101.46449    550382.25548  20354987.4614   20354983.3524
      -998.0314
  -1858538.56049  -1437121.46647  23281128.9224   23281123.6644
      1702.3284
   2923152.45049   2252598.01747  22328668.6954   22328663.3874
     -3164.8914
   -674835.36349   -527643.20448  21167052.0704   21167048.7424
       583.2814
 04  9 14 21 11  0.0000000  0  6G 3G 8G13G19G23G27
     98555.11049     74383.13847  23032621.3594   23032618.7234
      -425.1564
  -1893889.27849  -1465080.94848  22085702.8834   22085700.6454
      1787.2974
    731134.58249    562096.36648  20357848.8134   20357843.8794
     -1006.5624
  -1884027.35349  -1456982.86547  23276278.1024   23276273.3754
      1695.8444
   2970666.16349   2289621.66847  22337710.0084   22337704.0704
     -3170.5784
   -683561.66649   -534442.93048  21165391.8674   21165388.2274
       580.0634
 04  9 14 21 11 15.0000000  0  6G 3G 8G13G19G23G27
    105000.87449     79405.80747  23033847.5944   23033845.5824
      -434.3914
  -1920680.37749  -1485957.12248  22080605.1884   22080602.6294
      1784.6884
    746288.23449    573904.41148  20360731.9694   20360727.4264
     -1014.0624
  -1909425.39349  -1476773.52147  23271445.5164   23271440.8094
      1690.2974
   3018259.09849   2326707.04147  22346766.3054   22346761.6334
     -3175.3444
   -692244.98549   -541209.14048  21163739.3834   21163735.5944
       577.6564
 04  9 14 21 11 30.0000000  0  6G 3G 8G13G19G23G27
    111586.02349     84537.08547  23035100.6484   23035098.7934
      -443.6724
  -1947430.07949  -1506801.04148  22075515.1724   22075511.9184
      1781.9064
    761557.01349    585802.14748  20363637.7034   20363633.2154
     -1021.7344
  -1934737.68949  -1496497.38747  23266628.5554   23266624.7504
      1684.5634
   3065925.74649   2363849.85448  22355837.8204   22355832.1604
     -3180.2344
   -700890.71649   -547946.08448  21162094.2034   21162090.2584
       575.0634
 04  9 14 21 11 45.0000000  0  6G 3G 8G13G19G23G27
    118311.44849     89777.66247  23036380.8984   23036378.6804
      -453.1414
  -1974137.32749  -1527611.86848  22070432.4694   22070429.6174
      1779.0004
    776941.73449    597790.23848  20366565.2664   20366561.1024
     -1029.5784
  -1959963.18949  -1516153.60647  23261828.3134   23261825.1134
      1678.7034
   3113666.67549   2401050.55248  22364922.3444   22364917.0084
     -3185.2974
   -709497.94449   -554653.00448  21160456.6644   21160452.8054
       572.4694
 04  9 14 21 12  0.0000000  0  6G 3G 8G13G19G23G27
    125181.02949     95130.56347  23037688.3524   23037686.1414
      -462.5164
  -2000798.48849  -1548386.78548  22065359.0784   22065356.2274
      1776.2194
    792446.56849    609871.92148  20369515.3134   20369510.7854
     -1037.3444
  -1985097.60249  -1535738.85847  23257045.3204   23257041.8054
      1672.8754
   3161485.55549   2438311.99447  22374022.0314   22374016.0944
     -3190.1564
   -718062.96249   -561327.04148  21158826.5234   21158822.6954
       569.9064
 04  9 14 21 12 15.0000000  0  6G 3G 8G13G19G23G27
    132192.63149    100594.13347  23039021.9694   23039019.8444
      -472.3754
  -2027415.70349  -1569127.46748  22060294.0864   22060291.4264
      1772.8284
    808069.32149    622045.48148  20372488.6564   20372484.0004
     -1045.7034
  -2010142.86549  -1555254.62947  23252279.4614   23252276.2544
      1666.5004
   3209380.15449   2475632.41547  22383136.4774   22383130.8324
     -3195.7194
   -726587.79849   -567969.77148  21157204.0944   21157200.3954
       566.7814
 04  9 14 21 12 30.0000000  0  6G 3G 8G13G19G23G27
    139347.80949    106169.60247  23040383.8594   23040380.9574
      -481.8124
  -2053987.50449  -1589832.76848  22055237.2194   22055234.9384
      1769.9534
    823811.32549    634311.97648  20375484.0944   20375479.6214
     -1053.4064
  -2035097.03749  -1574699.44347  23247530.2114   23247526.3094
      1660.6094
   3257351.74349   2513012.83547  22392264.5784   22392259.2464
     -3200.6564
   -735071.14249   -574580.17348  21155589.7274   21155585.8284
       564.2194
 04  9 14 21 12 45.0000000  0  6G 3G 8G13G19G23G27
    146647.05849    111857.33047  23041772.1414   23041770.4264
      -490.7034
  -2080513.30549  -1610502.22048  22050189.9224   22050187.0164
      1767.4844
    839673.25749    646671.91548  20378502.5394   20378498.2934
     -1060.8284
  -2059959.26149  -1594072.59947  23242799.6334   23242795.4494
      1655.0314
   3305400.61249   2550453.49047  22401408.7274   22401402.5274
     -3205.2034
   -743512.34849   -581157.74248  21153983.0864   21153979.2424
       561.9694
 04  9 14 21 13  0.0000000  0  6G 3G 8G13G19G23G27
    154084.29549    117652.56247  23043187.7664   23043185.0354
      -500.5314
  -2106999.25749  -1631140.60648  22045149.9304   22045146.9064
      1764.1724
    855649.00649    659120.54148  20381542.6804   20381537.8524
     -1069.0164
  -2084735.46249  -1613378.70947  23238085.0004   23238080.6644
      1648.6724
   3353520.53449   2587949.49947  22410564.4224   22410559.8674
     -3210.6094
   -751917.66149   -587707.33348  21152384.1804   21152380.2974
       558.9694
 04  9 14 21 13 15.0000000  0  6G 3G 8G13G19G23G27
    161667.91449    123561.86447  23044631.0784   23044629.6994
      -510.2034
  -2133437.09349  -1651741.50248  22040118.8594   22040115.5864
      1761.1094
    871746.86349    671664.32248  20384606.0234   20384601.5274
     -1077.0164
  -2109416.93449  -1632611.02747  23233387.9924   23233384.2894
      1642.5784
   3401719.57249   2625507.15647  22419736.8834   22419731.8284
     -3215.6254
   -760278.76049   -594222.47848  21150792.9224   21150789.3244
       556.2034
 04  9 14 21 13 30.0000000  0  6G 3G 8G13G19G23G27
    169392.52849    129581.04047  23046100.7424   23046099.4264
      -519.7034
  -2159832.05349  -1672309.00648  22035095.6414   22035092.3364
      1758.2504
    887961.55549    684299.13248  20387691.4774   20387686.9614
     -1084.8914
  -2134008.79449  -1651773.48947  23228708.8984   23228704.5084
      1636.5004
   3449992.18049   2663122.14847  22428922.6254   22428917.2464
     -3220.6254
   -768601.11649   -600707.42848  21149209.1564   21149205.1254
       553.5004
 04  9 14 21 13 45.0000000  0  6G 3G 8G13G19G23G27
    177262.44149    135713.43247  23047598.4924   23047597.1644
      -529.4534
  -2186179.79349  -1692839.70048  22030081.8754   22030078.9384
      1755.0004
    904297.29649    697028.27148  20390799.9454   20390795.6684
     -1093.1094
  -2158506.54449  -1670862.62447  23224046.9694   23224042.9414
      1630.1094
   3498342.60949   2700797.76647  22438123.7114   22438118.6954
     -3225.8754
   -776880.42749   -607158.83848  21147633.7504   21147629.8444
       550.6564
 04  9 14 21 14  0.0000000  0  6G 3G 8G13G19G23G27
    185275.56649    141957.41847  23049123.0634   23049121.7854
      -539.1564
  -2212482.38549  -1713335.20948  22025077.0784   22025073.4144
      1751.7974
    920752.01649    709850.12948  20393931.4454   20393926.8834
     -1101.0784
  -2182911.77049  -1689879.67147  23219402.5864   23219397.6254
      1623.7344
   3546768.59249   2738532.27247  22447338.6564   22447333.4224
     -3231.0314
   -785118.63249   -613578.21748  21146065.8674   21146062.4804
       547.6724
 04  9 14 21 14 15.0000000  0  6G 3G 8G13G19G23G27
    193431.71549    148312.84247  23050675.6254   23050673.1254
      -548.9064
  -2238740.07249  -1733795.73848  22020080.5084   22020076.9774
      1748.6094
    937325.66449    722764.65748  20397085.2274   20397080.5984
     -1109.2974
  -2207224.39149  -1708824.55747  23214776.1954   23214770.6294
      1617.3134
   3595269.52549   2776325.18147  22456568.6174   22456563.1684
     -3236.3124
   -793316.17649   -619965.90648  21144505.8984   21144501.9534
       544.7344
 04  9 14 21 14 30.0000000  0  6G 3G 8G13G19G23G27
    201731.62349    154780.28847  23052254.7344   23052252.9534
      -558.0164
  -2264952.22249  -1754220.77848  22015092.1334   22015088.9104
      1746.0474
    954018.91749    735772.37948  20400261.7274   20400257.4614
     -1116.8124
  -2231443.46349  -1727696.55147  23210167.4694   23210162.2194
      1611.5634
   3643846.04349   2814176.99847  22465811.8444   22465806.7464
     -3240.9064
   -801472.17949   -626321.23748  21142954.1724   21142950.5664
       542.4064
 04  9 14 21 14 45.0000000  0  6G 3G 8G13G19G23G27
    210177.08649    161361.16847  23053861.9844   23053859.6254
      -568.3284
  -2291116.88749  -1774608.82348  22010113.5944   22010110.0594
      1742.2344
    970833.63049    748874.74248  20403461.7584   20403457.2624
     -1125.5784
  -2255566.86349  -1746493.98547  23205576.7344   23205572.5124
      1604.5004
   3692499.96049   2852089.08647  22475070.3984   22475066.1684
     -3246.6414
   -809584.98349   -632642.91348  21141410.4304   21141406.5944
       539.0164
 04  9 14 21 15  0.0000000  0  6G 3G 8G13G19G23G27
    218767.38149    168054.88147  23055497.3204   23055495.2814
      -577.1414
  -2317235.02349  -1794960.60448  22005143.5474   22005140.4024
      1740.0634
    987769.08849    762071.18248  20406684.3594   20406679.8484
     -1132.6254
  -2279595.03649  -1765217.21847  23201003.7894   23201000.2384
      1599.0474
   3741230.27549   2890060.72147  22484343.8364   22484338.2194
     -3250.9224
   -817655.28949   -638931.46948  21139874.8444   21139871.1094
       536.9694
 04  9 14 21 15 15.0000000  0  8G 3G 8G13G19G23G27G10G28
    227496.18349    174856.54747  23057157.6094   23057156.3014
      -586.6724
  -2343312.96849  -1815281.07548  22000180.3364   22000176.9844
      1737.0164
   1004818.78849    775356.65148  20409928.7424   20409924.0554
     -1140.6414
  -2303534.05449  -1783870.98447  23196448.4924   23196444.2384
      1592.7974
   3790030.30849   2928086.67447  22493630.6724   22493624.6724
     -3255.9064
   -825689.51749   -645191.90548  21138345.9304   21138342.1024
       534.2504
    -64350.92259    -49459.63057  24191579.1024   24191577.1844
      1862.1094
   -104769.06659    -77855.61256  24297257.9224   24297255.4304
      3042.9694
 04  9 14 21 15 30.0000000  0  8G 3G 8G13G19G23G27G10G28
    236366.76749    181768.67647  23058846.5084   23058843.5704
      -596.0164
  -2369347.37449  -1835567.61048  21995226.3524   21995223.5164
      1734.2504
   1021986.15049    788733.80748  20413195.7194   20413191.1094
     -1148.5004
  -2327380.29549  -1802452.46247  23191911.2504   23191906.4884
      1586.6724
   3838903.15349   2966169.38547  22502930.6724   22502924.8754
     -3260.6414
   -833684.43249   -651421.69648  21136824.5634   21136820.9144
       531.6254
    -92227.12949    -71181.35647  24186275.2194   24186272.3364
      1854.5944
   -150395.63449   -113408.72146  24288575.0084   24288573.5434
      3040.4224
 04  9 14 21 15 45.0000000  0  8G 3G 8G13G19G23G27G10G28
    245378.53049    188790.82047  23060560.6644   23060558.4104
      -605.1414
  -2395338.93449  -1855820.76848  21990280.5864   21990277.5554
      1731.7034
   1039270.62249    802202.23048  20416484.7344   20416480.5594
     -1155.9064
  -2351133.92649  -1820961.76547  23187391.4304   23187387.2304
      1580.6724
   3887848.13749   3004308.30447  22512244.5314   22512239.9534
     -3265.0624
   -841640.67049   -657621.37348  21135310.3364   21135306.9414
       529.3754
   -119990.20949    -92814.93847  24180991.3674   24180988.8364
      1847.4384
   -195986.58349   -148934.05446  24279899.4774   24279897.2974
      3038.4844
 04  9 14 21 16  0.0000000  0  8G 3G 8G13G19G23G27G10G28
    254529.51749    195921.44847  23062302.3674   23062299.7234
      -614.8444
  -2421289.15749  -1876041.70748  21985342.7424   21985339.2114
      1728.5164
   1056670.10149    815760.25348  20419795.7664   20419791.1724
     -1163.9534
  -2374796.78649  -1839400.33747  23182888.3054   23182884.3204
      1574.3134
   3936863.03049   3042501.68747  22521572.1414   22521566.3834
     -3270.1094
   -849560.11649   -663792.37248  21133803.4224   21133799.5354
       526.5314
   -147642.04349   -114361.79647  24175728.4064   24175726.8874
      1839.6724
   -241543.51549   -184432.90446  24271231.0394   24271228.0434
      3035.9224
 04  9 14 21 16 15.0000000  0  8G 3G 8G13G19G23G27G10G28
    263823.95749    203163.83847  23064071.1564   23064068.9574
      -624.6254
  -2447194.32949  -1896227.54548  21980412.5004   21980409.8014
      1725.2814
   1074188.84749    829411.20048  20423129.4774   20423125.2934
     -1172.1564
  -2398364.42749  -1857764.71247  23178403.4614   23178399.3594
      1567.7504
   3985951.95949   3080752.77047  22530913.5234   22530907.8134
     -3275.3914
   -857438.64449   -669931.49248  21132303.9304   21132300.2234
       523.6414
   -175177.99449   -135818.37747  24170489.3984   24170486.4964
      1831.6884
   -287062.09149   -219901.89046  24262569.0084   24262566.2464
      3033.0164
 04  9 14 21 16 30.0000000  0  8G 3G 8G13G19G23G27G10G28
    273261.66749    210517.91947  23065867.4304   23065864.6374
      -633.8594
  -2473054.37449  -1916378.22048  21975491.8524   21975488.2544
      1722.5944
   1091826.77949    843155.03748  20426485.6024   20426481.4844
     -1179.7974
  -2421836.49749  -1876054.62547  23173936.5864   23173932.1054
      1561.7194
   4035114.57349   3119061.26347  22540269.0084   22540264.0234
     -3279.9224
   -865276.39549   -676038.82348  21130813.0004   21130808.9064
       521.2664
   -202597.98649   -157184.55547  24165271.4614   24165269.1334
      1824.2194
   -332542.30849   -255341.01047  24253914.3134   24253912.4344
      3030.8914
 04  9 14 21 16 45.0000000  0  8G 3G 8G13G19G23G27G10G28
    282836.00449    217978.42047  23067688.7584   23067686.9804
      -643.5004
  -2498876.08949  -1936499.02448  21970577.5944   21970574.8794
      1719.4064
   1109577.26549    856986.57048  20429863.6334   20429859.2274
     -1187.8124
  -2445219.41449  -1894275.04147  23169486.9774   23169482.9024
      1555.2194
   4084344.00549   3157421.81647  22549636.8914   22549631.4494
     -3284.8754
   -873079.99649   -682119.55648  21129327.7194   21129323.8324
       518.4844
   -229908.42049   -178465.43047  24160073.7974   24160072.2504
      1816.3284
   -377990.64649   -290755.20246  24245265.4534   24245263.7854
      3028.2034
 04  9 14 21 17  0.0000000  0  8G 3G 8G13G19G23G27G10G28
    292557.77849    225553.82847  23069538.9224   23069537.0084
      -653.0944
  -2524648.34549  -1956581.29548  21965673.5084   21965669.8914
      1716.5634
   1127451.31349    870914.39648  20433264.8834   20433260.3164
     -1195.7034
  -2468501.86849  -1912417.19047  23165056.4224   23165051.3984
      1548.7974
   4133650.98449   3195842.80747  22559019.7664   22559014.3874
     -3289.7504
   -880838.58749   -688165.21148  21127851.2814   21127847.7544
       515.7664
   -257098.18549   -199652.27247  24154901.1254   24154898.1524
      1808.6564
   -423395.94749   -326135.91847  24236625.6254   24236622.4104
      3025.5784
 04  9 14 21 17 15.0000000  0  8G 3G 8G13G19G23G27G10G28
    302422.47449    233240.56647  23071416.0474   23071413.0864
      -662.4534
  -2550375.90049  -1976628.74648  21960777.8364   21960774.1604
      1713.6564
   1145444.16949    884934.78448  20436688.7974   20436684.4344
     -1203.5164
  -2491688.35249  -1930484.57147  23160644.2664   23160639.3054
      1542.5164
   4183030.68149   3234320.45647  22568415.9614   22568410.5394
     -3294.4694
   -888556.89349   -694179.47848  21126382.2894   21126378.5944
       513.1414
   -284171.72049   -220748.53247  24149748.2734   24149745.6914
      1800.8914
   -468762.66549   -361486.55446  24227992.4384   24227989.5434
      3023.1724
 04  9 14 21 17 30.0000000  0  8G 3G 8G13G19G23G27G10G28
    312426.03449    241035.57447  23073319.4304   23073316.8164
      -671.6874
  -2576062.73249  -1996644.44648  21955889.7894   21955886.3554
      1710.8594
   1163551.93749    899044.72748  20440135.0944   20440130.3284
     -1211.2814
  -2514782.53049  -1948479.98747  23156249.2034   23156245.5274
      1536.2664
   4232478.95949   3272851.54647  22577825.5234   22577820.1764
     -3299.0624
   -896238.87649   -700165.44148  21124920.8134   21124916.7894
       510.6564
   -311132.74549   -241757.09047  24144617.8834   24144615.7814
      1793.4064
   -514094.70949   -396810.17146  24219365.8524   24219363.3914
      3020.6564
 04  9 14 21 17 45.0000000  0  8G 3G 8G13G19G23G27G10G28
    322571.84049    248941.38147  23075250.1564   23075247.9144
      -681.0474
  -2601705.36549  -2016625.71048  21951010.0554   21951006.9494
      1707.9844
   1181777.77949    913246.67448  20443602.9224   20443598.5904
     -1218.9694
  -2537780.63849  -1966400.56747  23151873.3444   23151869.0634
      1530.0634
   4281998.97049   3311438.54947  22587248.7034   22587243.7114
     -3303.7194
   -903881.04449   -706120.37248  21123466.2734   21123462.9414
       508.1724
   -337977.59149   -262675.14047  24139508.1644   24139508.0984
      1785.6564
   -559388.46149   -432103.97247  24210747.0234   24210744.5044
      3018.2664
 04  9 14 21 18  0.0000000  0  8G 3G 8G13G19G23G27G10G28
    332860.13649    256958.24047  23077207.8754   23077205.8204
      -690.5944
  -2627303.59649  -2036572.37448  21946138.6804   21946135.9184
      1705.0474
   1200122.25349    927541.06248  20447093.6334   20447089.5664
     -1226.9064
  -2560682.13349  -1984245.86247  23147514.8984   23147511.1724
      1523.4694
   4331590.73849   3350081.43847  22596685.9614   22596681.3014
     -3308.4844
   -911483.36849   -712044.25948  21122019.8364   21122015.7034
       505.4844
   -364705.94349   -283502.42547  24134422.7424   24134420.9884
      1777.9844
   -604643.40749   -467367.47247  24202135.1254   24202132.8554
      3015.7344
 04  9 14 21 18 15.0000000  0  8G 3G 8G13G19G23G27G10G28
    343289.53349    265085.00347  23079192.5944   23079190.8984
      -700.1254
  -2652858.79949  -2056485.51748  21941275.8834   21941273.3444
      1702.0164
   1218583.89649    941926.73848  20450607.1484   20450602.3244
     -1234.8594
  -2583488.15749  -2002016.78647  23143174.9224   23143170.9224
      1517.0474
   4381252.81149   3388779.12547  22606136.6024   22606131.5204
     -3313.3284
   -919047.07449   -717938.06348  21120580.2344   21120576.7974
       502.7344
   -391318.79149   -304239.71547  24129359.1254   24129356.7774
      1769.9384
   -649860.70049   -502601.68946  24193530.1254   24193527.6454
      3013.0164
 04  9 14 21 18 30.0000000  0  8G 3G 8G13G19G23G27G10G28
    353861.53049    273322.93847  23081204.5944   23081202.4844
      -709.4844
  -2678369.45449  -2076363.93248  21936420.8594   21936418.5164
      1699.3284
   1237164.04349    956404.77348  20454142.5004   20454138.3014
     -1242.5474
  -2606196.97249  -2019711.93947  23138853.3914   23138849.9224
      1510.7664
   4430986.46549   3427532.58947  22615600.7274   22615596.1094
     -3317.8124
   -926570.89849   -723800.78648  21119148.6094   21119144.8524
       500.2814
   -417814.60749   -324885.81447  24124317.0084   24124315.0664
      1762.4384
   -695038.78749   -537805.33447  24184932.4384   24184931.0314
      3010.5784
 04  9 14 21 18 45.0000000  0  8G 3G 8G13G19G23G27G10G28
    364576.57849    281672.31247  23083244.1414   23083241.4454
      -719.0314
  -2703835.09749  -2096207.28448  21931575.1884   21931572.4454
      1696.2814
   1255863.28549    970975.59748  20457701.0554   20457696.6334
     -1250.5474
  -2628807.82549  -2037330.76247  23134551.4614   23134546.6334
      1504.1564
   4480791.86449   3466341.96547  22625077.9844   22625073.7774
     -3322.7034
   -934054.28349   -729631.99548  21117724.7974   21117721.1914
       497.6884
   -444192.71849   -345440.16447  24119297.4924   24119295.8054
      1754.6414
   -740177.04949   -572977.95047  24176344.0084   24176341.3014
      3007.9384
 04  9 14 21 19  0.0000000  0  8G 3G 8G13G19G23G27G10G28
    375431.57049    290130.73947  23085309.0474   23085306.8634
      -728.2034
  -2729258.94549  -2116018.06348  21926737.4844   21926734.3954
      1693.5634
   1274678.60349    985636.87148  20461281.3834   20461276.6724
     -1257.9694
  -2651323.33449  -2054875.29947  23130266.3524   23130261.8634
      1498.0164
   4530665.80649   3505204.74547  22634568.7114   22634563.5904
     -3327.0944
   -941500.36149   -735434.13548  21116307.7504   21116304.2344
       495.2974
   -470455.72149   -365904.84747  24114299.7584   24114297.9534
      1747.3134
   -785278.22749   -608121.66047  24167760.9144   24167758.4344
      3005.6094
 04  9 14 21 19 15.0000000  0  8G 3G 8G13G19G23G27G10G28
    386429.42249    298700.48847  23087401.9534   23087399.3874
      -737.7814
  -2754637.83049  -2135793.81448  21921908.0474   21921904.4924
      1690.5634
   1293612.90449   1000390.85448  20464884.7814   20464879.8794
     -1266.1094
  -2673740.31149  -2072343.06247  23126000.5554   23125996.6214
      1491.3594
   4580611.07649   3544123.08647  22644073.6174   22644068.0084
     -3331.9224
   -948906.12249   -741204.85948  21114898.3754   21114894.6294
       492.5314
   -496600.61249   -386277.50246  24109324.7504   24109322.2154
      1739.1564
   -830339.35349   -643234.16646  24159185.4224   24159184.1994
      3002.8754
 04  9 14 21 19 30.0000000  0  8G 3G 8G13G19G23G27G10G28
    397569.19849    307380.83747  23089521.7424   23089519.3834
      -747.5314
  -2779973.09649  -2155535.57548  21917087.0704   21917083.3674
      1687.3754
   1312665.11749   1015236.72548  20468510.1414   20468505.8524
     -1274.2034
  -2696059.58149  -2089734.66747  23121753.6804   23121749.2974
      1484.5634
   4630626.46049   3583096.07847  22653590.8834   22653586.1484
     -3336.8754
   -956272.63449   -746945.00648  21113496.6954   21113492.3634
       489.6094
   -522628.17449   -406558.68446  24104371.1334   24104368.9884
      1731.2504
   -875361.15549   -678316.04147  24150618.1884   24150616.9734
      2999.9224
 04  9 14 21 19 45.0000000  0  8G 3G 8G13G19G23G27G10G28
    408850.52349    316171.46447  23091668.9224   23091666.6524
      -756.7194
  -2805264.88849  -2175243.46248  21912274.1484   21912270.8324
      1684.6724
   1331834.91949   1030174.21348  20472158.2504   20472153.7114
     -1281.7974
  -2718280.99649  -2107050.05147  23117524.3834   23117520.3984
      1478.1724
   4680711.41549   3622123.28547  22663121.7734   22663117.3554
     -3341.2974
   -963600.11949   -752654.73148  21112102.2504   21112098.3674
       487.2034
   -548538.45849   -426748.53746  24099440.2344   24099438.2424
      1723.3754
   -920343.80249   -713367.41146  24142058.3754   24142056.6414
      2997.5634
 04  9 14 21 20  0.0000000  0  8G 3G 8G13G19G23G27G10G28
    420279.11549    325076.85447  23093842.8364   23093841.4024
      -766.8594
  -2830507.22949  -2194912.80248  21907470.7504   21907467.7234
      1681.1414
   1351128.26849   1045207.98648  20475829.7584   20475824.8874
     -1290.3754
  -2740398.52849  -2124284.45347  23113316.0784   23113311.7034
      1470.9384
   4730871.66349   3661209.16047  22672666.8754   22672661.7304
     -3346.5314
   -970882.88049   -758329.61048  21110716.5164   21110712.6334
       483.9844
   -574325.30049   -446842.16746  24094534.2034   24094531.6844
      1714.8284
   -965281.19949   -748383.50446  24133507.2734   24133505.3444
      2994.2974
 04  9 14 21 20 15.0000000  0  8G 3G 8G13G19G23G27G10G28
    431851.29949    334094.12647  23096045.6174   23096043.1254
      -776.0944
  -2855703.71649  -2214546.43648  21902675.8594   21902672.5824
      1678.3914
   1370541.26049   1060334.97248  20479523.8134   20479519.3404
     -1298.0004
  -2762415.59449  -2141440.61147  23109126.8204   23109120.9144
      1464.5944
   4781103.20149   3700350.57647  22682226.2814   22682220.8404
     -3351.0314
   -978124.73349   -763972.63148  21109338.2194   21109334.5394
       481.5004
   -599992.43549   -466842.56346  24089649.2114   24089647.6684
      1707.2504
  -1010176.93749   -783367.14747  24124964.4694   24124962.5864
      2991.8444
 04  9 14 21 20 30.0000000  0  8G 3G 8G13G19G23G27G10G28
    443563.55249    343220.54447  23098274.7424   23098271.8754
      -785.6414
  -2880858.15449  -2234147.28048  21897889.1254   21897886.0904
      1675.4224
   1390070.52749   1075552.57448  20483239.7114   20483235.7384
     -1305.9694
  -2784335.43149  -2158520.97547  23104954.5234   23104950.5004
      1457.9534
   4831402.38649   3739544.71547  22691797.5314   22691792.3134
     -3355.6724
   -985329.08849   -769586.41048  21107967.1174   21107963.6724
       478.9064
   -625543.11149   -486752.14946  24084787.2034   24084785.2424
      1699.3594
  -1055034.38449   -818320.98247  24116426.9774   24116425.5744
      2989.0784
 04  9 14 21 20 45.0000000  0  8G 3G 8G13G19G23G27G10G28
    455419.84249    352459.21147  23100530.4844   23100529.0704
      -795.0944
  -2905966.47049  -2253712.18448  21893110.7194   21893108.0164
      1672.5004
   1409720.06349   1090863.89048  20486978.8754   20486974.6684
     -1313.8444
  -2806153.66049  -2175522.16947  23100802.8914   23100798.4304
      1451.3444
   4881773.16849   3778794.65147  22701382.7194   22701377.6644
     -3360.3124
   -992491.83449   -775167.76748  21106604.2194   21106600.5704
       476.2814
   -650973.05649   -506567.67146  24079948.4924   24079946.1524
      1691.5634
  -1099849.36549   -853241.64247  24107899.1254   24107897.5514
      2986.3754
 04  9 14 21 21  0.0000000  0  8G 3G 8G13G19G23G27G10G28
    467414.15549    361805.42447  23102813.0314   23102810.2274
      -804.3914
  -2931034.43949  -2273245.66848  21888340.6174   21888338.2934
      1669.6094
   1429483.83049   1106264.21248  20490739.7734   20490735.5554
     -1321.5164
  -2827876.03949  -2192448.69047  23096669.0944   23096664.6564
      1444.8444
   4932209.29249   3818095.47747  22710980.1484   22710975.3674
     -3364.7034
   -999619.08649   -780721.47348  21105247.7504   21105244.2304
       473.8134
   -676287.96449   -526293.54047  24075131.0164   24075129.0164
      1683.5944
  -1144627.51249   -888133.64147  24099379.1414   24099375.9344
      2983.8594
 04  9 14 21 21 15.0000000  0  8G 3G 8G13G19G23G27G10G28
    479550.32949    371262.17547  23105122.4534   23105120.2074
      -814.0624
  -2956058.27649  -2292744.74748  21883579.0704   21883575.7664
      1666.4694
   1449365.74749   1121756.60348  20494523.6644   20494518.9844
     -1329.8124
  -2849498.36849  -2209297.24647  23092554.9534   23092550.4494
      1437.7974
   4982714.35249   3857450.03647  22720591.1484   22720586.0204
     -3369.6564
  -1006706.97549   -786244.50548  21103899.0944   21103895.2934
       470.8754
   -701483.71449   -545926.58646  24070336.3674   24070334.1454
      1675.4064
  -1189364.85649   -922993.93147  24090865.3364   24090862.9304
      2980.8594
 04  9 14 21 21 30.0000000  0  8G 3G 8G13G19G23G27G10G28
    491831.21049    380831.69047  23107459.8444   23107457.0744
      -823.5004
  -2981035.20849  -2312207.29048  21878826.1564   21878822.7814
      1663.5314
   1469368.79449   1137343.38848  20498329.9064   20498325.9774
     -1337.6094
  -2871017.49949  -2226065.35947  23088459.7194   23088455.9184
      1431.1254
   5033291.09049   3896860.44947  22730215.8284   22730210.4184
     -3374.1564
  -1013752.54749   -791734.55548  21102558.7734   21102554.9024
       468.3284
   -726557.27149   -565464.36846  24065564.6804   24065562.8244
      1667.5314
  -1234058.37649   -957819.97347  24082360.2274   24082358.0824
      2978.1724
 04  9 14 21 21 45.0000000  0  8G 3G 8G13G19G23G27G10G28
    504256.87149    390514.01047  23109823.5314   23109821.7194
      -833.4374
  -3005965.09049  -2331633.16948  21874082.0944   21874078.9844
      1660.2974
   1489492.89349   1153024.47948  20502159.7504   20502155.2114
     -1345.7664
  -2892432.99749  -2242752.76047  23084384.9064   23084380.5124
      1424.1564
   5083939.38949   3936326.61447  22739853.5554   22739849.0394
     -3379.1094
  -1020755.83849   -797191.67848  21101225.9614   21101222.1094
       465.2814
   -751508.32349   -584906.75047  24060817.2344   24060815.1914
      1659.1414
  -1278707.75849   -992611.65847  24073864.7894   24073862.0594
      2975.0004
 04  9 14 21 22  0.0000000  0  8G 3G 8G13G19G23G27G10G28
    516824.22549    400306.77047  23112215.0394   23112213.0234
      -842.4694
  -3030850.96649  -2351024.74348  21869346.3524   21869343.6604
      1657.6564
   1509734.87749   1168797.46148  20506011.3914   20506006.8244
     -1353.3124
  -2913747.74849  -2259361.62447  23080329.1414   23080324.3134
      1417.7664
   5134656.07249   3975846.07947  22749504.9774   22749499.3554
     -3383.2974
  -1027719.94049   -802618.24648  21099900.6804   21099897.0944
       463.0164
   -776339.69549   -604255.89547  24056091.2114   24056089.2344
      1651.5164
  -1323315.97149  -1027371.25547  24065375.4144   24065373.2854
      2972.5474
 04  9 14 21 22 15.0000000  0  8G 3G 8G13G19G23G27G10G28
    529532.88449    410209.59747  23114633.8594   23114630.8444
      -852.1874
  -3055693.17949  -2370382.31248  21864619.1094   21864615.6994
      1654.5004
   1530094.55649   1184662.11848  20509885.7424   20509881.3594
     -1361.4374
  -2934961.77949  -2275892.04347  23076291.5704   23076287.2304
      1410.7194
   5185440.40349   4015418.25047  22759168.4924   22759163.1804
     -3388.0944
  -1034645.19449   -808014.55148  21098582.7584   21098578.8914
       460.1884
   -801051.55749   -623511.91047  24051389.0474   24051386.8754
      1643.0634
  -1367883.25249  -1062098.95846  24056894.1724   24056892.2504
      2969.5944
 04  9 14 21 22 30.0000000  0  8G 3G 8G13G19G23G27G10G28
    542382.04949    420221.94847  23117079.2424   23117076.7544
      -861.6094
  -3080492.36749  -2389706.34648  21859899.7274   21859896.5274
      1651.6414
   1550571.18249   1200617.91548  20513782.2974   20513777.8554
     -1369.2664
  -2956075.51449  -2292344.27947  23072273.4304   23072269.7664
      1404.0164
   5236291.55549   4055042.49047  22768845.4614   22768840.1334
     -3392.4844
  -1041532.25349   -813381.09548  21097272.2664   21097268.3984
       457.7034
   -825644.50249   -642675.23847  24046709.2974   24046707.8874
      1635.3284
  -1412409.94549  -1096795.06846  24048420.5554   24048418.9224
      2966.8594
 04  9 14 21 22 45.0000000  0  8G 3G 8G13G19G23G27G10G28
    555375.26649    430346.51247  23119551.3914   23119549.2194
      -871.1564
  -3105244.95649  -2408994.08248  21855189.4064   21855186.3054
      1648.3914
   1571168.24149   1216667.56048  20517701.8524   20517697.5044
     -1377.4224
  -2977084.99149  -2308715.30447  23068276.2504   23068271.3874
      1396.9694
   5287212.99849   4094721.50147  22778535.0164   22778530.4384
     -3397.2194
  -1048377.55949   -818715.10848  21095969.5234   21095965.9534
       454.7974
   -850114.67849   -661742.86747  24042052.7194   24042051.1054
      1627.2974
  -1456892.26649  -1131456.54746  24039956.7274   24039954.3364
      2963.7974
 04  9 14 21 23  0.0000000  0  8G 3G 8G13G19G23G27G10G28
    568512.10249    440583.00047  23122051.0864   23122048.5984
      -880.8594
  -3129951.37749  -2428245.82248  21850488.1024   21850484.6604
      1645.3444
   1591885.42649   1232810.81248  20521644.1564   20521639.6254
     -1385.3594
  -2997990.39749  -2325005.20747  23064297.4224   23064293.4344
      1390.0004
   5338204.08849   4134454.75847  22788238.3914   22788234.0434
     -3401.9224
  -1055181.54149   -824016.90148  21094674.8054   21094671.3094
       451.9844
   -874462.25949   -680715.00446  24037418.4614   24037417.3404
      1618.8444
  -1501330.62049  -1166083.77947  24031499.9534   24031497.7774
      2960.7974
 04  9 14 21 23 15.0000000  0  8G 3G 8G13G19G23G27G10G28
    581797.32749    450935.12047  23124578.7114   23124577.2624
      -890.2664
  -3154606.80249  -2447457.82848  21845796.4614   21845793.3914
      1642.4064
   1612727.44349   1249051.33448  20525610.3284   20525605.6454
     -1393.2194
  -3018786.59849  -2341210.02547  23060340.0314   23060336.0944
      1383.1254
   5389269.36049   4174245.84847  22797957.0004   22797950.9844
     -3406.3914
  -1061939.45549   -829282.80148  21093388.7194   21093385.1564
       449.3284
   -898682.29549   -699587.75546  24032810.0004   24032808.1564
      1610.8444
  -1545719.87249  -1200672.76447  24023052.1724   24023050.1804
      2958.0164
 04  9 14 21 23 30.0000000  0  8G 3G 8G13G19G23G27G10G28
    595225.96449    461398.97947  23127135.1094   23127132.7464
      -900.0314
  -3179216.27749  -2466634.04448  21841113.3834   21841110.0704
      1639.2034
   1633689.35249   1265385.26548  20529599.2114   20529594.7664
     -1401.3914
  -3039478.32549  -2357333.42647  23056402.7504   23056398.5864
      1376.0164
   5440403.70749   4214090.75347  22807686.8204   22807681.1724
     -3411.1414
  -1068656.23649   -834516.66348  21092110.6414   21092107.0394
       446.5634
   -922779.47449   -718364.77346  24028224.3284   24028222.8674
      1602.5784
  -1590064.87449  -1235227.25747  24014613.8134   24014612.6024
      2955.0004
 04  9 14 21 23 45.0000000  0  8G 3G 8G13G19G23G27G10G28
    608797.49349    471974.20847  23129717.8054   23129714.6884
      -909.5004
  -3203780.20149  -2485774.75148  21836438.5554   21836435.1134
      1636.1254
   1654770.60849   1281812.21048  20533610.9224   20533606.5634
     -1409.3594
  -3060065.83049  -2373375.60447  23052485.1724   23052480.4304
      1369.1094
   5491606.55649   4253989.04047  22817430.3524   22817425.3484
     -3415.7664
  -1075332.37349   -839718.84348  21090840.0634   21090836.5514
       443.7974
   -946754.03749   -737046.24546  24023662.0864   24023660.1214
      1594.2664
  -1634365.87349  -1269747.45546  24006183.5554   24006182.7814
      2952.0634
 04  9 14 21 24  0.0000000  0  8G 3G 8G13G19G23G27G10G28
    622510.10149    482659.33347  23132326.6724   23132324.2234
      -919.1414
  -3228300.32549  -2504881.33648  21831773.0394   21831769.3524
      1632.9384
   1675969.37149   1298330.71548  20537645.1484   20537640.6454
     -1417.2974
  -3080550.53649  -2389337.71047  23048587.4304   23048582.9574
      1361.9694
   5542875.85549   4293939.10047  22827187.4694   22827181.8914
     -3420.3754
  -1081969.67249   -844890.76448  21089576.9694   21089573.9574
       440.9224
   -970607.62449   -755633.44246  24019123.8054   24019120.9384
      1585.9224
  -1678624.48149  -1304234.66747  23997762.0554   23997760.0664
      2949.0004
 04  9 14 21 24 15.0000000  0  8G 3G 8G13G19G23G27G10G28
    636363.45749    493454.17247  23134962.8594   23134960.1294
      -928.2504
  -3252776.85449  -2523953.95148  21827114.8674   21827111.7624
      1630.4064
   1697285.62949   1314940.77748  20541701.6174   20541696.7154
     -1424.9374
  -3100932.37849  -2405219.64247  23044708.6254   23044704.4884
      1355.4224
   5594211.16549   4333940.60447  22836955.6254   22836950.8874
     -3424.5784
  -1088568.24749   -850032.51448  21088321.3524   21088318.0984
       438.6884
   -994340.18649   -774126.39046  24014607.4774   24014605.1214
      1578.2344
  -1722840.80149  -1338688.89247  23989347.3674   23989345.7504
      2946.3284
 04  9 14 21 24 30.0000000  0  8G 3G 8G13G19G23G27G10G28
    650358.04649    504359.04347  23137626.0394   23137623.7384
      -937.9224
  -3277209.18649  -2542992.12948  21822465.8834   21822463.2424
      1627.0944
   1718719.78949   1331642.71048  20545779.8364   20545776.0204
     -1433.0784
  -3121210.55349  -2421020.79947  23040849.3984   23040845.2274
      1348.1254
   5645612.85449   4373993.81447  22846737.2034   22846732.2344
     -3429.3444
  -1095127.68149   -855143.76348  21087073.3444   21087069.7074
       435.7194
  -1017951.01049   -792524.39446  24010114.6884   24010112.5514
      1569.8134
  -1767014.04649  -1373109.55547  23980941.3134   23980940.1724
      2943.2034
 04  9 14 21 24 45.0000000  0  8G 3G 8G13G19G23G27G10G28
    664497.48749    515376.77547  23140316.1254   23140314.4844
      -947.4374
  -3301593.69949  -2561993.04348  21817825.5394   21817822.1254
      1624.0314
   1740275.46049   1348439.31648  20549881.9384   20549877.2854
     -1441.1254
  -3141381.21949  -2436738.19247  23037011.1954   23037007.0594
      1341.1414
   5697084.24849   4414101.36047  22856531.7814   22856526.2034
     -3433.8124
  -1101644.38049   -860221.71548  21085833.4144   21085829.2034
       433.0004
  -1041436.19649   -810824.50047  24005645.4304   24005643.2154
      1561.3444
  -1811140.42149  -1407493.70247  23972545.0314   23972542.6724
      2940.1884
 04  9 14 21 25  0.0000000  0  8G 3G 8G13G19G23G27G10G28
    678778.45049    526504.77547  23143034.2424   23143033.3554
      -956.4534
  -3325933.72249  -2580959.28748  21813194.0234   21813191.0394
      1621.4224
   1761949.30549   1365328.01648  20554006.0164   20554002.1524
     -1448.6564
  -3161447.26949  -2452374.05547  23033192.3914   23033188.2974
      1334.5474
   5748622.01749   4454260.60947  22866338.9614   22866333.9344
     -3437.7814
  -1108121.54249   -865268.85748  21084600.9694   21084596.9224
       430.7504
  -1064798.89149   -829029.21947  24001199.5634   24001197.4534
      1553.8134
  -1855223.02749  -1441843.78447  23964156.1334   23964153.8954
      2937.7034
 04  9 14 21 25 15.0000000  0  8G 3G 8G13G19G23G27G10G28
    693199.02549    537741.60547  23145778.1254   23145776.5204
      -966.0314
  -3350231.06349  -2599892.27748  21808570.3134   21808567.4534
      1618.4384
   1783739.45549   1382307.33948  20558152.7894   20558148.2274
     -1456.5944
  -3181410.32649  -2467929.66147  23029393.4774   23029389.7424
      1327.3754
   5800224.04549   4494469.96047  22876158.6254   22876154.1844
     -3442.3124
  -1114561.09149   -870286.68748  21083375.1334   21083371.6724
       428.0634
  -1088040.84649   -847139.82146  23996776.9924   23996774.1414
      1545.4064
  -1899263.60049  -1476161.07547  23955775.7734   23955772.9144
      2934.6094
 04  9 14 21 25 30.0000000  0  8G 3G 8G13G19G23G27G10G28
    707763.53249    549090.54247  23148550.9224   23148547.9964
      -976.1254
  -3374481.49249  -2618788.69848  21803955.6334   21803952.6524
      1614.8134
   1805650.23249   1399380.66448  20562322.4774   20562317.9144
     -1465.0624
  -3201265.73749  -2483401.40247  23025615.5084   23025611.4414
      1319.7504
   5851894.41149   4534732.53347  22885991.3754   22885986.6414
     -3447.4224
  -1120958.65049   -875271.79748  21082157.8834   21082154.3164
       424.8134
  -1111157.39949   -865152.73947  23992378.4534   23992376.2114
      1536.5634
  -1943257.54749  -1510442.00347  23947404.1334   23947401.5554
      2931.0004
 04  9 14 21 25 45.0000000  0  8G 3G 8G13G19G23G27G10G28
    722470.88749    560550.82147  23151348.6094   23151346.5704
      -985.2194
  -3398685.70249  -2637649.12448  21799349.7664   21799346.4884
      1612.1414
   1827680.68949   1416547.23548  20566514.4144   20566510.0984
     -1472.6254
  -3221014.21149  -2498789.81147  23021857.8594   23021852.7114
      1313.0164
   5903632.02949   4575047.51147  22895836.1484   22895831.9574
     -3451.3594
  -1127315.17249   -880224.93348  21080948.0084   21080944.2734
       422.4534
  -1134149.26049   -883068.44747  23988002.4694   23987999.9924
      1528.6414
  -1987205.66649  -1544687.29147  23939040.7194   23939037.5864
      2928.3594
 04  9 14 21 26  0.0000000  0  8G 3G 8G13G19G23G27G10G28
    737319.83049    572121.43047  23154174.0004   23154172.0044
      -995.0164
  -3422845.15349  -2656474.65948  21794752.4064   21794749.1604
      1608.8284
   1849829.53749   1433806.06548  20570729.6724   20570725.1254
     -1480.9064
  -3240656.86549  -2514095.76147  23018119.8364   23018115.0354
      1305.6094
   5955435.49649   4615413.80547  22905694.3914   22905689.9384
     -3456.1564
  -1133631.91449   -885147.07048  21079746.2814   21079742.3204
       419.4844
  -1157017.56649   -900887.88647  23983650.7274   23983649.0394
      1520.1564
  -2031109.02449  -1578897.63747  23930686.1644   23930683.5124
      2925.0784
 04  9 14 21 26 15.0000000  0  8G 3G 8G13G19G23G27G10G28
    752311.29749    583803.08147  23157027.1644   23157024.6294
     -1004.3444
  -3446958.86549  -2675264.55148  21790163.6954   21790160.6254
      1605.9534
   1872097.77849   1451157.93448  20574966.9844   20574962.7894
     -1488.7344
  -3260192.28249  -2529318.12947  23014402.0394   23014397.1054
      1298.6884
   6007305.53549   4655831.98047  22915565.0314   22915560.4774
     -3460.3914
  -1139907.93049   -890037.47348  21078551.8834   21078548.3794
       416.9384
  -1179761.21849   -918610.18747  23979322.6024   23979321.0704
      1512.0474
  -2074966.44849  -1613072.22647  23922340.3444   23922338.0124
      2922.1724
 04  9 14 21 26 30.0000000  0  8G 3G 8G13G19G23G27G10G28
    767443.92649    595594.74147  23159906.2114   23159905.0554
     -1013.8914
  -3471027.72949  -2694019.49648  21785583.5234   21785580.5824
      1602.8134
   1894484.07649   1468601.79948  20579226.9064   20579222.7504
     -1496.7034
  -3279621.40249  -2544457.68547  23010704.7114   23010700.3674
      1291.4064
   6059240.71449   4696300.92047  22925447.9064   22925442.8054
     -3464.9064
  -1146144.45849   -894897.10148  21077365.1804   21077361.5044
       414.1564
  -1202381.05849   -936236.07647  23975018.6414   23975016.3554
      1503.8134
  -2118779.08749  -1647211.88947  23914002.5164   23913999.8914
      2919.0164
 04  9 14 21 26 45.0000000  0  8G 3G 8G13G19G23G27G10G28
    782718.73849    607497.17247  23162814.1254   23162811.3834
     -1022.7034
  -3495051.00049  -2712738.92448  21781011.9924   21781008.5044
      1600.3594
   1916989.39649   1486138.38648  20583509.3984   20583504.8794
     -1504.0004
  -3298942.95849  -2559513.42947  23007028.3914   23007023.4184
      1284.8444
   6111241.85349   4736821.22747  22935343.7194   22935338.9144
     -3468.5944
  -1152340.41649   -899725.12448  21076186.3284   21076182.3594
       412.0474
  -1224875.82249   -953764.42547  23970738.2424   23970736.2034
      1495.8134
  -2162545.58949  -1681315.63647  23905674.1884   23905671.5164
      2916.5634
 04  9 14 21 27  0.0000000  0  8G 3G 8G13G19G23G27G10G28
    798133.67149    619508.81047  23165746.9774   23165744.6564
     -1032.5784
  -3519030.67249  -2731424.37248  21776448.6024   21776445.8164
      1596.9534
   1939611.81349   1503766.23748  20587814.6954   20587809.9264
     -1512.3284
  -3318158.64749  -2574486.67747  23003371.5784   23003366.7854
      1277.3134
   6163306.80249   4777391.27347  22945251.0944   22945246.4924
     -3473.3754
  -1158497.90949   -904523.16948  21075014.3834   21075010.5514
       408.8914
  -1247247.48449   -971196.88247  23966480.4614   23966478.7814
      1487.0164
  -2206267.88949  -1715384.93147  23897354.2894   23897351.7854
      2913.0164
 04  9 14 21 27 15.0000000  0  8G 3G 8G13G19G23G27G10G28
    813691.82949    631632.03047  23168708.5634   23168705.5084
     -1041.9694
  -3542963.53149  -2750073.34848  21771894.3984   21771891.3364
      1594.0164
   1962354.50449   1521487.80448  20592142.1094   20592137.9454
     -1520.1564
  -3337265.04349  -2589374.76847  22999735.8674   22999731.3094
      1270.1884
   6215438.45549   4818013.30947  22955171.8134   22955166.0864
     -3477.5784
  -1164613.62849   -909288.66848  21073850.5554   21073846.7274
       406.3284
  -1269492.70749   -988530.81747  23962247.8284   23962245.3094
      1478.6724
  -2249942.67149  -1749417.15747  23889043.0784   23889041.0124
      2910.1724
 04  9 14 21 27 30.0000000  0  8G 3G 8G13G19G23G27G10G28
    829393.78149    643867.31647  23171695.1724   23171693.1884
     -1051.3124
  -3566848.73549  -2768685.17248  21767348.9304   21767345.9734
      1591.0634
   1985218.09349   1539303.57248  20596492.6414   20596488.8444
     -1528.0314
  -3356261.10049  -2604176.86047  22996120.8674   22996115.8524
      1263.0004
   6267637.38349   4858687.75847  22965103.5474   22965099.3984
     -3481.8594
  -1170687.00549   -914021.15848  21072694.9844   21072691.5744
       403.8444
  -1291610.49249  -1005765.45547  23958038.3054   23958036.4414
      1470.6254
  -2293568.82249  -1783411.52847  23880741.3524   23880738.8244
      2907.0634
 04  9 14 21 27 45.0000000  0  8G 3G 8G13G19G23G27G10G28
    845241.51849    656216.19147  23174711.0554   23174709.0314
     -1061.2664
  -3590684.36549  -2787258.38748  21762813.3594   21762809.8324
      1587.5314
   2008204.59049   1557215.11348  20600867.2664   20600863.0434
     -1536.3754
  -3375144.63949  -2618891.29647  22992527.6254   22992523.0904
      1255.2034
   6319905.25749   4899415.91947  22975050.6724   22975046.6134
     -3486.6724
  -1176716.00249   -918719.08348  21071547.8834   21071543.9774
       400.5784
  -1313598.78149  -1022899.19547  23953853.9774   23953852.1684
      1461.5784
  -2337144.42849  -1817366.53647  23872448.9454   23872446.3554
      2903.4224
 04  9 14 21 28  0.0000000  0  8G 3G 8G13G19G23G27G10G28
    861233.99749    668677.87047  23177754.9384   23177752.3954
     -1071.2504
  -3614471.42149  -2805793.75148  21758286.7504   21758283.3634
      1584.0314
   2031312.96349   1575221.62648  20605264.6884   20605260.1374
     -1544.8754
  -3393916.42349  -2633518.64647  22988955.5234   22988951.0634
      1247.5634
   6372241.00749   4940196.98547  22985010.6484   22985005.0704
     -3491.5004
  -1182701.56149   -923383.14348  21070408.6724   21070405.0004
       397.3914
  -1335458.19149  -1039932.50747  23949695.6174   23949693.0204
      1452.7974
  -2380670.13749  -1851282.61647  23864166.2274   23864163.9224
      2899.9534
 04  9 14 21 28 15.0000000  0  8G 3G 8G13G19G23G27G10G28
    877368.36649    681250.08947  23180824.3134   23180822.8094
     -1080.2974
  -3638212.54949  -2824293.33148  21753769.3674   21753765.8324
      1581.2814
   2054540.30549   1593320.84548  20609684.5554   20609680.0164
     -1552.3914
  -3412579.02249  -2648060.91947  22985403.4224   22985399.1604
      1240.5164
   6424641.65849   4981028.61847  22994981.6954   22994977.1454
     -3495.4374
  -1188646.48249   -928015.55548  21069277.5474   21069273.5514
       395.0944
  -1357191.45149  -1056867.51047  23945558.8524   23945556.3404
      1444.8754
  -2424148.65449  -1885161.93147  23855893.0704   23855889.7544
      2897.1724
 04  9 14 21 28 30.0000000  0  8G 3G 8G13G19G23G27G10G28
    893648.25349    693935.70947  23183922.3524   23183920.7774
     -1090.6254
  -3661904.36249  -2842754.47348  21749260.5634   21749257.1214
      1577.3754
   2077890.18349   1611515.53348  20614128.1254   20614123.6604
     -1561.1414
  -3431128.46949  -2662515.01047  22981873.7584   22981869.2934
      1232.4384
   6477110.57649   5021913.45047  23004966.5474   23004961.7154
     -3500.6564
  -1194547.16849   -932613.49148  21068154.6564   21068150.8594
       391.5004
  -1378794.67049  -1073701.18147  23941448.0164   23941445.9264
      1435.4694
  -2467576.13549  -1919001.50047  23847628.8754   23847625.7934
      2893.0004
 04  9 14 21 28 45.0000000  0  8G 3G 8G13G19G23G27G10G28
    910071.85349    706733.30947  23187047.8914   23187046.0984
     -1099.6254
  -3685548.29449  -2861178.31548  21744761.3754   21744758.3954
      1574.7814
   2101361.01549   1629804.47448  20618594.3134   20618590.3364
     -1568.5944
  -3449566.08249  -2676881.97547  22978365.3594   22978360.4654
      1225.4694
   6529645.88749   5062849.99447  23014964.0634   23014958.3134
     -3504.4374
  -1200405.32649   -937178.29648  21067039.9924   21067036.5044
       389.3284
  -1400269.35049  -1090434.68447  23937362.3134   23937359.0004
      1427.4534
  -2510954.12849  -1952802.49447  23839373.4144   23839371.6334
      2890.3594
 04  9 14 21 29  0.0000000  0  8G 3G 8G13G19G23G27G10G28
    926636.59449    719640.89447  23190200.2664   23190197.6174
     -1108.9374
  -3709146.79949  -2879566.75248  21740270.9454   21740267.7114
      1571.6884
   2124950.27349   1648185.71548  20623083.2194   20623079.0314
     -1576.6094
  -3467894.08049  -2691163.50047  22974877.9064   22974872.7664
      1218.1724
   6582244.95049   5103836.23547  23024973.7274   23024968.8164
     -3508.6874
  -1206223.22149   -941711.72048  21065932.6954   21065928.9804
       386.5474
  -1421617.72849  -1107069.77947  23933299.2814   23933297.1484
      1419.0474
  -2554284.80649  -1986566.62047  23831129.0004   23831126.0864
      2887.0314
 04  9 14 21 29 15.0000000  0  8G 3G 8G13G19G23G27G10G28
    943343.53149    732659.27347  23193379.5944   23193377.3954
     -1118.1254
  -3732698.75049  -2897918.90648  21735789.1094   21735785.7034
      1568.9534
   2148658.96749   1666660.00348  20627594.3444   20627590.2624
     -1584.1874
  -3486111.08949  -2705358.55447  22971411.0084   22971406.4844
      1211.0944
   6634908.76449   5144872.91547  23034994.7194   23034989.6724
     -3512.7194
  -1211999.89849   -946213.02748  21064833.6254   21064829.5864
       384.1094
  -1442838.59349  -1123605.52447  23929261.0084   23929259.1414
      1410.7664
  -2597566.98549  -2020292.94847  23822892.5394   23822889.5514
      2884.1724
 04  9 14 21 29 30.0000000  0  8G 3G 8G13G19G23G27G10G28
    960188.87749    745785.49947  23196585.0944   23196582.8324
     -1127.9694
  -3756207.78949  -2916237.63448  21731315.4694   21731312.4304
      1565.5634
   2172483.41049   1685224.48948  20632128.7424   20632124.0864
     -1592.4534
  -3504220.54449  -2719469.83047  22967965.4224   22967960.8364
      1203.3594
   6687633.35549   5185956.97747  23045027.2504   23045023.3524
     -3517.2344
  -1217739.06849   -950685.11648  21063741.3284   21063737.4104
       381.0784
  -1463935.50449  -1140044.65147  23925246.4384   23925244.2854
      1402.0164
  -2640804.16149  -2053984.22847  23814663.8134   23814661.8754
      2880.6254
 04  9 14 21 29 45.0000000  0  8G 3G 8G13G19G23G27G10G28
    977174.41549    759020.97947  23199817.6644   23199815.2664
     -1137.5004
  -3779672.20049  -2934521.59648  21726850.4614   21726846.9454
      1562.2814
   2196425.40049   1703880.57148  20636684.4384   20636680.4344
     -1600.5474
  -3522220.43149  -2733495.68647  22964539.5554   22964535.5554
      1195.8754
   6740420.30949   5227089.61247  23055072.5864   23055068.0784
     -3521.6414
  -1223438.84149   -955126.49748  21062656.4614   21062652.5664
       378.1724
  -1484906.22849  -1156385.47547  23921255.0554   23921254.0634
      1393.4064
  -2683994.38449  -2087638.91147  23806445.3674   23806443.4614
      2877.3594
 04  9 14 21 30  0.0000000  0  8G 3G 8G13G19G23G27G10G28
    994305.23249    772369.66847  23203077.4144   23203075.2304
     -1146.5944
  -3803086.77949  -2952766.69748  21722394.7194   21722391.4184
      1559.6094
   2220490.01449   1722632.21148  20641263.9924   20641259.3874
     -1608.0944
  -3540105.28249  -2747431.92047  22961136.1484   22961131.8364
      1188.7504
   6793274.45649   5268274.62647  23065130.6094   23065125.9104
     -3525.4534
  -1229094.17949   -959533.24648  21061580.1884   21061576.6174
       375.8134
  -1505745.64149  -1172623.97147  23917290.1094   23917287.9144
      1385.2034
  -2727132.34649  -2121252.85547  23798236.8834   23798234.6914
      2874.4694
 04  9 14 21 30 15.0000000  0  8G 3G 8G13G19G23G27G10G28
   1011580.09549    785830.58347  23206363.9694   23206362.4694
     -1156.1564
  -3826452.83749  -2970974.01248  21717948.1414   21717944.7854
      1556.5634
   2244676.25549   1741478.61648  20645866.5864   20645862.4264
     -1616.0784
  -3557875.92749  -2761279.17647  22957754.8204   22957749.9804
      1181.3284
   6846194.66049   5309511.08847  23075200.3754   23075195.5594
     -3529.7974
  -1234706.01249   -963906.10448  21060512.0704   21060508.3364
       373.1414
  -1526454.63549  -1188760.83247  23913349.3364   23913347.2384
      1376.7974
  -2770218.91949  -2154826.75947  23790037.8284   23790034.9774
      2871.0784
 04  9 14 21 30 30.0000000  0  8G 3G 8G13G19G23G27G10G28
   1028991.38649    799397.82447  23209677.4144   23209675.1454
     -1165.5784
  -3849777.40649  -2989148.99248  21713509.5234   21713505.9144
      1553.2974
   2268976.44849   1760413.81648  20650490.8364   20650485.7704
     -1624.0784
  -3575539.60149  -2775043.05547  22954393.9614   22954388.5234
      1173.7194
   6899173.18349   5350793.00247  23085282.4694   23085278.0704
     -3534.1254
  -1240281.88849   -968250.94048  21059450.9844   21059448.3324
       370.2194
  -1547040.42849  -1204801.71247  23909432.0944   23909429.5784
      1367.9844
  -2813261.32849  -2188366.26947  23781846.9614   23781845.1764
      2867.8284
 04  9 14 21 30 45.0000000  0  8G 3G 8G13G19G23G27G10G28
   1046541.89849    813073.55947  23213017.9064   23213015.7344
     -1174.8914
  -3873058.12749  -3007289.81048  21709079.2114   21709076.0314
      1550.3914
   2293393.41149   1779440.01348  20655137.1024   20655132.7894
     -1631.9374
  -3593093.17549  -2788721.15147  22951053.2274   22951047.8874
      1166.3444
   6952212.60949   5392122.38947  23095375.0634   23095370.5274
     -3538.2194
  -1245819.03149   -972565.60648  21058397.8524   21058394.0554
       367.6414
  -1567500.09349  -1220744.30547  23905538.6804   23905536.2234
      1359.7344
  -2856256.65249  -2221869.08347  23773665.0784   23773662.8914
      2864.5944
 04  9 14 21 31  0.0000000  0  8G 3G 8G13G19G23G27G10G28
   1064230.72749    826857.04847  23216383.9454   23216381.0634
     -1183.7664
  -3896295.57649  -3025396.90448  21704657.4534   21704653.7304
      1547.8754
   2317926.30349   1798556.55448  20659805.3364   20659800.9734
     -1639.2034
  -3610537.34849  -2802313.99347  22947733.5004   22947728.8984
      1159.4694
   7005311.93449   5433498.42147  23105479.7974   23105476.0274
     -3541.7814
  -1251318.24449   -976850.70848  21057351.2504   21057347.6094
       365.4694
  -1587834.24149  -1236589.09247  23901670.1724   23901667.2974
      1351.5784
  -2899205.53749  -2255335.71147  23765492.1414   23765489.2384
      2861.8914
 04  9 14 21 31 15.0000000  0  8G 3G 8G13G19G23G27G10G28
   1082058.67349    840748.94147  23219775.7974   23219774.4964
     -1193.2194
  -3919488.69549  -3043469.45848  21700244.0784   21700240.8874
      1544.7344
   2342575.84049   1817763.96448  20664495.9924   20664491.8984
     -1647.2504
  -3627870.94549  -2815820.69547  22944434.8284   22944430.8954
      1151.8284
   7058471.76349   5474921.61447  23115595.9774   23115591.4614
     -3546.0944
  -1256778.62549   -981105.55248  21056312.5554   21056308.7074
       362.6254
  -1608041.92849  -1252335.31647  23897823.9844   23897821.6294
      1342.8914
  -2942107.03949  -2288765.41747  23757328.0164   23757325.1294
      2858.4534
 04  9 14 21 31 30.0000000  0  8G 3G 8G13G19G23G27G10G28
   1100027.86449    854750.89847  23223195.1414   23223194.0274
     -1202.8124
  -3942635.24249  -3061505.71348  21695839.0944   21695835.7894
      1541.3914
   2367344.36049   1837064.09648  20669209.3284   20669205.6414
     -1655.3914
  -3645091.36749  -2829239.20047  22941157.9774   22941153.7584
      1144.0314
   7111694.19349   5516393.60147  23125723.0234   23125718.9344
     -3550.4064
  -1262197.88849   -985328.34948  21055280.7974   21055277.5664
       359.7034
  -1628120.66149  -1267981.07047  23894002.9534   23894000.7624
      1334.2344
  -2984958.64249  -2322156.24047  23749174.1954   23749171.6524
      2854.9224
 04  9 14 21 31 45.0000000  0  8G 3G 8G13G19G23G27G10G28
   1118139.98349    868864.20047  23226642.0314   23226639.8324
     -1211.8914
  -3965733.46649  -3079504.34148  21691443.8364   21691440.6994
      1538.5164
   2392233.59249   1856458.29048  20673945.5394   20673941.7894
     -1663.0004
  -3662196.69249  -2842568.00647  22937903.5944   22937899.1214
      1136.9064
   7164980.82649   5557915.60547  23135864.1334   23135859.3164
     -3554.2664
  -1267574.39249   -989517.83648  21054257.8754   21054254.3594
       357.3134
  -1648068.41649  -1283524.79447  23890207.7424   23890204.8204
      1325.8134
  -3027758.30549  -2355506.59347  23741028.8754   23741026.6994
      2851.8444
 04  9 14 21 32  0.0000000  0  8G 3G 8G13G19G23G27G10G28
   1136393.39049    883087.65047  23230116.1414   23230113.6724
     -1221.6874
  -3988785.02749  -3097466.57548  21687057.3204   21687054.1604
      1535.1724
   2417241.88649   1875945.25248  20678704.3914   20678700.3754
     -1671.3284
  -3679188.18749  -2855808.14147  22934669.6254   22934664.9654
      1128.8754
   7218329.90749   5599486.27747  23146015.8674   23146011.7704
     -3558.7974
  -1272909.47649   -993675.04648  21053242.3674   21053239.4344
       354.2034
  -1667886.59849  -1298967.52447  23886436.1564   23886434.1484
      1316.8594
  -3070507.44349  -2388817.56347  23732894.6484   23732891.7704
      2848.1724
 04  9 14 21 32 15.0000000  0  8G 3G 8G13G19G23G27G10G28
   1154791.67849    897423.97447  23233616.4844   23233614.5514
     -1231.0314
  -4011786.15049  -3115389.51948  21682680.4224   21682677.4924
      1531.9384
   2442372.76149   1895527.74748  20683486.6644   20683482.9144
     -1679.2664
  -3696061.90849  -2868956.48847  22931458.9774   22931454.1094
      1121.2504
   7271744.81249   5641108.21847  23156180.6094   23156177.0314
     -3562.9694
  -1278199.60749   -997797.22348  21052235.9304   21052232.3484
       351.4534
  -1687571.37349  -1314306.29347  23882690.0164   23882688.2154
      1308.1564
  -3113202.35449  -2422086.29547  23724770.2664   23724767.7974
      2844.7664
 04  9 14 21 32 30.0000000  0  8G 3G 8G13G19G23G27G10G28
   1173329.13849    911868.74147  23237144.0704   23237142.0784
     -1240.5004
  -4034742.59649  -3133277.66148  21678311.9774   21678308.5554
      1528.8914
   2467620.70249   1915201.44648  20688291.3834   20688287.1604
     -1687.1094
  -3712823.17249  -2882017.19847  22928269.4534   22928264.8594
      1113.6724
   7325219.70349   5682776.90947  23166356.2734   23166352.5124
     -3567.0164
  -1283450.41249  -1001888.75648  21051236.8054   21051233.1724
       348.7344
  -1707128.12949  -1329545.33947  23878968.5314   23878965.1684
      1299.5314
  -3155848.48949  -2455317.00847  23716654.2814   23716651.9384
      2841.4384
 04  9 14 21 32 45.0000000  0  8G 3G 8G13G19G23G27G10G28
   1192008.89149    926424.41847  23240698.3444   23240696.7234
     -1250.1874
  -4057650.85849  -3151128.23648  21673952.8834   21673949.1994
      1525.4844
   2492988.99649   1934968.93948  20693118.5944   20693114.8324
     -1695.3444
  -3729468.47749  -2894987.56047  22925102.0634   22925097.6564
      1105.7034
   7378757.64849   5724494.75047  23176544.3594   23176540.3134
     -3571.4534
  -1288658.52449  -1005947.02048  21050245.4774   21050241.9884
       345.6564
  -1726553.67049  -1344682.03047  23875271.7274   23875269.1954
      1290.4534
  -3198442.42049  -2488507.06747  23708549.3594   23708546.2464
      2837.6564
 04  9 14 21 33  0.0000000  0  8G 3G 8G13G19G23G27G10G28
   1210827.81149    941088.48147  23244281.0394   23244278.2894
     -1259.0164
  -4080514.13849  -3168943.77048  21669602.0704   21669598.5124
      1522.8914
   2518474.33749   1954827.63248  20697968.4224   20697964.2974
     -1702.7034
  -3746000.75949  -2907869.84947  22921955.7814   22921951.2544
      1098.5004
   7432355.37649   5766259.14547  23186743.6724   23186739.5554
     -3574.9534
  -1293827.14249  -1009974.52248  21049262.5164   21049258.3834
       343.4384
  -1745850.60849  -1359718.66847  23871600.1334   23871597.2664
      1282.3594
  -3240986.99449  -2521658.62647  23700453.1724   23700450.9924
      2834.7814
 04  9 14 21 33 15.0000000  0  8G 3G 8G13G19G23G27G10G28
   1229781.61349    955857.65947  23247886.5634   23247884.9304
     -1268.1874
  -4103336.44349  -3186727.39248  21665258.9924   21665255.5314
      1520.0164
   2544072.65549   1974774.34348  20702839.6724   20702835.9064
     -1710.3914
  -3762423.78549  -2920667.01047  22918830.8284   22918825.9804
      1091.1564
   7486008.65749   5808066.84647  23196954.0864   23196949.2704
     -3578.8284
  -1298960.33449  -1013974.42748  21048285.6484   21048281.5864
       340.9694
  -1765023.10549  -1374658.28647  23867951.1644   23867948.5004
      1273.8914
  -3283486.19549  -2554774.84647  23692365.2344   23692363.6174
      2831.6724
 04  9 14 21 33 30.0000000  0  8G 3G 8G13G19G23G27G10G28
   1248881.49549    970740.67747  23251521.4534   23251518.9024
     -1278.3594
  -4126106.55349  -3204470.31048  21660926.1414   21660922.8914
      1516.1254
   2569795.06649   1994817.78448  20707734.2274   20707730.1684
     -1719.0784
  -3778726.26849  -2933370.23047  22915728.7034   22915723.7234
      1082.6884
   7539728.28249   5849926.25047  23207176.4064   23207172.0514
     -3583.6254
  -1304046.79749  -1017937.89048  21047317.3134   21047313.6724
       337.4694
  -1784059.74249  -1389492.02947  23864328.4454   23864326.3874
      1264.5314
  -3325928.58449  -2587846.80547  23684289.1644   23684286.8364
      2827.4534
 04  9 14 21 33 45.0000000  0  8G 3G 8G13G19G23G27G10G28
   1268122.82749    985733.92947  23255183.2664   23255180.7034
     -1287.2974
  -4148829.07849  -3222176.16548  21656601.7194   21656598.7504
      1513.3914
   2595636.91749   2014954.27848  20712652.1884   20712648.5434
     -1726.6094
  -3794912.35449  -2945982.75247  22912647.8754   22912643.5594
      1075.2814
   7593509.58049   5891833.71447  23217410.6334   23217406.6644
     -3587.3124
  -1309091.18849  -1021868.58748  21046357.1954   21046353.6954
       335.0164
  -1802964.89349  -1404223.31647  23860730.7814   23860729.0634
      1256.0944
  -3368318.54549  -2620877.88647  23676222.4534   23676220.6414
      2824.4694
 04  9 14 21 34  0.0000000  0  8G 3G 8G13G19G23G27G10G28
   1287501.20649   1000833.96247  23258871.2194   23258868.6414
     -1296.8124
  -4171508.38949  -3239848.35948  21652286.2344   21652283.0004
      1510.1884
   2621593.90549   2035180.47948  20717591.5164   20717587.4104
     -1734.6094
  -3810986.08849  -2958507.73347  22909589.7504   22909584.4844
      1067.5004
   7647348.06349   5933785.72747  23227656.3594   23227651.1644
     -3591.4534
  -1314097.79649  -1025769.84348  21045404.5004   21045400.7464
       332.1884
  -1821742.64549  -1418855.32847  23857157.9384   23857155.6254
      1247.2194
  -3410660.19349  -2653871.36347  23668165.4224   23668163.2544
      2820.8134
 04  9 14 21 34 15.0000000  0  8G 3G 8G13G19G23G27G10G28
   1307019.30349   1016042.83747  23262585.0554   23262582.8754
     -1305.9844
  -4194141.48349  -3257484.52748  21647979.0864   21647975.7074
      1507.2814
   2647668.87549   2055498.61548  20722552.7584   20722549.2734
     -1742.3754
  -3826944.45149  -2970942.82547  22906553.1174   22906548.1294
      1060.0314
   7701246.44149   5975784.41347  23237912.9454   23237907.6994
     -3595.2504
  -1319063.56549  -1029639.27348  21044459.8594   21044456.3714
       329.5944
  -1840389.90949  -1433385.64647  23853609.3134   23853606.9574
      1238.6414
  -3452950.52649  -2686824.85047  23660118.9224   23660115.1374
      2817.6254
 04  9 14 21 34 30.0000000  0  8G 3G 8G13G19G23G27G10G28
   1326681.83749   1031364.29947  23266326.0704   23266324.3014
     -1316.0164
  -4216723.49949  -3275080.88548  21643682.0004   21643678.5824
      1503.3914
   2673866.53049   2075912.36948  20727538.5234   20727534.4224
     -1750.9844
  -3842782.30749  -2983284.00547  22903538.7424   22903534.6454
      1051.5164
   7755209.36749   6017833.39547  23248181.7894   23248177.4224
     -3600.0004
  -1323983.75449  -1033473.18848  21043523.2814   21043519.6254
       326.1094
  -1858901.77949  -1447810.47447  23850087.0084   23850084.4184
      1229.2194
  -3495184.50449  -2719734.40847  23652080.5634   23652078.6294
      2813.4384
 04  9 14 21 34 45.0000000  0  8G 3G 8G13G19G23G27G10G28
   1346483.19149   1046793.89647  23270095.1484   23270092.1764
     -1324.2504
  -4239259.89849  -3292641.71848  21639393.4064   21639390.0554
      1501.3754
   2700181.30549   2096417.36748  20732546.0704   20732542.4734
     -1757.7974
  -3858504.93449  -2995535.40347  22900547.2344   22900542.5394
      1044.7344
   7809230.92549   6059928.06947  23258461.1484   23258456.6644
     -3602.9064
  -1328864.02449  -1037276.00348  21042595.0314   21042590.9804
       324.4844
  -1877283.52049  -1462133.91147  23846588.6644   23846585.9654
      1221.5314
  -3537367.59149  -2752604.28947  23644053.5864   23644051.2384
      2810.9534
 04  9 14 21 35  0.0000000  0  8G 3G 8G13G19G23G27G10G28
   1366423.97949   1062332.15447  23273889.7504   23273887.2234
     -1334.0474
  -4261749.85049  -3310166.34948  21635113.9144   21635110.4414
      1497.7814
   2726613.99149   2117014.25148  20737576.2664   20737571.6294
     -1766.0474
  -3874111.34949  -3007696.24747  22897576.8834   22897572.8484
      1036.6094
   7863311.75949   6102068.92347  23268752.7504   23268748.6024
     -3607.4224
  -1333703.47949  -1041047.00348  21041673.8594   21041670.0314
       321.3134
  -1895534.34349  -1476355.32247  23843115.8594   23843113.2194
      1212.3444
  -3579498.88349  -2785433.85447  23636036.0864   23636034.2814
      2807.0634
 04  9 14 21 35 15.0000000  0  8G 3G 8G13G19G23G27G10G28
   1386504.94149   1077979.65547  23277710.0634   23277708.0474
     -1343.3284
  -4284192.63049  -3327654.22448  21630843.3914   21630839.4924
      1494.6094
   2753165.16649   2137703.46948  20742628.4304   20742624.4884
     -1774.0474
  -3889600.44449  -3019765.65347  22894629.6804   22894625.1054
      1028.7974
   7917452.37949   6144256.37047  23279054.3754   23279050.7894
     -3611.4064
  -1338501.33549  -1044785.58948  21040761.0634   21040757.2704
       318.5004
  -1913653.22049  -1490473.90447  23839668.3054   23839665.5514
      1203.5944
  -3621577.41749  -2818222.31047  23628028.5314   23628025.8204
      2803.5004
 04  9 14 21 35 30.0000000  0  8G 3G 8G13G19G23G27G10G28
   1406724.48149   1093735.11747  23281557.9614   23281555.7234
     -1352.5944
  -4306589.74449  -3345106.51448  21626581.0944   21626578.0474
      1491.6094
   2779833.31449   2158483.81348  20747703.5234   20747699.5084
     -1781.7814
  -3904973.52149  -3031744.67847  22891704.3134   22891699.9414
      1020.9224
   7971651.06449   6186489.04547  23289368.6884   23289364.0664
     -3615.1874
  -1343259.01349  -1048492.87148  21039855.4774   21039851.8914
       315.7814
  -1931641.47749  -1504490.75347  23836244.5864   23836242.5594
      1194.8444
  -3663604.37349  -2850970.53347  23620031.6484   23620028.8714
      2799.9844
 04  9 14 21 35 45.0000000  0  8G 3G 8G13G19G23G27G10G28
   1427088.05449   1109602.83747  23285433.1954   23285430.5394
     -1361.9224
  -4328935.66349  -3362518.90848  21622328.7894   21622325.7154
      1488.3914
   2806624.11249   2179359.75748  20752801.6094   20752797.4924
     -1789.7814
  -3920224.80849  -3043628.78547  22888801.9064   22888797.0944
      1013.0474
   8025913.22949   6228771.21047  23299694.6804   23299690.1334
     -3619.2034
  -1347971.03649  -1052164.57548  21038958.9454   21038955.6374
       312.9694
  -1949493.46849  -1518401.38347  23832847.9064   23832845.2034
      1185.9534
  -3705574.08149  -2883674.16147  23612045.4924   23612042.2894
      2796.4064
 04  9 14 21 36  0.0000000  0  8G 3G 8G13G19G23G27G10G28
   1447594.43849   1125581.82847  23289335.7344   23289333.5004
     -1371.6564
  -4351231.42449  -3379892.22148  21618085.9064   21618082.3874
      1484.8594
   2833536.30049   2200330.28248  20757922.9614   20757918.8634
     -1798.0004
  -3935355.15949  -3055418.65347  22885923.1884   22885918.1844
      1004.7974
   8080237.61049   6271101.85147  23310032.4064   23310027.6604
     -3623.6254
  -1352638.34149  -1055801.44048  21038070.7664   21038066.9964
       309.8594
  -1967210.08449  -1532206.52947  23829476.3674   23829473.7704
      1176.7664
  -3747487.39749  -2916333.85447  23604069.2424   23604065.9454
      2792.5314
 04  9 14 21 36 15.0000000  0  8G 3G 8G13G19G23G27G10G28
   1468232.39749   1141663.35547  23293262.7424   23293260.6884
     -1380.2974
  -4373487.90849  -3397234.92948  21613850.5314   21613847.1334
      1482.4064
   2860558.52349   2221386.54348  20763064.4384   20763061.1684
     -1805.2664
  -3950375.48249  -3067122.79247  22883064.2974   22883059.9774
       997.5784
   8134612.79049   6313472.08747  23320379.8524   23320374.8134
     -3626.6874
  -1357272.11549  -1059412.16948  21037188.9534   21037184.7974
       307.7194
  -1984802.34449  -1545914.74947  23826129.0314   23826125.9534
      1168.5474
  -3789355.46849  -2948958.29447  23596101.8834   23596099.0944
      2789.6414
 04  9 14 21 36 30.0000000  0  8G 3G 8G13G19G23G27G10G28
   1489009.72849   1157853.46947  23297216.5944   23297213.9924
     -1389.8754
  -4395697.29849  -3414540.94248  21609624.3674   21609620.8244
      1478.9534
   2887698.82749   2242534.81048  20768230.0004   20768225.7704
     -1813.4224
  -3965277.51549  -3078734.75947  22880228.4384   22880224.7194
       989.3444
   8189046.68549   6355888.03447  23330737.1884   23330733.4654
     -3631.0474
  -1361864.53149  -1062990.67748  21036315.4224   21036311.3014
       304.6254
  -2002262.07449  -1559519.75947  23822805.5864   23822803.4884
      1159.3754
  -3831170.12749  -2981541.12447  23588144.2344   23588141.4734
      2785.7344
 04  9 14 21 36 45.0000000  0  8G 3G 8G13G19G23G27G10G28
   1509926.50549   1174152.23847  23301196.1644   23301194.5554
     -1399.1564
  -4417859.66949  -3431810.31148  21605406.9224   21605403.2814
      1475.9534
   2914957.36749   2263775.21848  20773416.7664   20773412.7464
     -1821.1254
  -3980060.88349  -3090254.26447  22877414.8984   22877411.1174
       981.5314
   8243538.92549   6398349.46847  23341107.7894   23341102.7974
     -3634.8284
  -1366415.30649  -1066536.73448  21035449.2734   21035445.4534
       301.9844
  -2019589.05749  -1573021.28347  23819509.2274   23819506.4344
      1150.7974
  -3872930.99949  -3014082.04547  23580197.6024   23580195.0514
      2782.2974
 04  9 14 21 37  0.0000000  0  8G 3G 8G13G19G23G27G10G28
   1530983.24449   1190560.05247  23305204.2194   23305201.6484
     -1408.3124
  -4439973.90349  -3449042.18448  21601199.1564   21601195.5084
      1472.8754
   2942334.77649   2285108.24348  20778626.7274   20778622.9614
     -1828.9224
  -3994724.59749  -3101680.52647  22874624.9924   22874620.5554
       973.8284
   8298090.16649   6440856.87847  23351488.6024   23351483.6994
     -3638.4694
  -1370923.63849  -1070049.73148  21034591.1644   21034587.5204
       299.3754
  -2036782.37749  -1586418.68847  23816237.0704   23816234.2504
      1142.0784
  -3914637.16149  -3046580.29447  23572261.3754   23572258.4494
      2778.7194
 04  9 14 21 37 15.0000000  0  8G 3G 8G13G19G23G27G10G28
   1552179.80949   1207076.83647  23309236.7034   23309235.0824
     -1417.6094
  -4462040.00449  -3466236.54648  21596999.7194   21596996.6454
      1469.6094
   2969830.92849   2306533.80548  20783858.8674   20783854.8524
     -1836.9374
  -4009268.51849  -3113013.44947  22871857.4924   22871852.3364
       965.7194
   8352700.17849   6483410.07047  23361880.0864   23361876.5474
     -3642.5314
  -1375389.62149  -1073529.72248  21033741.5784   21033737.3404
       296.4534
  -2053841.96549  -1599711.87347  23812991.1484   23812988.1484
      1133.0004
  -3956288.55249  -3079035.89647  23564335.3284   23564332.5234
      2775.0784
 04  9 14 21 37 30.0000000  0  8G 3G 8G13G19G23G27G10G28
   1573516.73549   1223703.03847  23313297.5394   23313295.3874
     -1427.0164
  -4484057.62449  -3483393.12048  21592810.0474   21592806.7974
      1466.3444
   2997446.22549   2328052.20548  20789114.3284   20789109.7854
     -1844.8444
  -4023691.79349  -3124252.35147  22869112.5634   22869108.1604
       957.6724
   8407369.27849   6526009.30947  23372283.2664   23372279.6884
     -3646.4374
  -1379812.76349  -1076976.32748  21032899.5474   21032895.5394
       293.5944
  -2070767.06849  -1612900.23647  23809769.9454   23809767.6334
      1124.0004
  -3997884.41049  -3111448.23047  23556419.5554   23556417.1994
      2771.3594
 04  9 14 21 37 45.0000000  0  8G 3G 8G13G19G23G27G10G28
   1594993.81149   1240438.39247  23317384.5084   23317382.2894
     -1436.3754
  -4506026.81749  -3500511.97448  21588629.5554   21588626.2704
      1463.0784
   3025180.50049   2349663.31748  20794391.5394   20794387.5514
     -1852.8754
  -4037994.41649  -3135397.24847  22866390.2194   22866386.3444
       949.5474
   8462097.15349   6568654.36647  23382698.1414   23382693.6214
     -3650.4064
  -1384193.02049  -1080389.51448  21032066.1484   21032062.3554
       290.6564
  -2087557.61749  -1625983.81747  23806575.1724   23806572.8094
      1114.9384
  -4039424.74949  -3143817.30247  23548515.3204   23548512.3014
      2767.5784
 04  9 14 21 38  0.0000000  0  8G 3G 8G13G19G23G27G10G28
   1616605.36749   1257278.56847  23321496.7664   23321495.4304
     -1445.0164
  -4527952.97849  -3517597.27248  21584456.7344   21584454.0824
      1460.5784
   3053028.31349   2371362.90148  20799690.9144   20799686.6454
     -1860.0784
  -4052181.59649  -3146452.17647  22863691.4924   22863686.6134
       942.2504
   8516878.05749   6611340.72547  23393122.6024   23393118.9064
     -3653.5474
  -1388535.97549  -1083773.63248  21031239.6644   21031236.4534
       288.5944
  -2104218.94749  -1638966.64747  23803404.7664   23803402.4694
      1106.7974
  -4080914.87849  -3176147.22347  23540618.8444   23540616.8324
      2764.6564
 04  9 14 21 38 15.0000000  0  8G 3G 8G13G19G23G27G10G28
   1638354.65149   1274226.04247  23325635.2664   23325633.7584
     -1454.9534
  -4549832.67849  -3534646.39148  21580293.2114   21580290.2154
      1456.6884
   3080993.09949   2393153.62348  20805012.4454   20805008.1564
     -1868.6564
  -4066249.72149  -3157414.33547  22861014.4844   22861009.5984
       933.4844
   8571715.17649   6654070.88247  23403557.5474   23403554.3794
     -3658.0314
  -1392838.13749  -1087125.97148  21030421.1174   21030417.5084
       285.1254
  -2120747.52249  -1651846.03947  23800259.0314   23800256.9534
      1097.1094
  -4122351.20149  -3208435.24347  23532734.5164   23532731.6644
      2760.1724
 04  9 14 21 38 30.0000000  0  8G 3G 8G13G19G23G27G10G28
   1660242.73949   1291281.67347  23329801.5394   23329799.1524
     -1463.8754
  -4571664.67349  -3551658.32648  21576138.7274   21576135.9344
      1453.8444
   3109075.67649   2415036.13448  20810356.3054   20810352.0314
     -1876.1254
  -4080197.36149  -3168282.62047  22858360.1174   22858355.6374
       925.8284
   8626609.53449   6696845.65547  23414003.7344   23414000.0744
     -3661.5624
  -1397098.32449  -1090445.59448  21029610.2114   21029606.5634
       282.5474
  -2137142.10349  -1664621.03847  23797139.4694   23797137.0554
      1088.5004
  -4163732.35249  -3240680.25047  23524859.8444   23524857.0984
      2756.7814
 04  9 14 21 38 45.0000000  0  8G 3G 8G13G19G23G27G10G28
   1682270.30249   1308445.99447  23333992.1024   23333990.6484
     -1473.3444
  -4593448.22049  -3568632.52348  21571993.6094   21571990.5164
      1450.4384
   3137276.90149   2437011.09748  20815723.2504   20815719.1414
     -1884.2194
  -4094023.49449  -3179056.21547  22855729.0784   22855724.6374
       917.5314
   8681561.51249   6739665.29547  23424460.8364   23424456.3914
     -3665.5944
  -1401315.77049  -1093731.92848  21028807.7424   21028803.8244
       279.5164
  -2153401.79849  -1677290.93647  23794045.5474   23794043.7774
      1079.2504
  -4205057.53649  -3272881.67647  23516996.2664   23516993.0434
      2752.9534
 04  9 14 21 39  0.0000000  0  8G 3G 8G13G19G23G27G10G28
   1704438.10749   1325719.60447  23338211.3914   23338209.3094
     -1482.1254
  -4615182.44549  -3585568.26048  21567857.7424   21567854.5434
      1447.7194
   3165597.57449   2459079.14348  20821112.2504   20821108.4064
     -1891.6874
  -4107726.90649  -3189734.20047  22853121.4144   22853116.8324
       909.8284
   8736572.02849   6782530.59547  23434928.6954   23434924.5664
     -3669.0004
  -1405489.52249  -1096984.19848  21028013.7114   21028010.0594
       277.1724
  -2169525.51149  -1689854.87047  23790976.5164   23790974.6254
      1070.7504
  -4246325.48649  -3305038.50947  23509142.8134   23509139.7384
      2749.6254
 04  9 14 21 39 15.0000000  0  8G 3G 8G13G19G23G27G10G28
   1726743.38449   1343100.31947  23342455.7664   23342453.3874
     -1491.6094
  -4636869.88549  -3602467.56148  21563730.8674   21563727.8714
      1444.2344
   3194034.88749   2481238.07548  20826523.7344   20826519.9574
     -1899.7344
  -4121310.16949  -3200318.54047  22850536.4534   22850532.0704
       901.5784
   8791638.11249   6825439.18147  23445408.1564   23445403.5084
     -3672.9534
  -1409622.23049  -1100204.48648  21027227.0394   21027223.6094
       274.1414
  -2185515.71549  -1702314.75647  23787934.0554   23787931.1884
      1061.4534
  -4287538.73549  -3337152.67647  23501300.4384   23501297.0084
      2745.7194
 04  9 14 21 39 30.0000000  0  8G 3G 8G13G19G23G27G10G28
   1749187.67349   1360589.35647  23346726.8834   23346724.3794
     -1501.0474
  -4658508.87049  -3619329.10848  21559613.0704   21559609.7074
      1440.8134
   3222590.64149   2503489.28648  20831957.4614   20831953.8554
     -1907.8594
  -4134771.21549  -3210807.65747  22847975.0164   22847970.6334
       893.1724
   8846761.32049   6868392.26647  23455897.0314   23455892.9494
     -3676.9224
  -1413712.09549  -1103391.40648  21026448.8594   21026444.9494
       271.0474
  -2201370.49249  -1714669.13047  23784916.8284   23784914.3834
      1052.3134
  -4328695.42349  -3369222.81747  23493468.9144   23493465.2194
      2741.7814
 04  9 14 21 39 45.0000000  0  8G 3G 8G13G19G23G27G10G28
   1771774.72149   1378189.62747  23351025.0474   23351023.1024
     -1510.0004
  -4680095.52249  -3636149.86348  21555505.4064   21555502.1914
      1437.9384
   3251268.27349   2525835.47448  20837414.8134   20837411.2194
     -1915.2974
  -4148106.06849  -3221198.43047  22845437.4224   22845433.0314
       885.4064
   8901945.22549   6911392.65947  23466398.9534   23466394.3834
     -3680.2974
  -1417755.29649  -1106541.95748  21025679.4064   21025675.8874
       268.6884
  -2217086.03649  -1726915.01947  23781925.8204   23781923.6724
      1043.6724
  -4369791.57049  -3401245.72647  23485647.7274   23485645.8554
      2738.3284
 04  9 14 21 40  0.0000000  0  8G 3G 8G13G19G23G27G10G28
   1794494.28849   1395893.17747  23355347.8284   23355346.7854
     -1519.2504
  -4701639.61149  -3652937.46148  21551405.1254   21551402.0594
      1434.7194
   3280058.00549   2548269.02348  20842893.3754   20842889.6414
     -1923.2344
  -4161324.57149  -3231498.54147  22842921.8594   22842917.0514
       877.2194
   8957179.58349   6954432.35747  23476909.3524   23476905.1334
     -3684.0314
  -1421761.87149  -1109663.96148  21024916.9064   21024912.8524
       265.7034
  -2232672.08949  -1739059.99847  23778960.8444   23778957.9024
      1034.5634
  -4410837.12749  -3433229.26247  23477837.4844   23477834.0554
      2734.4694
 04  9 14 21 40 15.0000000  0  8G 3G 8G13G19G23G27G10G28
   1817350.33749   1413703.08847  23359696.8754   23359695.9494
     -1528.6254
  -4723137.33349  -3669688.93048  21547314.7424   21547311.0824
      1431.3594
   3308964.04049   2570793.18648  20848393.7814   20848390.3754
     -1931.2504
  -4174422.31849  -3241704.56247  22840429.4924   22840424.9024
       868.8914
   9012468.16749   6997514.31747  23487431.1564   23487426.4184
     -3688.0474
  -1425727.72249  -1112754.24048  21024162.7584   21024158.9494
       262.7034
  -2248124.52949  -1751100.83147  23776020.0554   23776018.0394
      1025.4844
  -4451827.79849  -3465170.01547  23470037.6954   23470034.2584
      2730.5314
 04  9 14 21 40 30.0010000  0  8G 3G 8G13G19G23G27G10G28
   1840344.33549   1431620.47547  23364073.3804   23364071.5954
     -1537.4374
  -4744589.96549  -3686405.25348  21543232.0914   21543229.0214
      1428.4534
   3337987.94449   2593409.21148  20853916.8414   20853912.8214
     -1938.7664
  -4187399.84649  -3251816.91047  22837959.8254   22837954.7634
       860.9844
   9067814.59849   7040641.34347  23497962.8964   23497958.7944
     -3691.3444
  -1429652.99349  -1115812.89748  21023415.6384   21023411.4814
       260.2664
  -2263444.11449  -1763038.15847  23773104.6384   23773102.0834
      1016.7974
  -4492765.99949  -3497069.88447  23462246.0994   23462244.2244
      2727.0784
 04  9 14 21 40 45.0010000  0  8G 3G 8G13G19G23G27G10G28
   1863476.66049   1449645.62247  23368475.3414   23368473.3964
     -1546.6414
  -4765991.00549  -3703081.38648  21539159.8174   21539156.7314
      1425.2194
   3367129.36849   2616116.79048  20859462.4664   20859458.7594
     -1946.6564
  -4200251.73849  -3261831.35647  22835514.8564   22835510.1104
       852.7194
   9123214.81049   7083810.27147  23508505.2474   23508501.3494
     -3695.1564
  -1433533.72949  -1118836.85348  21022676.8024   21022673.3214
       257.3594
  -2278625.10949  -1774867.51447  23770215.8414   23770214.0874
      1007.4844
  -4533642.67449  -3528921.80547  23454468.0054   23454465.8254
      2723.2194
 04  9 14 21 41  0.0010000  0  8G 3G 8G13G19G23G27G10G28
   1886743.65049   1467775.73647  23372902.4894   23372899.9074
     -1555.6874
  -4787346.85949  -3719722.29748  21535095.7634   21535092.5914
      1422.0634
   3396385.24249   2638913.55048  20865029.8104   20865025.6424
     -1954.3284
  -4212983.69249  -3271752.35447  22833091.2474   22833087.6884
       844.6724
   9178667.34249   7127019.99647  23519057.8024   23519053.5794
     -3698.7504
  -1437374.90949  -1121829.97748  21021945.9974   21021942.3134
       254.6094
  -2293673.44749  -1786593.50247  23767352.1774   23767350.5674
       998.7034
  -4574465.37149  -3560731.67947  23446700.4584   23446697.4744
      2719.5474
 04  9 14 21 41 15.0010000  0  8G 3G 8G13G19G23G27G10G28
   1910151.18049   1486015.34247  23377356.0834   23377354.7284
     -1565.2814
  -4808651.45349  -3736323.28348  21531041.7944   21531038.1854
      1418.5164
   3425761.37949   2661804.03848  20870619.9814   20870615.9584
     -1962.5784
  -4225589.44349  -3281574.98547  22830692.8174   22830687.9154
       836.1564
   9234177.90249   7170274.92247  23529621.3964   23529616.5484
     -3702.7194
  -1441170.60649  -1124787.66548  21021223.6774   21021220.0794
       251.4534
  -2308582.94849  -1798211.27647  23764515.2554   23764512.6494
       989.2504
  -4615227.92349  -3592494.68347  23438942.7164   23438940.2474
      2715.4064
 04  9 14 21 41 30.0010000  0  8G 3G 8G13G19G23G27G10G28
   1933695.61849   1504361.64347  23381837.9974   23381835.7594
     -1574.0784
  -4829908.19049  -3752886.97248  21526996.6224   21526993.7164
      1415.5634
   3455254.25749   2684785.47748  20876232.5524   20876228.5524
     -1970.0474
  -4238072.24649  -3291301.83447  22828317.5914   22828312.8604
       828.1884
   9289742.81649   7213572.19147  23540194.0604   23540189.7714
     -3706.0944
  -1444924.47049  -1127712.75248  21020509.2474   21020505.8374
       248.9534
  -2323357.04349  -1809723.57547  23761704.4584   23761701.2824
       980.6094
  -4655933.70949  -3624213.42547  23431197.2944   23431194.5524
      2711.9224
 04  9 14 21 41 45.0010000  0  8G 3G 8G13G19G23G27G10G28
   1957372.63349   1522811.26047  23386343.1384   23386341.6264
     -1583.4224
  -4851121.51649  -3769416.83048  21522959.8174   21522956.8454
      1412.1884
   3484859.59049   2707854.54648  20881865.6144   20881861.5134
     -1978.0164
  -4250436.21049  -3300936.07047  22825964.8884   22825960.4074
       819.6724
   9345357.47149   7256908.21547  23550777.4114   23550773.4464
     -3709.8444
  -1448640.52749  -1130608.38648  21019802.0364   21019798.6854
       245.9224
  -2337999.81149  -1821133.49447  23758916.7944   23758915.2204
       971.1884
  -4696586.80749  -3655891.13247  23423461.4744   23423457.9854
      2707.9534
 04  9 14 21 42  0.0010000  0  8G 3G 8G13G19G23G27G10G28
   1981190.21449   1541370.41047  23390875.5364   23390873.6304
     -1592.2504
  -4872283.07849  -3785906.35048  21518933.4274   21518930.3604
      1409.2034
   3514585.43549   2731017.53248  20887522.4114   20887518.5324
     -1985.4844
  -4262672.89249  -3310471.12847  22823636.4354   22823631.1854
       811.6724
   9401029.93349   7300289.30347  23561370.9354   23561367.6734
     -3713.1874
  -1452310.61849  -1133468.19948  21019103.6064   21019100.7004
       243.3754
  -2352502.95249  -1832434.64647  23756157.3964   23756155.2864
       962.4694
  -4737178.86749  -3687521.29247  23415735.8724   23415733.8214
      2704.2814
 04  9 14 21 42 15.0010000  0  8G 3G 8G13G19G23G27G10G28
   2005147.33149   1560038.24747  23395434.6614   23395432.7084
     -1601.7034
  -4893393.65549  -3802356.14248  21514915.7084   21514912.6064
      1405.7504
   3544430.74049   2754273.58948  20893201.9664   20893197.9034
     -1993.5624
  -4274782.99849  -3319907.56447  22821331.7314   22821326.4314
       803.2504
   9456759.03849   7343714.50447  23571977.0364   23571972.6534
     -3717.0624
  -1455935.70749  -1136292.95248  21018413.9194   21018410.0874
       240.3134
  -2366867.27749  -1843627.63147  23753423.8964   23753421.7674
       953.1564
  -4777710.62749  -3719104.45547  23408023.2944   23408020.9664
      2700.2194
 04  9 14 21 42 30.0010000  0  8G 3G 8G13G19G23G27G10G28
   2029239.68249   1578811.49047  23400019.2784   23400017.0174
     -1610.6564
  -4914457.49149  -3818769.51548  21510907.5914   21510904.1614
      1402.6724
   3574391.37549   2777619.53448  20898902.9274   20898899.7244
     -2001.3124
  -4286770.46049  -3329248.41547  22819050.6924   22819046.1424
       795.0634
   9512540.47749   7387180.52047  23582592.2244   23582588.7124
     -3720.5314
  -1459519.83749  -1139085.77648  21017731.9274   21017728.1344
       237.6414
  -2381096.79849  -1854715.55047  23750716.2474   23750713.4234
       944.0634
  -4818185.94849  -3750643.64247  23400321.3884   23400318.5634
      2696.4694
 04  9 14 21 42 45.0010000  0  8G 3G 8G13G19G23G27G10G28
   2053468.76049   1597691.28047  23404630.0284   23404627.7864
     -1619.7194
  -4935473.00949  -3835145.23848  21506908.5604   21506905.6534
      1399.5164
   3604468.95249   2801056.58448  20904626.9894   20904623.0714
     -2009.0004
  -4298633.43349  -3338492.27847  22816792.3334   22816788.0284
       786.8134
   9568375.70449   7430688.43147  23593217.4194   23593213.6064
     -3724.0624
  -1463061.33649  -1141845.38048  21017057.5284   21017054.2984
       234.7814
  -2395189.66949  -1865697.00747  23748034.8724   23748031.9464
       935.0634
  -4858603.15149  -3782137.54047  23392629.8724   23392627.2204
      2692.6564
 04  9 14 21 43  0.0010000  0  8G 3G 8G13G19G23G27G10G28
   2077834.30049   1616677.37847  23409265.5444   23409264.1064
     -1628.7504
  -4956440.07449  -3851483.20048  21502918.2634   21502914.8884
      1396.3754
   3634663.39649   2824584.70448  20910372.4034   20910368.6384
     -2016.6874
  -4310371.74349  -3347638.99447  22814559.4034   22814554.5054
       778.5784
   9624264.43649   7474238.02247  23603852.4894   23603849.2354
     -3727.5164
  -1466560.22049  -1144571.78848  21016391.8884   21016388.8254
       232.0314
  -2409145.81849  -1876571.89947  23745378.5444   23745376.4384
       926.1094
  -4898962.07649  -3813586.01647  23384950.0134   23384946.8104
      2688.8284
 04  9 14 21 43 15.0010000  0  8G 3G 8G13G19G23G27G10G28
   2102335.46449   1635769.19547  23413927.9974   23413927.0634
     -1638.3594
  -4977359.60849  -3867784.12948  21498937.8024   21498934.0834
      1392.6094
   3664973.72549   2848203.13448  20916140.2944   20916136.7714
     -2024.9844
  -4321985.88449  -3356688.94747  22812349.6144   22812344.3724
       769.7194
   9680205.61349   7517828.49447  23614497.5834   23614493.9854
     -3731.5944
  -1470017.30549  -1147265.62148  21015734.2714   21015730.6224
       228.6724
  -2422965.96349  -1887340.84847  23742749.0674   23742746.6884
       916.3284
  -4939263.31149  -3844989.54747  23377280.9194   23377277.7744
      2684.3444
 04  9 14 21 43 30.0010000  0  8G 3G 8G13G19G23G27G10G28
   2126972.86049   1654967.15547  23418617.4584   23418614.6224
     -1647.1724
  -4998230.71749  -3884047.33148  21494966.1924   21494962.2044
      1389.5944
   3695400.53049   2871912.31048  20921930.2634   20921926.6064
     -2032.5004
  -4333475.03449  -3365641.52247  22810162.1144   22810158.1924
       761.6094
   9736199.77349   7561460.23447  23625152.2864   23625148.6884
     -3734.8594
  -1473431.72349  -1149926.20648  21015084.8174   21015081.0444
       226.0004
  -2436649.31549  -1898003.20247  23740145.0914   23740142.7314
       907.4844
  -4979506.12249  -3876347.56847  23369622.5134   23369620.3174
      2680.7034
 04  9 14 21 43 45.0010000  0  8G 3G 8G13G19G23G27G10G28
   2151746.54149   1674271.29647  23423331.9744   23423329.1264
     -1656.2664
  -5019053.23049  -3900272.67248  21491003.7944   21491000.7944
      1386.3444
   3725943.87849   2895712.29748  20927742.9584   20927738.9034
     -2040.3444
  -4344838.81549  -3374496.39547  22808000.0284   22807995.7474
       753.1884
   9792246.85649   7605133.21847  23635817.7554   23635814.1964
     -3738.4374
  -1476803.39049  -1152553.48648  21014443.2004   21014439.8134
       223.2034
  -2450195.47849  -1908558.66547  23737567.8494   23737564.7714
       898.2504
  -5019690.17149  -3907659.77347  23361976.5284   23361973.5134
      2676.8284
 04  9 14 21 44  0.0010000  0  8G 3G 8G13G19G23G27G10G28
   2176658.33049   1693683.07547  23428071.8804   23428069.7984
     -1665.2034
  -5039824.97449  -3916458.42848  21487050.9424   21487048.2554
      1383.2974
   3756605.71749   2919604.63548  20933577.4194   20933573.6614
     -2047.9224
  -4356074.86449  -3383251.73647  22805862.3174   22805857.7204
       744.9844
   9848348.52949   7648848.76547  23646493.7004   23646491.0174
     -3741.6414
  -1480130.25249  -1155145.84948  21013809.9034   21013806.1534
       220.4384
  -2463602.36249  -1919005.59147  23735016.1144   23735013.8494
       889.3134
  -5059813.17949  -3938924.43047  23354340.4974   23354337.9704
      2673.0474
 04  9 14 21 44 15.0010000  0  8G 3G 8G13G19G23G27G10G28
   2201705.22649   1713200.13347  23432838.1464   23432836.9114
     -1674.1874
  -5060548.81549  -3932606.87248  21483107.2784   21483103.6694
      1380.1414
   3787383.18649   2943587.05048  20939434.1694   20939429.7784
     -2055.5624
  -4367185.82649  -3391909.62147  22803747.4894   22803743.0054
       736.6564
   9904501.95949   7692604.62147  23657178.8724   23657175.0714
     -3745.0944
  -1483415.00749  -1157705.39648  21013184.8564   21013181.0834
       217.7194
  -2476872.62949  -1929346.04047  23732491.2164   23732488.4424
       880.2034
  -5099877.75649  -3970143.56547  23346716.6614   23346714.2354
      2669.1724
 04  9 14 21 44 30.0010000  0  8G 3G 8G13G19G23G27G10G28
   2226883.87449   1732819.84847  23437629.3804   23437627.6464
     -1683.1094
  -5081227.85949  -3948720.41148  21479171.8724   21479169.0874
      1376.9064
   3818272.98749   2967657.01948  20945312.6464   20945308.2354
     -2063.1874
  -4378174.63849  -3400472.30647  22801656.8564   22801651.6884
       728.3284
   9960703.76149   7736398.16947  23667874.5604   23667870.6144
     -3748.5474
  -1486660.84849  -1160234.62948  21012567.4504   21012563.5524
       214.8754
  -2490009.43449  -1939582.50747  23729990.7084   23729988.9504
       871.1564
  -5139887.08849  -4001319.62647  23339102.9744   23339100.6964
      2665.2504
 04  9 14 21 44 45.0010000  0  8G 3G 8G13G19G23G27G10G28
   2252203.09249   1752549.08947  23442448.0994   23442446.0604
     -1692.7344
  -5101853.40749  -3964792.26848  21475246.9354   21475243.8334
      1373.2034
   3849283.89949   2991821.35148  20951213.6384   20951209.5444
     -2071.4694
  -4389032.31449  -3408932.81547  22799590.7554   22799585.6464
       719.4064
  10016962.49049   7780236.07647  23678579.7944   23678576.2714
     -3752.5314
  -1489858.91849  -1162726.63948  21011958.3644   21011954.5284
       211.5944
  -2503003.66149  -1949707.87247  23727517.8414   23727516.3254
       861.4844
  -5179832.07849  -4032445.56947  23331501.8724   23331499.2084
      2660.8444
 04  9 14 21 45  0.0010000  0  8G 3G 8G13G19G23G27G10G28
   2277658.16049   1772384.19347  23447291.6614   23447290.1534
     -1701.8284
  -5122429.55949  -3980825.63248  21471331.6534   21471328.2244
      1369.8444
   3880411.51249   3016076.60348  20957137.1694   20957132.5484
     -2079.3444
  -4399763.02849  -3417294.41047  22797548.4664   22797543.8964
       710.8134
  10073273.58349   7824114.78847  23689295.6774   23689291.8064
     -3756.1254
  -1493013.42049  -1165184.69648  21011358.2634   21011354.3724
       208.6094
  -2515859.64549  -1959725.52747  23725071.7244   23725069.1384
       852.1724
  -5219716.90149  -4063524.62847  23323912.5754   23323908.8294
      2656.7034
 04  9 14 21 45 15.0010000  0  8G 3G 8G13G19G23G27G10G28
   2303248.99349   1792325.10147  23452162.2244   23452159.7784
     -1710.3914
  -5142956.27049  -3996820.45048  21467425.4974   21467421.9624
      1367.0314
   3911655.66649   3040422.69248  20963082.7394   20963078.7314
     -2086.6254
  -4410366.56149  -3425556.87247  22795530.7474   22795526.1224
       702.9384
  10129636.74949   7868034.08947  23700020.9744   23700017.3534
     -3759.0944
  -1496124.44049  -1167608.85748  21010765.9194   21010762.3334
       206.2034
  -2528577.26449  -1969635.35547  23722651.9274   23722649.3064
       843.4534
  -5259541.46149  -4094556.71847  23316334.0674   23316330.4894
      2653.1724
 04  9 14 21 45 30.0010000  0  8G 3G 8G13G19G23G27G10G28
   2328974.19449   1812370.69247  23457056.9424   23457054.7084
     -1719.5624
  -5163434.77249  -4012777.73248  21463528.3644   21463525.4384
      1363.5164
   3943015.05349   3064858.55048  20969049.9814   20969045.8494
     -2094.5314
  -4420843.94849  -3433721.05647  22793537.1224   22793532.6494
       694.1564
  10186050.61149   7911992.87847  23710755.5214   23710752.3024
     -3762.7664
  -1499193.19249  -1170000.10148  21010182.5134   21010179.0174
       203.0944
  -2541157.58749  -1979438.21347  23720258.2164   23720255.0714
       834.0164
  -5299306.77949  -4125542.66847  23308766.8804   23308763.9934
      2648.9534
 04  9 14 21 45 45.0010000  0  8G 3G 8G13G19G23G27G10G28
   2354831.82249   1832519.49647  23461976.4584   23461975.0054
     -1728.1094
  -5183866.78249  -4028698.76448  21459640.4354   21459637.0714
      1360.6564
   3974487.83849   3089382.79348  20975039.0834   20975035.4784
     -2101.8594
  -4431196.86649  -3441788.23647  22791566.1224   22791562.8334
       686.1254
  10242513.08149   7955989.53047  23721501.0134   23721496.7784
     -3765.7194
  -1502221.30949  -1172359.67748  21009606.1924   21009602.5914
       200.6254
  -2553602.30949  -1989135.39647  23717889.3564   23717887.4784
       825.2664
  -5339014.57549  -4156483.76747  23301210.6304   23301207.6224
      2645.3444
 04  9 14 21 46  0.0010000  0  8G 3G 8G13G19G23G27G10G28
   2380821.32549   1852771.04647  23466922.4034   23466921.1854
     -1737.0944
  -5204252.97249  -4044584.10348  21455761.1304   21455757.9074
      1357.4224
   4006073.51149   3113994.99148  20981049.8414   20981045.8964
     -2109.6414
  -4441425.38249  -3449758.50247  22789620.1534   22789615.9384
       677.6094
  10299023.49749   8000023.54147  23732254.4584   23732250.8134
     -3769.1094
  -1505209.35749  -1174688.02748  21009037.5604   21009033.8024
       197.7034
  -2565911.70649  -1998727.13847  23715547.4894   23715544.8064
       815.9064
  -5378665.04749  -4187380.20247  23293665.4424   23293662.1104
      2641.3134
 04  9 14 21 46 15.0010000  0  8G 3G 8G13G19G23G27G10G28
   2406947.19649   1873128.85747  23471894.2004   23471892.9974
     -1746.0474
  -5224588.38349  -4060429.86748  21451891.6384   21451888.0794
      1354.2034
   4037776.57949   3138698.66448  20987082.8254   20987078.9194
     -2117.1874
  -4451524.68149  -3457628.07747  22787697.9424   22787693.0564
       669.2344
  10355586.33949   8044098.41847  23743017.4894   23743014.5444
     -3772.2814
  -1508152.54749  -1176981.42248  21008477.6694   21008473.6774
       194.9694
  -2578081.09649  -2008209.78447  23713231.8884   23713228.9314
       806.8284
  -5418253.35649  -4218228.21247  23286131.5214   23286128.8374
      2637.3754
 04  9 14 21 46 30.0010000  0  8G 3G 8G13G19G23G27G10G28
   2433207.85549   1893591.69547  23476891.4034   23476890.1814
     -1754.9844
  -5244874.30749  -4076237.08248  21448031.1924   21448027.6924
      1350.9534
   4069595.54449   3163492.64048  20993137.7554   20993133.5404
     -2124.9064
  -4461496.05349  -3465397.96347  22785800.8804   22785795.8804
       660.7194
  10412200.01849   8088212.89447  23753790.9664   23753787.9584
     -3775.7974
  -1511052.27949  -1179240.96048  21007925.6924   21007921.7674
       192.0634
  -2590111.78049  -2017584.32847  23710941.7714   23710939.5714
       797.6254
  -5457780.80649  -4249028.79747  23278610.4274   23278607.2474
      2633.3754
 04  9 14 21 46 45.0010000  0  8G 3G 8G13G19G23G27G10G28
   2459598.98849   1914156.18047  23481914.2864   23481912.2044
     -1763.7194
  -5265115.01549  -4092009.06548  21444179.6694   21444176.0054
      1347.9844
   4101526.22849   3188373.68048  20999214.3884   20999209.7714
     -2132.2814
  -4471343.38849  -3473071.19247  22783927.2244   22783922.0214
       652.4384
  10468860.12249   8132363.57047  23764573.0284   23764569.7044
     -3778.8284
  -1513912.68349  -1181469.84548  21007381.2164   21007377.5564
       189.4844
  -2602007.77049  -2026853.91847  23708678.2784   23708676.1344
       788.6254
  -5497251.44249  -4279785.12547  23271099.0994   23271095.6264
      2629.5944
 04  9 14 21 47  0.0010000  0  8G 3G 8G13G19G23G27G10G28
   2486124.45649   1934825.36347  23486961.8964   23486960.1104
     -1772.8124
  -5285306.45149  -4107742.64748  21440337.4274   21440333.7634
      1344.4694
   4133572.50749   3213344.78448  21005312.3494   21005307.9814
     -2140.2974
  -4481062.46249  -3480644.47947  22782077.0834   22782073.2084
       643.6884
  10525570.44149   8176553.35147  23775365.0674   23775362.1814
     -3782.4064
  -1516729.65149  -1183664.88348  21006845.1384   21006841.4934
       186.3594
  -2613764.89949  -2036015.31247  23706440.9114   23706438.8494
       779.2344
  -5536661.01849  -4310493.83247  23263599.8644   23263596.6654
      2625.3134
 04  9 14 21 47 15.0010000  0  8G 3G 8G13G19G23G27G10G28
   2512783.41649   1955598.56247  23492033.9504   23492032.7164
     -1781.5944
  -5305449.29349  -4123438.35848  21436503.7784   21436501.2084
      1341.3444
   4165733.61349   3238405.38048  21011432.3254   21011428.1534
     -2147.7344
  -4490653.73749  -3488118.18847  22780252.1534   22780248.3174
       635.2814
  10582330.17249   8220781.63147  23786166.2944   23786163.6384
     -3785.5004
  -1519503.74349  -1185826.50548  21006317.2554   21006313.8104
       183.6254
  -2625383.66049  -2045068.90747  23704229.9114   23704227.9074
       770.0164
  -5576009.96249  -4341155.33047  23256111.6144   23256109.0524
      2621.3134
 04  9 14 21 47 30.0010000  0  8G 3G 8G13G19G23G27G10G28
   2539578.48049   1976477.84847  23497133.8174   23497131.5634
     -1791.1094
  -5325540.62649  -4139093.94548  21432680.9584   21432677.7474
      1337.4844
   4198012.16349   3263557.47848  21017574.4194   21017570.2594
     -2156.0164
  -4500114.26049  -3495490.01647  22778452.1614   22778447.2674
       626.0634
  10639141.70249   8265050.31747  23796977.0914   23796973.8454
     -3789.3284
  -1522232.31849  -1187952.67348  21005798.3494   21005794.3924
       180.1724
  -2636861.40749  -2054012.58047  23702045.8174   23702043.7594
       760.3284
  -5615295.45949  -4371767.38047  23248635.9194   23248632.7004
      2616.7034
 04  9 14 21 47 45.0010000  0  8G 3G 8G13G19G23G27G10G28
   2566509.85049   1997463.31347  23502258.2474   23502256.5834
     -1799.8124
  -5345579.91049  -4154708.96448  21428867.5674   21428864.4894
      1334.3444
   4230408.47849   3288801.34048  21023739.7714   21023735.2284
     -2163.5474
  -4509443.51649  -3502759.53947  22776676.5134   22776672.2984
       617.7194
  10696005.32049   8309359.56047  23807798.3644   23807794.5874
     -3792.5624
  -1524914.79049  -1190042.91848  21005287.3334   21005283.8294
       177.4844
  -2648197.54949  -2062845.94947  23699888.3334   23699886.0244
       751.1724
  -5654516.98149  -4402329.58347  23241171.8724   23241169.5524
      2612.7974
 04  9 14 21 48  0.0010000  0  8G 3G 8G13G19G23G27G10G28
   2593571.59449   2018550.36747  23507407.6304   23507406.2394
     -1808.4374
  -5365572.97549  -4170287.96148  21425062.7084   21425059.7164
      1331.4384
   4262916.80149   3314132.48848  21029925.4034   21029920.9424
     -2170.9374
  -4518646.98949  -3509931.07047  22774925.9424   22774920.5134
       609.4064
  10752915.08049   8353704.75347  23818627.8104   23818624.5634
     -3795.5004
  -1527556.98849  -1192101.77948  21004784.4584   21004780.8134
       174.7974
  -2659397.76649  -2071573.38247  23697757.8254   23697754.7314
       742.2504
  -5693680.10849  -4432846.26747  23233720.2474   23233717.4194
      2608.9534
 04  9 14 21 48 15.0010000  0  8G 3G 8G13G19G23G27G10G28
   2620764.47449   2039739.60547  23512581.7004   23512581.3374
     -1817.3444
  -5385518.88349  -4185830.23048  21421267.6924   21421264.4504
      1328.0164
   4295537.94849   3339551.55348  21036133.3024   21036129.0404
     -2178.6254
  -4527723.53749  -3517003.69047  22773197.7554   22773193.6614
       600.8134
  10809871.60749   8398086.38847  23829466.7394   23829462.0404
     -3798.7814
  -1530157.89949  -1194128.45848  21004289.9664   21004286.0364
       171.9064
  -2670461.04349  -2080194.12247  23695651.5524   23695649.4424
       732.8594
  -5732783.69649  -4463316.57547  23226278.8724   23226276.0284
      2604.7664
 04  9 14 21 48 30.0010000  0  8G 3G 8G13G19G23G27G10G28
   2648088.18249   2061030.79647  23517782.7554   23517780.6614
     -1826.1094
  -5405417.64849  -4201335.76648  21417480.8174   21417477.2434
      1324.7194
   4328271.51049   3365058.21148  21042362.2944   21042357.8534
     -2186.2974
  -4536673.21849  -3523977.45747  22771494.8564   22771489.4974
       592.2034
  10866874.55349   8442504.22547  23840313.2164   23840309.1654
     -3802.0164
  -1532717.58949  -1196123.03548  21003803.1694   21003798.7634
       169.0474
  -2681387.31449  -2088708.07647  23693572.6924   23693570.8994
       723.5474
  -5771827.80749  -4493740.52147  23218848.6144   23218846.0244
      2600.6724
 04  9 14 21 48 45.0010000  0  8G 3G 8G13G19G23G27G10G28
   2675544.04149   2082424.96547  23523006.4664   23523004.5794
     -1834.8124
  -5425267.61449  -4216803.25848  21413703.4894   21413699.8534
      1321.7034
   4361118.99649   3390653.64348  21048612.8884   21048608.6304
     -2193.6094
  -4545494.33349  -3530851.04147  22769816.3104   22769810.7434
       583.7504
  10923925.11749   8486959.10647  23851170.1924   23851166.3604
     -3804.9374
  -1535234.61249  -1198084.34648  21003323.5994   21003320.0524
       166.3594
  -2692175.01649  -2097114.09247  23691520.0284   23691517.3764
       714.5784
  -5810810.77349  -4524116.83847  23211430.1774   23211427.6654
      2596.8284
 04  9 14 21 49  0.0010000  0  8G 3G 8G13G19G23G27G10G28
   2703135.26449   2103924.59547  23528258.0364   23528255.0794
     -1843.7344
  -5445065.57949  -4232230.23848  21409935.9274   21409932.3994
      1318.2974
   4394083.56449   3416340.29848  21054885.5674   21054881.8064
     -2201.3124
  -4554183.30849  -3537621.65447  22768162.9034   22768158.2864
       575.0634
  10981026.43049   8531453.57847  23862036.3024   23862032.5674
     -3808.2974
  -1537705.56949  -1200009.76648  21002853.5054   21002849.9234
       163.3134
  -2702820.71749  -2105409.44947  23689493.9894   23689491.7474
       705.2194
  -5849729.15549  -4554442.84047  23204024.6694   23204021.9034
      2592.5634
 04  9 14 21 49 15.0010000  0  8G 3G 8G13G19G23G27G10G28
   2730857.93849   2125526.67147  23533533.0444   23533530.6814
     -1852.6254
  -5464815.15649  -4247619.51748  21406177.8414   21406174.5444
      1314.9844
   4427161.54249   3442115.33248  21061180.4584   21061176.3174
     -2209.0624
  -4562743.45749  -3544291.88847  22766533.7474   22766528.9274
       566.3284
  11038174.73649   8575984.65547  23872911.4584   23872908.5054
     -3811.5004
  -1540133.93749  -1201902.00348  21002391.5834   21002387.8494
       160.4384
  -2713328.01549  -2113596.94147  23687494.4814   23687492.3534
       695.7974
  -5888586.35849  -4584721.12847  23196630.2244   23196626.8924
      2588.3284
 04  9 14 21 49 30.0010000  0  8G 3G 8G13G19G23G27G10G28
   2758716.57849   2147234.68247  23538833.6224   23538831.2784
     -1861.6564
  -5484511.75949  -4262967.50448  21402429.5994   21402426.4624
      1311.4224
   4460357.49849   3467982.30148  21067497.2714   21067493.3174
     -2216.8914
  -4571170.16349  -3550858.13047  22764930.2004   22764925.7674
       557.4384
  11095374.33749   8620555.69147  23883796.2864   23883793.2354
     -3814.9534
  -1542515.17449  -1203757.51048  21001938.3884   21001934.2594
       157.2974
  -2723692.27649  -2121672.98547  23685522.0364   23685520.4154
       686.3134
  -5927377.58349  -4614948.04247  23189248.7554   23189245.9274
      2583.9694
 04  9 14 21 49 45.0010000  0  8G 3G 8G13G19G23G27G10G28
   2786708.07649   2169046.23747  23544160.0054   23544158.8374
     -1870.3914
  -5504158.18349  -4278276.40848  21398690.9664   21398687.8764
      1308.1414
   4493668.34049   3493938.78448  21073836.1854   21073832.1734
     -2224.5314
  -4579466.10549  -3557322.50847  22763351.4664   22763346.8564
       548.7504
  11152622.25349   8665164.39347  23894690.9354   23894686.9114
     -3818.0624
  -1544852.17449  -1205578.55848  21001493.5604   21001490.0174
       154.4224
  -2733916.11849  -2129639.63347  23683577.0444   23683574.5914
       677.0314
  -5966105.61549  -4645125.71147  23181879.2714   23181875.1924
      2579.8134
 04  9 14 21 50  0.0010000  0  8G 3G 8G13G19G23G27G10G28
   2814829.65249   2190959.12447  23549511.4584   23549510.8994
     -1879.0784
  -5523757.11449  -4293548.28948  21394961.4814   21394958.3254
      1304.9694
   4527091.33949   3519982.65648  21080196.4274   21080192.4114
     -2231.8914
  -4587633.86349  -3563686.97947  22761797.8494   22761793.2634
       540.2344
  11209915.44349   8709808.37247  23905593.4424   23905589.3174
     -3820.9694
  -1547147.46249  -1207367.09248  21001056.9744   21001053.6064
       151.6884
  -2744002.21349  -2137498.91047  23681657.8644   23681655.8494
       667.7664
  -6004773.00049  -4675256.10347  23174520.6384   23174517.6464
      2575.7814
 04  9 14 21 50 15.0010000  0  8G 3G 8G13G19G23G27G10G28
   2843083.18649   2212974.81847  23554888.0834   23554887.2354
     -1887.9064
  -5543305.94249  -4308781.14248  21391241.4894   21391238.1814
      1301.5784
   4560628.47049   3546115.46148  21086578.5214   21086574.6064
     -2239.5944
  -4595670.92449  -3569949.61347  22760267.7554   22760263.8294
       531.4064
  11267255.97249   8754489.24647  23916504.4354   23916501.7474
     -3824.2814
  -1549398.84149  -1209121.41848  21000628.7394   21000625.0054
       148.6094
  -2753948.32049  -2145249.11847  23679764.4194   23679762.7084
       658.3594
  -6043377.40449  -4705337.43947  23167173.9194   23167171.3134
      2571.4384
 04  9 14 21 50 30.0010000  0  8G 3G 8G13G19G23G27G10G28
   2871466.58549   2235091.74247  23560289.5674   23560288.1424
     -1896.9374
  -5562806.93049  -4323976.71148  21387530.7004   21387527.3374
      1298.0944
   4594277.76249   3572335.67648  21092981.4114   21092977.3604
     -2247.4534
  -4603579.13149  -3576111.85147  22758763.1534   22758758.8604
       522.5004
  11324641.55549   8799205.20947  23927424.5834   23927421.5284
     -3827.7344
  -1551608.30849  -1210843.08248  21000208.3334   21000204.5444
       145.4694
  -2763756.34649  -2152891.74547  23677898.6694   23677896.8024
       648.9064
  -6081920.70949  -4735371.14847  23159839.6854   23159835.8254
      2567.1414
 04  9 14 21 50 45.0010000  0  8G 3G 8G13G19G23G27G10G28
   2899982.98349   2257312.33147  23565716.3564   23565714.2864
     -1905.4374
  -5582256.78449  -4339132.43148  21383829.0524   21383826.1814
      1295.0474
   4628042.53749   3598645.87048  21099406.8644   21099402.5094
     -2254.8284
  -4611354.99849  -3582170.94847  22757283.7634   22757278.7474
       514.0164
  11382075.30949   8843958.70847  23938353.6774   23938351.9154
     -3830.5164
  -1553772.43949  -1212529.41348  20999796.2634   20999792.4424
       142.8754
  -2773422.76049  -2160424.00847  23676058.9974   23676057.1964
       639.8284
  -6120399.42249  -4765354.54247  23152517.7864   23152514.6064
      2563.1414
 04  9 14 21 51  0.0010000  0  8G 3G 8G13G19G23G27G10G28
   2928631.62249   2279635.91647  23571168.2164   23571166.1964
     -1914.5784
  -5601655.91649  -4354248.64248  21380137.6614   21380134.2784
      1291.3754
   4661921.86849   3625045.33448  21105854.1534   21105849.8334
     -2262.5784
  -4618998.92649  -3588127.25547  22755829.2944   22755824.0134
       504.9844
  11439556.36649   8888749.06647  23949292.9274   23949290.0284
     -3833.8284
  -1555891.77149  -1214180.86148  20999393.3174   20999388.9384
       139.6094
  -2782948.10649  -2167846.37047  23674246.4974   23674244.5284
       630.0944
  -6158813.94449  -4795287.89947  23145208.0284   23145203.7474
      2558.6724
 04  9 14 21 51 15.0010000  0  8G 3G 8G13G19G23G27G10G28
   2957412.99349   2302062.92847  23576643.8414   23576642.7944
     -1922.9064
  -5621003.47049  -4369324.64748  21376455.8644   21376452.9624
      1288.4694
   4695916.38449   3651534.55248  21112322.6064   21112318.5994
     -2269.8124
  -4626510.14649  -3593980.12947  22754399.3964   22754394.3134
       496.6564
  11497085.21449   8933576.67447  23960239.5364   23960236.4894
     -3836.5004
  -1557965.63849  -1215796.85648  20998998.4034   20998994.7044
       137.0474
  -2792331.72449  -2175158.26647  23672460.7244   23672458.5994
       621.1564
  -6197163.52949  -4825170.66747  23137909.7004   23137906.2594
      2554.8134
 04  9 14 21 51 30.0010000  0  8G 3G 8G13G19G23G27G10G28
   2986326.59649   2324592.98747  23582146.2864   23582145.4664
     -1931.6094
  -5640299.73749  -4384360.68848  21372784.3174   21372781.1854
      1285.0944
   4730025.75349   3678113.25948  21118813.4194   21118809.8534
     -2277.3594
  -4633888.58349  -3599729.55847  22752995.6774   22752990.7004
       487.8594
  11554661.38549   8978441.16447  23971196.5604   23971193.1694
     -3839.6094
  -1559994.21449  -1217377.57948  20998612.4504   20998608.5014
       134.1254
  -2801573.75649  -2182359.82847  23670701.9034   23670699.9934
       611.8284
  -6235448.12249  -4855002.79347  23130624.6224   23130621.3104
      2550.5004
 04  9 14 21 51 45.0010000  0  8G 3G 8G13G19G23G27G10G28
   3015371.85249   2347225.62647  23587674.2394   23587672.7674
     -1940.8444
  -5659545.12649  -4399357.10548  21369121.8414   21369118.6734
      1281.1564
   4764249.34549   3704780.97648  21125326.2084   21125322.7434
     -2285.5004
  -4641134.54149  -3605375.75647  22751616.5214   22751611.9544
       478.4844
  11612284.14049   9023341.96247  23982160.8414   23982158.2244
     -3843.1564
  -1561977.85849  -1218923.26948  20998234.7164   20998231.3414
       130.6724
  -2810674.56849  -2189451.41047  23668970.3254   23668968.0914
       601.8914
  -6273668.17349  -4884784.62347  23123350.6924   23123347.9464
      2545.7664
 04  9 14 21 52  0.0010000  0  8G 3G 8G13G19G23G27G10G28
   3044550.85849   2369962.47947  23593226.7394   23593225.2474
     -1949.4694
  -5678737.41149  -4414312.11848  21365469.2084   21365465.9424
      1277.9064
   4798589.31349   3731539.37248  21131860.6464   21131857.2124
     -2293.1094
  -4648245.74749  -3610916.94947  22750262.7474   22750259.2164
       469.7504
  11669955.62749   9068280.70247  23993136.2474   23993132.7514
     -3846.3124
  -1563914.36949  -1220432.24748  20997866.1774   20997862.3964
       127.6884
  -2819631.78749  -2196431.04247  23667266.4274   23667263.7004
       592.5314
  -6311821.16449  -4914514.20747  23116091.3254   23116087.8534
      2541.4694
 04  9 14 21 52 15.0010000  0  8G 3G 8G13G19G23G27G10G28
   3073857.25549   2392798.62247  23598804.1064   23598802.0794
     -1957.9694
  -5697882.49149  -4429230.35248  21361826.6144   21361823.5174
      1274.7504
   4833039.44549   3758383.62848  21138416.6304   21138412.9034
     -2300.4064
  -4655228.08249  -3616357.72047  22748934.9194   22748929.9034
       461.1564
  11727669.37049   9113252.38447  24004119.4194   24004115.0994
     -3848.9374
  -1565809.77249  -1221909.18348  20997505.7944   20997501.5994
       124.9534
  -2828451.46949  -2203303.51747  23665587.8414   23665585.1694
       583.3134
  -6349913.11349  -4944196.20247  23108842.1694   23108839.0564
      2537.5314
 04  9 14 21 52 30.0010000  0  8G 3G 8G13G19G23G27G10G28
   3103293.64349   2415736.05047  23604404.7474   23604403.6144
     -1966.6874
  -5716977.63949  -4444109.69048  21358192.7784   21358189.2394
      1271.4064
   4867602.47149   3785315.84448  21144993.7944   21144989.9074
     -2307.9064
  -4662078.51849  -3621695.72547  22747631.1854   22747626.6774
       452.3754
  11785428.04149   9158259.03447  24015109.4814   24015106.5404
     -3851.9844
  -1567661.18649  -1223351.84748  20997153.4504   20997149.4854
       122.0474
  -2837130.71849  -2210066.55347  23663935.3334   23663933.1494
       574.0004
  -6387941.08349  -4973828.38347  23101606.1304   23101602.4894
      2533.1724
 04  9 14 21 52 45.0010000  0  8G 3G 8G13G19G23G27G10G28
   3132862.05049   2438776.37247  23610031.9974   23610030.0954
     -1975.7504
  -5736020.87349  -4458948.57248  21354569.1304   21354565.3884
      1267.6414
   4902280.37149   3812337.55948  21151592.6694   21151588.6884
     -2315.7814
  -4668794.75249  -3626929.13847  22746352.9744   22746348.0754
       443.1564
  11843233.47349   9203302.17747  24026108.7554   24026105.9854
     -3855.3284
  -1569466.42949  -1224758.53048  20996809.5604   20996806.2744
       118.7504
  -2845667.16549  -2216718.32947  23662311.6924   23662308.8764
       564.1884
  -6425902.89749  -5003408.97947  23094382.3564   23094378.2004
      2528.4694
 04  9 14 21 53  0.0010000  0  8G 3G 8G13G19G23G27G10G28
   3162564.44449   2461921.04847  23615683.9354   23615682.3134
     -1984.1724
  -5755009.74749  -4473745.08548  21350955.4744   21350952.1384
      1264.5634
   4937075.17849   3839450.37348  21158213.9974   21158210.2244
     -2323.1094
  -4675374.48449  -3632056.20247  22745101.2164   22745096.3724
       434.5474
  11901087.73549   9248383.35547  24037119.3644   24037115.6854
     -3858.1564
  -1571223.34749  -1226127.56648  20996475.5524   20996472.0754
       115.9694
  -2854058.69549  -2223257.19247  23660714.4584   23660712.3764
       555.0784
  -6463796.09849  -5032936.13147  23087171.2474   23087167.9074
      2524.3284
 04  9 14 21 53 15.0010000  0  8G 3G 8G13G19G23G27G10G28
   3192395.19549   2485165.77447  23621360.4974   23621359.3764
     -1992.9534
  -5773949.49549  -4488503.33048  21347350.9664   21347348.3534
      1261.0944
   4971981.28549   3866649.92548  21164856.1304   21164852.2744
     -2330.6874
  -4681823.11649  -3637081.09747  22743873.8564   22743868.7674
       425.5634
  11958985.01949   9293498.07347  24048136.5914   24048132.7124
     -3861.2194
  -1572937.27049  -1227463.08748  20996149.5914   20996145.9154
       112.8594
  -2862310.80849  -2229687.41147  23659144.0364   23659142.1534
       545.5314
  -6501626.05849  -5062413.99047  23079972.7714   23079969.4544
      2519.9694
 04  9 14 21 53 30.0010000  0  8G 3G 8G13G19G23G27G10G28
   3222355.57049   2508511.51747  23627061.8254   23627060.6304
     -2002.0474
  -5792838.85249  -4503222.31548  21343756.5134   21343753.6964
      1257.1564
   5007000.12549   3893937.30748  21171520.1304   21171516.0524
     -2338.7664
  -4688138.78349  -3642002.39147  22742671.7474   22742666.9814
       416.1884
  12016926.70449   9338647.35747  24059162.7864   24059159.0674
     -3864.5944
  -1574606.70549  -1228763.95748  20995831.8174   20995827.9894
       109.4384
  -2870421.75849  -2236007.61647  23657599.9584   23657598.5284
       535.5944
  -6539391.09649  -5091841.26547  23072786.0284   23072782.8884
      2515.1254
 04  9 14 21 53 45.0010000  0  8G 3G 8G13G19G23G27G10G28
   3252451.07349   2531962.51947  23632789.5604   23632786.8844
     -2011.1254
  -5811672.05149  -4517897.51548  21340173.2634   21340169.9464
      1253.4064
   5042137.33249   3921316.93448  21178206.4194   21178202.9464
     -2346.6724
  -4694315.64049  -3646815.53747  22741496.7314   22741491.6424
       406.8754
  12074918.24949   9383835.49647  24070198.2244   24070194.6694
     -3867.9534
  -1576225.77949  -1230025.57448  20995523.9424   20995519.8644
       106.0004
  -2878385.69349  -2242213.28447  23656085.5994   23656082.7554
       525.7504
  -6577085.30349  -5121213.34647  23065613.5134   23065609.4894
      2510.3444
 04  9 14 21 54  0.0010000  0  8G 3G 8G13G19G23G27G10G28
   3282678.36049   2555516.25947  23638541.6464   23638538.9784
     -2019.2194
  -5830451.98949  -4532531.23048  21336599.4034   21336596.2124
      1250.5164
   5077389.69049   3948786.28748  21184914.6614   21184910.8684
     -2353.7034
  -4700356.70049  -3651522.84847  22740347.2554   22740341.3804
       398.4844
  12132956.28549   9429059.83747  24081242.1694   24081239.3294
     -3870.5624
  -1577797.73149  -1231250.47548  20995224.5914   20995220.6264
       103.4844
  -2886205.80749  -2248306.87847  23654596.7314   23654594.0754
       516.7974
  -6614711.69349  -5150532.57447  23058453.2944   23058449.6814
      2506.3914
 04  9 14 21 54 15.0010000  0  8G 3G 8G13G19G23G27G10G28
   3313030.33449   2579167.09947  23644317.5214   23644315.3804
     -2027.6254
  -5849185.60849  -4547128.85948  21333034.5524   21333031.3534
      1247.3914
   5112750.20949   3976339.92148  21191643.3564   21191640.0564
     -2360.9534
  -4706268.66749  -3656129.58447  22739221.4034   22739217.6884
       389.9064
  12191033.67949   9474314.90647  24092293.9664   24092290.8964
     -3873.1724
  -1579329.31249  -1232443.92248  20994933.0754   20994928.9974
       100.7664
  -2893889.07749  -2254293.86347  23653134.4584   23653132.1104
       507.7194
  -6652277.05049  -5179804.25547  23051304.7554   23051301.0014
      2502.3284
 04  9 14 21 54 30.0010000  0  8G 3G 8G13G19G23G27G10G28
   3343513.21449   2602920.00747  23650118.2394   23650115.9974
     -2036.2664
  -5867866.39249  -4561685.29848  21329479.2244   21329476.0954
      1243.9064
   5148225.10249   4003982.67648  21198394.2164   21198390.4814
     -2368.5004
  -4712044.99749  -3660630.60847  22738122.4114   22738118.4234
       380.8134
  12249156.60549   9519605.39747  24103354.1384   24103350.8254
     -3876.1564
  -1580814.04249  -1233600.85448  20994650.5914   20994646.2044
        97.6414
  -2901428.94149  -2260169.04647  23651700.2004   23651698.2124
       498.1414
  -6689774.73849  -5209023.21147  23044168.9424   23044165.3294
      2497.8754
 04  9 14 21 54 45.0010000  0  8G 3G 8G13G19G23G27G10G28
   3374125.40349   2626773.60947  23655943.4584   23655941.3064
     -2045.4694
  -5886495.86549  -4576201.77348  21325934.3964   21325931.2434
      1239.8914
   5183812.74549   4031713.28448  21205166.4744   21205162.6384
     -2376.6254
  -4717686.87949  -3665026.87947  22737049.1854   22737044.0874
       371.3284
  12307323.43349   9564930.14647  24114423.1774   24114419.8684
     -3879.5474
  -1582253.37649  -1234722.42248  20994376.7314   20994372.7164
        94.0944
  -2908826.73649  -2265933.56847  23650292.6144   23650290.4784
       488.1094
  -6727206.21649  -5238190.57347  23037045.7084   23037041.7244
      2492.8914
 04  9 14 21 55  0.0010000  0  8G 3G 8G13G19G23G27G10G28
   3404865.28649   2650726.74947  23661791.9504   23661791.0404
     -2053.3754
  -5905075.22549  -4590679.18548  21322399.1384   21322395.9854
      1237.1094
   5219511.62249   4059530.58548  21211959.5134   21211956.2204
     -2383.4374
  -4723195.60849  -3669319.39047  22736000.4814   22735996.4784
       362.9534
  12365532.53349   9610287.79547  24125500.4584   24125496.9894
     -3881.9064
  -1583648.65349  -1235809.65748  20994111.2164   20994106.8964
        91.7034
  -2916083.76149  -2271588.39847  23648911.7714   23648909.1064
       479.2194
  -6764572.66949  -5267307.25947  23029935.0754   23029932.0874
      2489.0784
 04  9 14 21 55 15.0010000  0  8G 3G 8G13G19G23G27G10G28
   3435735.41249   2674781.38347  23667665.8884   23667665.9464
     -2062.2974
  -5923601.73049  -4605115.41448  21318873.5054   21318870.5174
      1233.2974
   5255324.45149   4087436.66748  21218774.4424   21218771.4234
     -2391.3754
  -4728568.26849  -3673505.88047  22734978.4744   22734974.2714
       353.6094
  12423786.49449   9655680.39447  24136585.3024   24136581.8924
     -3885.1724
  -1584996.98749  -1236860.30648  20993854.7004   20993850.5834
        88.3444
  -2923197.12249  -2277131.29847  23647558.0674   23647555.6264
       469.3754
  -6801871.15449  -5296370.98947  23022837.3414   23022834.2164
      2484.2194
 04  9 14 21 55 30.0010000  0  8G 3G 8G13G19G23G27G10G28
   3466739.99049   2698940.75447  23673566.4974   23673565.0564
     -2071.1564
  -5942070.81049  -4619506.89148  21315359.0754   21315355.6384
      1229.6094
   5291255.44949   4115434.83148  21225612.3104   21225608.4934
     -2399.0784
  -4733800.40949  -3677582.86747  22733982.4894   22733978.0604
       344.3754
  12482089.30049   9701111.11347  24147680.1614   24147676.2864
     -3888.2034
  -1586293.95249  -1237870.93148  20993607.7314   20993603.7084
        85.0784
  -2930162.53949  -2282558.88047  23646231.9354   23646230.1184
       459.6254
  -6839097.20049  -5325378.26247  23015753.2864   23015750.4034
      2479.6254
 04  9 14 21 55 45.0010000  0  8G 3G 8G13G19G23G27G10G28
   3497872.93049   2723200.15847  23679491.0914   23679489.0994
     -2079.7344
  -5960488.30549  -4633858.19848  21311854.5134   21311850.8844
      1226.1254
   5327298.45049   4143520.26248  21232470.7714   21232467.3104
     -2406.4844
  -4738897.65749  -3681554.75747  22733013.2084   22733007.9744
       335.3754
  12540434.98949   9746575.19447  24158783.1224   24158779.0134
     -3891.0944
  -1587545.37249  -1238846.06948  20993369.3254   20993365.7434
        81.9844
  -2936985.73149  -2287875.65547  23644934.1064   23644932.8604
       450.2194
  -6876256.50849  -5354333.54247  23008681.8494   23008678.7944
      2475.1414
 04  9 14 21 56  0.0010000  0  8G 3G 8G13G19G23G27G10G28
   3529133.91349   2747559.36047  23685440.8644   23685438.6814
     -2088.4374
  -5978854.27949  -4648169.33348  21308359.2554   21308356.0834
      1222.6414
   5363453.29549   4171692.85648  21239350.8724   21239347.4894
     -2414.1414
  -4743859.97649  -3685421.49747  22732068.9274   22732063.8534
       326.2504
  12598823.20949   9792072.45547  24169895.2634   24169890.3724
     -3894.0624
  -1588751.36849  -1239785.80148  20993140.1534   20993136.1304
        78.7974
  -2943666.81049  -2293081.67747  23643662.5214   23643660.4974
       440.5944
  -6913349.04249  -5383236.78647  23001624.2714   23001620.0284
      2470.4064
 04  9 14 21 56 15.0010000  0  8G 3G 8G13G19G23G27G10G28
   3560521.03549   2772016.85947  23691413.0214   23691411.3724
     -2096.4374
  -5997170.51349  -4662441.71848  21304873.9194   21304870.4354
      1219.6564
   5399718.42249   4199951.38248  21246251.9814   21246248.4744
     -2421.1414
  -4748688.88349  -3689184.27947  22731148.9354   22731145.2394
       317.5944
  12657251.98849   9837601.30747  24181013.1854   24181009.8064
     -3896.4534
  -1589913.49149  -1240691.36248  20992918.8884   20992915.1264
        76.2034
  -2950207.30649  -2298178.17647  23642417.6534   23642416.0404
       431.5004
  -6950376.33649  -5412089.19147  22994577.5834   22994574.4034
      2466.5004
 04  9 14 21 56 30.0010000  0  8G 3G 8G13G19G23G27G10G28
   3592033.79549   2796572.23047  23697408.8254   23697407.8644
     -2105.1414
  -6015437.33949  -4676675.61248  21301397.7714   21301394.3564
      1216.0784
   5436093.26149   4228295.38648  21253174.2864   21253170.0634
     -2428.6874
  -4753384.69649  -3692843.34347  22730255.9744   22730251.9034
       308.5314
  12715720.75549   9883161.24047  24192138.7944   24192136.1614
     -3899.2814
  -1591032.04149  -1241562.96248  20992706.3564   20992702.2514
        73.0474
  -2956607.49249  -2303165.35347  23641200.1534   23641198.4314
       421.9384
  -6987338.50749  -5440890.85547  22987543.9504   22987541.1494
      2461.9224
 04  9 14 21 56 45.0010000  0  8G 3G 8G13G19G23G27G10G28
   3623676.57449   2821228.91347  23703431.9814   23703429.4154
     -2113.9374
  -6033649.89949  -4690867.21548  21297932.2314   21297928.7164
      1212.2504
   5472582.23149   4256728.33248  21260117.7394   21260113.7714
     -2436.5004
  -4757942.56749  -3696394.93847  22729388.5524   22729384.2824
       299.2344
  12774233.89349   9928755.82647  24203273.6064   24203270.9974
     -3902.4374
  -1592102.49549  -1242397.08648  20992502.5134   20992498.6184
        69.7344
  -2962862.86949  -2308039.65547  23640009.6694   23640007.3534
       412.0474
  -7024230.97949  -5469638.22047  22980523.5054   22980519.6304
      2457.1094
 04  9 14 21 57  0.0010000  0  8G 3G 8G13G19G23G27G10G28
   3655445.71349   2845984.06347  23709476.6064   23709475.7944
     -2121.9224
  -6051811.67249  -4705019.23348  21294475.6614   21294472.6814
      1209.3444
   5509181.72849   4285247.40848  21267082.2394   21267079.0054
     -2443.3914
  -4762365.75449  -3699841.58247  22728546.7394   22728542.2164
       290.6094
  12832787.74449   9974382.12847  24214416.7314   24214413.4424
     -3904.7194
  -1593128.07949  -1243196.24048  20992307.2634   20992303.3804
        67.0474
  -2968976.71749  -2312803.67647  23638845.7634   23638844.1734
       403.1254
  -7061056.97649  -5498333.77147  22973515.9034   22973512.5564
      2453.0784
 04  9 14 21 57 15.0010000  0  8G 3G 8G13G19G23G27G10G28
   3687341.21249   2870837.66147  23715545.4744   23715544.2434
     -2130.9374
  -6069922.35749  -4719131.45348  21291029.0834   21291026.4354
      1205.3594
   5545891.82049   4313852.66048  21274067.9194   21274063.8454
     -2451.2974
  -4766653.93349  -3703183.01447  22727731.0284   22727726.0754
       281.0474
  12891382.28249  10020040.13147  24225567.3174   24225563.4424
     -3907.9374
  -1594108.56049  -1243960.26348  20992120.8724   20992116.7474
        63.5314
  -2974948.71049  -2317457.20047  23637709.6534   23637707.9894
       393.0784
  -7097816.03949  -5526977.18147  22966520.6924   22966517.5134
      2448.0474
 04  9 14 21 57 30.0010000  0  8G 3G 8G13G19G23G27G10G28
   3719367.54349   2895793.23247  23721640.4664   23721638.1494
     -2139.5784
  -6087977.49449  -4733200.38648  21287593.7164   21287590.8254
      1201.8134
   5582717.09449   4342547.66148  21281075.6064   21281072.1104
     -2458.9694
  -4770802.35849  -3706415.54047  22726941.0284   22726936.2514
       271.8914
  12950021.91949  10065733.28747  24236726.2004   24236722.4154
     -3910.8124
  -1595039.35549  -1244685.54948  20991943.5364   20991939.5014
        60.3594
  -2980774.33849  -2321996.64547  23636601.3644   23636598.7044
       383.4064
  -7134503.57549  -5555564.83347  22959539.9194   22959536.1224
      2443.3594
 04  9 14 21 57 45.0010000  0  8G 3G 8G13G19G23G27G10G28
   3751524.41049   2920850.52147  23727760.1694   23727757.6614
     -2148.6724
  -6105976.87749  -4747225.88148  21284168.4504   21284165.5364
      1197.6094
   5619657.39849   4371332.29348  21288105.2634   21288101.9154
     -2467.0314
  -4774810.96549  -3709539.13947  22726177.8884   22726174.5604
       262.0474
  13008706.40749  10111461.38047  24247893.5524   24247889.8964
     -3914.2664
  -1595920.26549  -1245371.97448  20991775.5914   20991771.9274
        56.5944
  -2986453.45449  -2326421.92047  23635520.9114   23635518.4544
       373.1564
  -7171119.43449  -5584096.66047  22952571.7314   22952568.7944
      2438.2034
 04  9 14 21 58  0.0010000  0  8G 3G 8G13G19G23G27G10G28
   3783812.61749   2946010.14147  23733904.3884   23733902.4664
     -2156.5314
  -6123919.22049  -4761206.92648  21280754.4664   21280750.9424
      1194.5474
   5656713.72149   4400207.32948  21295156.9584   21295153.3494
     -2473.9374
  -4778678.39849  -3712552.72747  22725442.8494   22725438.1264
       253.4694
  13067436.62049  10157225.11847  24259069.6774   24259065.6464
     -3916.6094
  -1596750.28949  -1246018.75448  20991617.9504   20991614.1344
        53.9694
  -2991984.91849  -2330732.15147  23634467.7634   23634465.9854
       364.1724
  -7207662.34449  -5612571.62147  22945617.4974   22945614.8644
      2434.0314
 04  9 14 21 58 15.0010000  0  8G 3G 8G13G19G23G27G10G28
   3816224.39349   2971266.06147  23740072.1774   23740070.8024
     -2165.1094
  -6141812.04149  -4775149.37448  21277349.7864   21277346.6034
      1190.9384
   5693878.24249   4429166.66848  21302229.0364   21302224.9504
     -2481.4374
  -4782412.05649  -3715462.07447  22724732.9354   22724727.9934
       244.3134
  13126204.73949  10203018.37747  24270252.5674   24270248.6774
     -3919.2814
  -1597536.67449  -1246631.52548  20991468.4424   20991464.7554
        50.7504
  -2997376.21949  -2334933.16047  23633441.9034   23633439.8024
       354.5314
  -7244139.68849  -5640995.50347  22938675.9194   22938673.3214
      2429.4064
 04  9 14 21 58 30.0010000  0  8G 3G 8G13G19G23G27G10G28
   3848764.40249   2996621.89147  23746264.2784   23746262.4314
     -2173.2664
  -6159650.49649  -4789049.45248  21273955.0134   21273951.5564
      1187.7814
   5731155.77149   4458214.09548  21309322.3644   21309318.8684
     -2488.5944
  -4786006.98349  -3718263.30847  22724047.8644   22724044.3134
       235.3754
  13185015.47849  10248844.85947  24281443.4584   24281440.2904
     -3921.8754
  -1598274.80549  -1247206.68848  20991328.1854   20991324.6654
        47.9064
  -3002622.50949  -2339021.16447  23632443.0054   23632441.2904
       345.2194
  -7280546.52049  -5669364.42947  22931747.7164   22931744.8294
      2425.1564
 04  9 14 21 58 45.0010000  0  8G 3G 8G13G19G23G27G10G28
   3881430.77749   3022076.21647  23752480.5284   23752478.5324
     -2181.5164
  -6177436.15549  -4802908.40848  21270570.4114   21270567.1064
      1184.4224
   5768544.36649   4487348.03948  21316437.3254   21316433.8884
     -2495.7974
  -4789464.78649  -3720957.70547  22723390.4354   22723385.3844
       226.4384
  13243866.86949  10294702.96647  24292643.5284   24292640.1104
     -3924.2344
  -1598966.23149  -1247745.46748  20991196.2714   20991192.2634
        44.9694
  -3007725.40249  -2342997.45347  23631472.4974   23631470.5994
       335.9224
  -7316884.39549  -5697679.63647  22924833.5834   22924830.7084
      2420.7504
 04  9 14 21 59  0.0010000  0  8G 3G 8G13G19G23G27G10G28
   3914223.20149   3047628.74247  23758720.4744   23758718.7674
     -2190.0314
  -6195169.01549  -4816726.21448  21267195.9354   21267192.9274
      1180.8134
   5806043.83949   4516568.38348  21323573.2394   21323569.8064
     -2503.3754
  -4792785.40949  -3723545.20847  22722758.5444   22722753.8254
       217.0784
  13302758.50449  10340592.50047  24303849.9504   24303846.7904
     -3927.0944
  -1599610.97549  -1248247.86748  20991073.5834   20991069.8844
        41.7344
  -3012685.01349  -2346862.07847  23630529.2944   23630526.8024
       326.2344
  -7353153.42249  -5725941.19347  22917931.7084   22917928.7394
      2415.9694
 04  9 14 21 59 15.0010000  0  8G 3G 8G13G19G23G27G10G28
   3947138.49849   3073277.00747  23764983.4974   23764982.0754
     -2198.3594
  -6212852.30749  -4830505.39548  21263831.1464   21263827.4854
      1177.3754
   5843650.92849   4545872.59348  21330729.7004   21330726.3924
     -2510.5944
  -4795971.81549  -3726028.13347  22722152.3174   22722147.7554
       208.0474
  13361687.16849  10386510.86547  24315064.3964   24315060.8214
     -3929.6874
  -1600212.04749  -1248716.23148  20990959.3564   20990955.1654
        38.8134
  -3017504.31749  -2350617.38247  23629611.3964   23629609.4114
       316.7344
  -7389356.39149  -5754151.27047  22911042.5834   22911039.0404
      2411.3914
 04  9 14 21 59 30.0010000  0  7G 3G 8G13G19G27G10G28
   3980179.07349   3099022.88947  23771271.3494   23771269.4034
     -2206.7194
  -6230483.31549  -4844243.83848  21260475.7944   21260472.2634
      1173.7034
   5881368.21849   4575262.66748  21337907.1924   21337903.6184
     -2518.1564
  -4799021.28849  -3728404.32447  22721571.7944   22721566.5404
       198.7194
  -1600766.72849  -1249148.45848  20990853.4664   20990850.2594
        35.4224
  -3022180.72949  -2354261.32847  23628721.5054   23628719.6614
       307.0944
  -7425490.49449  -5782307.68947  22904166.2004   22904162.9934
      2406.6724
 04  9 14 21 59 45.0010000  0  7G 3G 8G13G19G27G10G28
   4013347.64349   3124868.49047  23777583.2714   23777581.4034
     -2215.3594
  -6248058.79749  -4857939.01248  21257131.4194   21257128.2314
      1170.0634
   5919198.66649   4604740.92748  21345105.9744   21345102.7244
     -2525.5624
  -4801930.50849  -3730671.24247  22721018.0444   22721012.7084
       189.5164
  -1601271.81149  -1249542.02748  20990757.1854   20990753.3534
        32.1884
  -3026711.07049  -2357791.47947  23627859.8964   23627857.4384
       297.4064
  -7461552.50649  -5810407.93447  22897303.9194   22897300.8724
      2401.9534
 04  9 14 22  0  0.0010000  0  7G 3G 8G13G19G27G10G28
   4046643.09449   3150812.99347  23783919.5284   23783916.8174
     -2223.7344
  -6265579.47449  -4871591.48548  21253797.0134   21253793.9504
      1166.3754
   5957141.24049   4634306.54848  21352326.3564   21352322.7744
     -2532.9844
  -4804700.23449  -3732829.47447  22720491.3254   22720486.4234
       180.1564
  -1601728.32649  -1249897.76548  20990670.6224   20990666.8024
        28.9384
  -3031096.19449  -2361208.45847  23627024.9354   23627022.5674
       287.5944
  -7497543.25849  -5838452.66347  22890454.9194   22890451.6384
      2397.1724
 04  9 14 22  0 15.0010000  0  7G 3G 8G13G19G27G10G28
   4080062.09649   3176853.73547  23790278.5284   23790277.5214
     -2232.2344
  -6283048.55249  -4885203.74548  21250473.0834   21250470.1534
      1162.7504
   5995192.57549   4663956.91648  21359567.1304   21359563.5634
     -2540.4534
  -4807333.57049  -3734881.41847  22719990.0524   22719985.0484
       170.8754
  -1602139.22149  -1250217.95248  20990592.6774   20990588.6064
        25.7034
  -3035339.36649  -2364514.81347  23626217.1924   23626215.4544
       277.9844
  -7533465.76849  -5866444.21747  22883619.5054   22883615.9384
      2392.4224
 04  9 14 22  0 30.0010000  0  7G 3G 8G13G19G27G10G28
   4113604.48949   3202990.64547  23796660.9114   23796659.5874
     -2240.5164
  -6300466.06249  -4898775.83548  21247158.8724   21247155.0994
      1159.2034
   6033352.57949   4693691.95948  21366828.5834   21366824.9664
     -2547.8284
  -4809830.24549  -3736826.90147  22719514.9664   22719510.9744
       161.6884
  -1602504.50849  -1250502.59248  20990523.1064   20990518.9974
        22.6884
  -3039440.28649  -2367710.32647  23625436.9424   23625435.0094
       268.3594
  -7569319.91749  -5894382.48547  22876796.1224   22876793.0094
      2387.7034
 04  9 14 22  0 45.0010000  0  7G 3G 8G13G19G27G10G28
   4147269.95949   3229223.45247  23803068.0674   23803066.1534
     -2248.3124
  -6317831.79649  -4912307.56148  21243853.6384   21243850.8024
      1156.0784
   6071620.94449   4723511.44948  21374111.0674   21374107.3104
     -2554.7194
  -4812190.26749  -3738665.87347  22719065.9424   22719061.7594
       152.8134
  -1602824.03649  -1250751.57148  20990462.3494   20990458.5444
        19.8914
  -3043399.18749  -2370795.18647  23624683.7084   23624681.9234
       259.3444
  -7605105.60049  -5922267.40247  22869986.8564   22869983.5244
      2383.5474
 04  9 14 22  1  0.0010000  0  7G 3G 8G13G19G27G10G28
   4181061.68749   3255554.66747  23809498.0214   23809496.1534
     -2257.1254
  -6335142.56149  -4925796.46248  21240559.7784   21240556.7004
      1152.0944
   6110001.07149   4753418.02448  21381414.3334   21381410.9504
     -2562.5474
  -4814410.14749  -3740395.64347  22718643.3884   22718638.7434
       143.1884
  -1603094.47449  -1250962.31248  20990410.4974   20990406.9464
        16.2814
  -3047212.60649  -2373766.65847  23623957.8494   23623955.8374
       249.3444
  -7640819.28449  -5950096.22047  22863190.4034   22863187.6144
      2378.3594
 04  9 14 22  1 15.0010000  0  7G 3G 8G13G19G27G10G28
   4214979.83749   3281984.38347  23815952.7164   23815950.5994
     -2265.4374
  -6352397.55349  -4939241.91348  21237276.5754   21237273.2514
      1148.4064
   6148493.18949   4783411.86148  21388739.6064   21388735.6224
     -2569.8914
  -4816489.27249  -3742015.73947  22718248.1534   22718242.8174
       133.8284
  -1603315.35449  -1251134.42048  20990368.9034   20990365.1144
        13.0314
  -3050879.99649  -2376624.36347  23623260.3104   23623258.2864
       239.5004
  -7676460.49749  -5977868.57447  22856408.2864   22856405.1264
      2373.5944
 04  9 14 22  1 30.0010000  0  7G 3G 8G13G19G27G10G28
   4249025.16049   3308513.18147  23822431.6694   23822429.4194
     -2273.7814
  -6369595.84049  -4952643.16948  21234003.5914   21234000.3764
      1144.7974
   6187098.19849   4813493.66548  21396085.7714   21396082.0604
     -2577.2344
  -4818426.39249  -3743525.17947  22717879.2634   22717874.3024
       124.6254
  -1603485.52049  -1251267.02248  20990336.1304   20990332.5604
         9.7974
  -3054400.34149  -2379367.48947  23622590.7714   23622588.7554
       230.0314
  -7712027.76949  -6005583.31447  22849639.8804   22849636.6534
      2368.8754
 04  9 14 22  1 45.0010000  0  7G 3G 8G13G19G27G10G28
   4283194.67049   3335138.73847  23828933.3024   23828932.3334
     -2282.3124
  -6386740.35349  -4966002.51348  21230741.0604   21230737.7554
      1140.9844
   6225813.02749   4843661.04448  21403452.9034   21403449.3064
     -2584.8124
  -4820224.40349  -3744926.21947  22717536.9354   22717531.9854
       115.0474
  -1603607.69849  -1251362.22948  20990312.8724   20990309.4974
         6.3754
  -3057776.46349  -2381998.23047  23621947.9974   23621945.8684
       220.0634
  -7747524.10449  -6033242.76647  22842885.2864   22842882.2474
      2363.7974
 04  9 14 22  2  0.0010000  0  7G 3G 8G13G19G27G10G28
   4317490.05349   3361862.40247  23835459.3804   23835457.9894
     -2290.5624
  -6403828.96849  -4979318.31048  21227489.2004   21227486.1034
      1137.4384
   6264639.60849   4873915.50348  21410841.3494   21410837.9074
     -2592.1254
  -4821881.18749  -3746217.21747  22717221.4274   22717216.5634
       105.7034
  -1603679.87949  -1251418.47148  20990299.1614   20990295.7514
         3.1414
  -3061006.29849  -2384514.96547  23621333.6224   23621331.0484
       210.4384
  -7782947.27449  -6060845.21347  22836144.3174   22836141.5134
      2359.1414
 04  9 14 22  2 15.0010000  0  7G 3G 8G13G19G27G10G28
   4351907.24649   3388680.98147  23842009.7634   23842007.5214
     -2298.6414
  -6420865.35549  -4992593.41748  21224247.1774   21224244.0834
      1133.9534
   6303573.74149   4904253.77048  21418250.4814   21418246.9784
     -2599.3124
  -4823400.59049  -3747401.18648  22716932.8174   22716927.5564
        96.5634
  -1603706.08249  -1251438.88748  20990294.2944   20990290.1694
         0.1414
  -3064093.87349  -2386920.87447  23620746.9814   23620743.7004
       201.1724
  -7818301.09049  -6088393.61647  22829416.4974   22829413.7314
      2354.4694
 04  9 14 22  2 30.0010000  0  7G 3G 8G13G19G27G10G28
   4386448.59649   3415596.30647  23848582.4894   23848580.6224
     -2307.2974
  -6437847.10049  -5005825.94648  21221015.7634   21221012.2784
      1129.7814
   6342617.98349   4934677.83248  21425680.3414   21425676.7244
     -2607.0624
  -4824779.86949  -3748475.94347  22716670.2864   22716665.7744
        86.8284
  -1603683.43549  -1251421.24548  20990298.5284   20990295.0914
        -3.6874
  -3067036.60349  -2389213.90647  23620186.0364   23620183.8684
       190.8914
  -7853583.00149  -6115885.97947  22822702.8494   22822699.4074
      2349.2664
 04  9 14 22  2 45.0010000  0  7G 3G 8G13G19G27G10G28
   4421115.18949   3442609.24147  23855179.4114   23855177.4384
     -2315.4224
  -6454772.58149  -5019014.61648  21217794.9274   21217792.0094
      1126.3914
   6381773.56249   4965188.65748  21433131.0914   21433128.2824
     -2614.2194
  -4826017.42149  -3749440.23847  22716435.3804   22716429.9664
        77.6884
  -1603610.62349  -1251364.50948  20990312.8104   20990308.7284
        -6.6724
  -3069833.07749  -2391392.96647  23619653.4894   23619651.2744
       181.4384
  -7888791.35949  -6143321.04347  22816003.0214   22815999.5094
      2344.6414
 04  9 14 22  3  0.0010000  0  7G 3G 8G13G19G27G10G28
   4455909.31749   3469721.53247  23861799.4744   23861797.8494
     -2323.8914
  -6471639.30749  -5032157.51748  21214585.4424   21214581.9354
      1122.4224
   6421042.71149   4995787.96648  21440604.1144   21440600.1884
     -2621.7974
  -4827110.73849  -3750292.18347  22716226.6464   22716221.3454
        68.0314
  -1603485.09949  -1251266.70248  20990336.6774   20990332.6734
       -10.1414
  -3072480.79849  -2393456.12547  23619150.3024   23619147.7784
       171.5164
  -7923923.60349  -6170696.80347  22809317.2784   22809314.0014
      2339.5314
 04  9 14 22  3 15.0010000  0  7G 3G 8G13G19G27G10G28
   4490823.98749   3496927.75447  23868443.3564   23868442.6654
     -2331.2504
  -6488453.85949  -5045259.75448  21211385.6924   21211382.2124
      1119.4844
   6460418.62249   5026470.48648  21448096.9744   21448093.5524
     -2628.3594
  -4828066.39249  -3751036.84147  22716044.5674   22716040.1924
        59.4224
  -1603313.44749  -1251132.94448  20990369.0364   20990365.0364
       -12.7194
  -3074986.33649  -2395408.48547  23618673.6144   23618671.2124
       162.5164
  -7958986.27749  -6198018.33047  22802644.7864   22802641.9854
      2335.4534
 04  9 14 22  3 30.0010000  0  7G 3G 8G13G19G27G10G28
   4525856.81849   3524226.04547  23875110.8804   23875109.6424
     -2339.4064
  -6505218.62649  -5058323.21348  21208195.4034   21208191.9314
      1116.0164
   6499898.92249   5057234.32148  21455610.1464   21455606.2354
     -2635.5004
  -4828886.54549  -3751675.92048  22715888.5524   22715884.4624
        50.1724
  -1603097.88049  -1250964.98248  20990410.1774   20990405.8604
       -15.8284
  -3077351.95849  -2397251.81847  23618222.8564   23618221.0244
       153.0164
  -7993981.44249  -6225287.26647  22795985.6064   22795982.4744
      2330.7034
 04  9 14 22  3 45.0010000  0  7G 3G 8G13G19G27G10G28
   4561005.90549   3551614.92247  23881799.2394   23881797.5054
     -2347.3124
  -6521934.98149  -5071348.93348  21205014.3564   21205010.8604
      1112.5944
   6539481.91349   5088078.19548  21463142.2474   21463138.6534
     -2642.5314
  -4829572.67549  -3752210.56048  22715757.7944   22715753.8684
        41.0314
  -1602839.83149  -1250763.90448  20990459.0754   20990455.2634
       -18.7974
  -3079579.14349  -2398987.28947  23617798.6224   23617797.4504
       143.6564
  -8028910.57149  -6252504.74947  22789338.7714   22789335.5284
      2326.2034
 04  9 14 22  4  0.0010000  0  7G 3G 8G13G19G27G10G28
   4596276.69449   3579098.66147  23888511.2864   23888509.1654
     -2355.5164
  -6538597.13749  -5084332.42648  21201843.7314   21201839.9194
      1108.9694
   6579173.16449   5119006.42948  21470695.4744   21470691.5364
     -2649.7664
  -4830118.87749  -3752636.17048  22715653.7394   22715649.6464
        31.6564
  -1602533.60849  -1250525.28348  20990517.6694   20990513.5404
       -22.0784
  -3081662.21649  -2400610.44847  23617402.9584   23617401.2394
       134.0314
  -8063767.84949  -6279666.23747  22782706.1924   22782702.2594
      2321.3284
 04  9 14 22  4 15.0010000  0  7G 3G 8G13G19G27G10G28
   4631669.49649   3606677.47747  23895246.1614   23895243.9854
     -2363.5474
  -6555204.51349  -5097273.22348  21198683.1924   21198679.9664
      1105.5004
   6618972.92149   5150019.20948  21478268.6304   21478265.2314
     -2656.7664
  -4830524.70349  -3752952.37348  22715577.2394   22715572.3994
        22.5314
  -1602178.72249  -1250248.74548  20990585.1614   20990581.5604
       -25.1094
  -3083600.77149  -2402120.99847  23617034.9814   23617031.8134
       124.6094
  -8098552.71649  -6306771.28547  22776086.1384   22776083.3564
      2316.6414
 04  9 14 22  4 30.0010000  0  7G 3G 8G13G19G27G10G28
   4667181.49849   3634349.12847  23902003.0524   23902002.8064
     -2371.5314
  -6571759.72149  -5110173.38148  21195532.8494   21195529.9934
      1101.8594
   6658878.34549   5181114.32548  21485862.8644   21485859.3454
     -2663.9534
  -4830792.65449  -3753161.18448  22715525.4894   22715520.7944
        13.1094
  -1601777.67749  -1249936.23548  20990661.2554   20990657.9974
       -28.3594
  -3085397.40949  -2403520.97347  23616691.7474   23616690.3724
       114.8914
  -8133267.66649  -6333821.88047  22769480.0524   22769477.0404
      2311.8914
 04  9 14 22  4 45.0010000  0  7G 3G 8G13G19G27G10G28
   4702812.39549   3662113.45347  23908784.4504   23908783.2634
     -2379.2504
  -6588262.92849  -5123033.01648  21192392.2634   21192389.5284
      1098.5634
   6698889.39249   5212291.74048  21493476.4664   21493473.1184
     -2670.8284
  -4830922.60449  -3753262.42348  22715500.6924   22715496.2554
         4.1564
  -1601330.40849  -1249587.71548  20990746.1614   20990742.4274
       -31.3124
  -3087052.15749  -2404810.38347  23616376.6224   23616375.6924
       105.7034
  -8167912.57749  -6360817.87047  22762887.6694   22762884.9584
      2307.4534
 04  9 14 22  5  0.0010000  0  7G 3G 8G13G19G27G10G28
   4738563.16749   3689971.16647  23915587.2474   23915586.1034
     -2387.0314
  -6604712.39849  -5135850.77948  21189262.3884   21189259.1104
      1095.0784
   6739007.14349   5243552.30148  21501110.4744   21501107.2244
     -2677.8444
  -4830913.12849  -3753255.05347  22715503.4424   22715498.0564
        -4.9844
  -1600835.60549  -1249202.15648  20990840.7314   20990836.6104
       -34.2504
  -3088563.77349  -2405988.27947  23616089.2314   23616087.3604
        96.2974
  -8202485.92649  -6387758.14147  22756308.7944   22756306.0014
      2302.7664
 04  9 14 22  5 15.0010000  0  7G 3G 8G13G19G27G10G28
   4774433.83749   3717922.34247  23922413.3564   23922412.1184
     -2395.0314
  -6621107.91249  -5148626.50748  21186142.3494   21186138.9894
      1091.5164
   6779231.69549   5274896.09448  21508765.2474   21508761.7084
     -2684.8594
  -4830763.93849  -3753138.78747  22715531.7784   22715526.7314
       -14.2504
  -1600292.76749  -1248779.18148  20990944.3104   20990940.0214
       -37.5004
  -3089931.88249  -2407054.34247  23615829.3884   23615827.0484
        86.6414
  -8236987.46049  -6414642.42047  22749743.1464   22749740.1964
      2298.0314
 04  9 14 22  5 30.0010000  0  7G 3G 8G13G19G27G10G28
   4810424.09749   3745966.66347  23929261.7244   23929259.8844
     -2403.1564
  -6637449.68649  -5161360.35048  21183032.6694   21183029.2594
      1087.8284
   6819562.69949   5306322.82848  21516440.1774   21516436.1814
     -2692.2194
  -4830474.94949  -3752913.60148  22715586.7634   22715581.7204
       -23.8594
  -1599702.14249  -1248318.95648  20991056.0914   20991052.6104
       -40.8754
  -3091156.64049  -2408008.72047  23615596.3494   23615593.7434
        76.9534
  -8271417.18549  -6441470.75847  22743191.9504   22743188.5634
      2292.9694
 04  9 14 22  5 45.0010000  0  7G 3G 8G13G19G27G10G28
   4846532.10849   3774102.76347  23936133.9274   23936131.5564
     -2410.6724
  -6653739.28249  -5174053.52848  21179932.4744   21179929.2394
      1084.6254
   6859998.29549   5337831.06348  21524134.7944   21524130.8964
     -2698.7974
  -4830047.87449  -3752580.82048  22715668.1384   22715662.7984
       -32.6564
  -1599065.38449  -1247822.77348  20991177.7634   20991174.2354
       -43.5784
  -3092239.81249  -2408852.73147  23615390.2394   23615387.6384
        67.9224
  -8305776.61849  -6468244.32447  22736652.8254   22736649.7394
      2288.7194
 04  9 14 22  6  0.0010000  0  7G 3G 8G13G19G27G10G28
   4882754.31249   3802327.82647  23943026.0364   23943024.4194
     -2418.6094
  -6669979.74549  -5186708.43948  21176842.5134   21176838.8494
      1081.1094
   6900535.19849   5369418.24048  21531848.4664   21531845.1964
     -2705.7974
  -4829485.72149  -3752142.77547  22715774.2004   22715769.8454
       -42.0164
  -1598385.50549  -1247292.99248  20991306.8024   20991302.8684
       -46.7194
  -3093184.49249  -2409588.85447  23615209.8564   23615208.0174
        58.2504
  -8340068.72149  -6494965.42447  22730127.5054   22730124.4314
      2283.8594
 04  9 14 22  6 15.0010000  0  7G 3G 8G13G19G27G10G28
   4919091.46349   3830642.47747  23949940.9584   23949939.8844
     -2426.5474
  -6686169.87549  -5199324.11248  21173761.1924   21173757.8374
      1077.4224
   6941174.35449   5401085.10048  21539581.5834   21539578.4154
     -2712.9224
  -4828787.33849  -3751598.57047  22715907.0054   22715902.6814
       -51.4064
  -1597661.36249  -1246728.72248  20991444.4354   20991440.5404
       -50.0164
  -3093989.63049  -2410216.21447  23615056.4814   23615054.6924
        48.6564
  -8374292.62149  -6521633.36447  22723614.3414   22723611.5094
      2279.0314
 04  9 14 22  6 30.0010000  0  7G 3G 8G13G19G27G10G28
   4955548.65849   3859050.66247  23956878.0214   23956876.6854
     -2434.2974
  -6702304.76149  -5211896.75448  21170690.9034   21170687.4074
      1073.9694
   6981920.59449   5432835.38848  21547335.8024   21547332.2714
     -2719.8754
  -4827947.58049  -3750944.20548  22716067.1534   22716062.5134
       -60.5314
  -1596887.85549  -1246126.00948  20991591.9194   20991588.1574
       -53.0004
  -3094650.15849  -2410730.90947  23614931.4504   23614928.7124
        39.3284
  -8408442.93649  -6548243.98147  22717116.1694   22717112.9234
      2274.3914
 04  9 14 22  6 45.0010000  0  7G 3G 8G13G19G27G10G28
   4992122.36349   3887549.67447  23963837.4354   23963836.5564
     -2442.2504
  -6718387.42549  -5224428.69748  21167630.7864   21167627.4504
      1070.2664
   7022770.74349   5464666.65748  21555109.3494   21555105.2744
     -2726.9224
  -4826969.39549  -3750181.99148  22716253.6854   22716249.0094
       -69.9694
  -1596067.94249  -1245487.11448  20991747.6854   20991744.0244
       -56.2814
  -3095169.09449  -2411135.26747  23614832.3174   23614830.4114
        29.7664
  -8442522.60149  -6574799.53847  22710630.9814   22710628.0364
      2269.4844
 04  9 14 22  7  0.0010000  0  7G 3G 8G13G19G27G10G28
   5028808.79249   3916136.44847  23970817.9894   23970817.9894
     -2449.7034
  -6734421.22949  -5236922.56648  21164579.4974   21164576.2434
      1067.2194
   7063720.96949   5496575.90348  21562901.8334   21562898.6534
     -2733.3754
  -4825856.39949  -3749314.70348  22716465.6924   22716460.6104
       -78.8914
  -1595205.16749  -1244814.81548  20991911.6924   20991908.3764
       -59.0474
  -3095550.09249  -2411432.14947  23614760.1924   23614757.8414
        20.6724
  -8476535.16949  -6601302.80547  22704158.4744   22704155.4154
      2265.1564
 04  9 14 22  7 15.0010000  0  7G 3G 8G13G19G27G10G28
   5065612.03249   3944814.29747  23977822.8964   23977821.6654
     -2457.4534
  -6750401.82449  -5249374.96948  21161538.4354   21161534.8564
      1063.5944
   7104775.53649   5528566.45248  21570714.2714   21570710.7204
     -2740.4224
  -4824604.09149  -3748338.88248  22716703.9974   22716699.0484
       -88.1564
  -1594295.17749  -1244105.73448  20992085.2244   20992081.4664
       -62.2504
  -3095788.78349  -2411618.15047  23614714.5364   23614712.2314
        11.1414
  -8510476.12549  -6627750.28847  22697699.7164   22697696.7124
      2260.3134
 04  9 14 22  7 30.0010000  0  7G 3G 8G13G19G27G10G28
   5102530.95849   3973582.25047  23984848.2714   23984847.0364
     -2465.0314
  -6766330.00749  -5261786.53848  21158507.2244   21158503.6304
      1060.2194
   7145933.32149   5560637.42648  21578546.4194   21578543.0914
     -2747.1874
  -4823213.16649  -3747255.05047  22716968.3414   22716963.4624
       -97.2814
  -1593338.69549  -1243360.42848  20992267.4114   20992263.0914
       -65.2814
  -3095886.17749  -2411694.03947  23614695.7634   23614693.5404
         2.0004
  -8544346.15449  -6654142.49047  22691254.4814   22691251.2594
      2255.7504
 04  9 14 22  7 45.0010000  0  7G 3G 8G13G19G27G10G28
   5139565.21349   4002440.12247  23991895.3494   23991893.8994
     -2472.7974
  -6782205.61049  -5274157.12048  21155486.0994   21155483.1184
      1056.5784
   7187194.13549   5592788.69248  21586397.8024   21586394.6734
     -2754.1564
  -4821683.64049  -3746063.19647  22717258.5914   22717254.6734
      -106.6414
  -1592335.73349  -1242578.89648  20992457.7944   20992454.4424
       -68.3914
  -3095842.23749  -2411659.79047  23614704.3804   23614702.4854
        -7.7034
  -8578145.27149  -6680479.44347  22684822.5994   22684819.4584
      2250.8594
 04  9 14 22  8  0.0010000  0  7G 3G 8G13G19G27G10G28
   5176712.89049   4031386.32947  23998964.4894   23998962.7554
     -2480.1724
  -6798030.43349  -5286488.14948  21152474.7864   21152471.8924
      1053.3914
   7228555.99749   5625018.69648  21594268.9584   21594265.3644
     -2760.7814
  -4820017.23349  -3744764.70347  22717576.3494   22717571.5364
      -115.5164
  -1591287.97549  -1241762.47148  20992657.4354   20992653.6774
       -71.2974
  -3095658.83949  -2411516.88147  23614739.3724   23614736.6884
       -16.7344
  -8611875.17849  -6706762.45747  22678404.2084   22678400.6534
      2246.3914
 04  9 14 22  8 15.0010000  0  7G 3G 8G13G19G27G10G28
   5213975.21149   4060421.86747  24006055.5054   24006053.4704
     -2487.8444
  -6813802.74149  -5298778.26048  21149473.4034   21149470.0484
      1049.8754
   7270020.31749   5657328.52748  21602159.4974   21602155.9814
     -2767.5474
  -4818212.36649  -3743358.31347  22717919.6304   22717915.4544
      -124.7344
  -1590193.82049  -1240909.87348  20992865.7784   20992862.0794
       -74.3444
  -3095334.27549  -2411263.97947  23614800.6064   23614799.1814
       -26.2664
  -8645534.11949  -6732990.18647  22671998.9814   22671995.7714
      2241.6414
 04  9 14 22  8 30.0010000  0  7G 3G 8G13G19G27G10G28
   5251353.38549   4089547.72147  24013168.0214   24013166.6654
     -2495.7974
  -6829521.53049  -5311026.65448  21146482.4584   21146479.0444
      1046.0474
   7311588.46849   5689719.27548  21610069.4354   21610065.7244
     -2774.7664
  -4816267.46949  -3741842.79748  22718289.7944   22718285.0634
      -134.4224
  -1589051.75949  -1240019.95648  20993082.8334   20993079.5444
       -77.8594
  -3094867.17649  -2410900.00847  23614890.0604   23614887.3064
       -36.0004
  -8679120.47349  -6759161.33647  22665608.0754   22665604.4194
      2236.6414
 04  9 14 22  8 45.0010000  0  7G 3G 8G13G19G27G10G28
   5288841.25249   4118759.00847  24020301.7864   24020300.6774
     -2503.3124
  -6845192.10549  -5323237.48848  21143500.3024   21143496.6924
      1042.5944
   7353254.26249   5722186.10248  21617998.2784   21617994.5994
     -2781.4534
  -4814188.29149  -3740222.66347  22718685.2004   22718680.3564
      -143.5624
  -1587867.61149  -1239097.24748  20993308.3564   20993304.7864
       -80.8284
  -3094263.52149  -2410429.60547  23615004.3174   23615002.2314
       -45.2974
  -8712640.10549  -6785280.51647  22659228.6304   22659225.5834
      2231.9694
 04  9 14 22  9  0.0010000  0  7G 3G 8G13G19G27G10G28
   5326444.60749   4148060.29547  24027458.4354   24027456.4584
     -2510.8914
  -6860808.14149  -5335405.82448  21140528.8964   21140525.5444
      1039.1414
   7395023.52049   5754733.55948  21625946.5994   21625943.3104
     -2788.1564
  -4811968.65149  -3738493.06748  22719107.8724   22719103.2904
      -152.7194
  -1586635.19449  -1238136.91648  20993542.4664   20993538.9544
       -83.9224
  -3093517.23349  -2409848.09247  23615146.7944   23615144.2244
       -54.6724
  -8746086.77949  -6811342.82847  22652864.0674   22652861.0214
      2227.2034
 04  9 14 22  9 15.0010000  0  7G 3G 8G13G19G27G10G28
   5364161.70749   4177450.24247  24034634.9814   24034633.9114
     -2518.0314
  -6876371.56949  -5347533.15948  21137566.8724   21137564.2784
      1036.0314
   7436894.72449   5787360.44848  21633914.3104   21633911.7944
     -2794.5784
  -4809610.13549  -3736655.25547  22719556.8804   22719552.4194
      -161.6874
  -1585355.98349  -1237140.12448  20993786.4664   20993782.6574
       -86.5784
  -3092629.90749  -2409156.68447  23615315.3884   23615312.3964
       -63.7034
  -8779461.98649  -6837349.45347  22646513.5674   22646510.2084
      2222.8754
 04  9 14 22  9 30.0010000  0  7G 3G 8G13G19G27G10G28
   5401989.22049   4206926.19147  24041833.7714   24041832.2164
     -2525.7814
  -6891885.25249  -5359621.73748  21134614.8564   21134611.2204
      1032.2504
   7478864.59549   5820064.22548  21641901.2864   21641897.9234
     -2801.5624
  -4807115.72149  -3734711.56547  22720030.8804   22720026.7744
      -171.1724
  -1584033.09349  -1236109.29848  20994038.1064   20994033.9074
       -90.0004
  -3091604.57949  -2408357.70247  23615510.8804   23615508.5364
       -73.2664
  -8812768.64349  -6863302.66547  22640175.2944   22640171.9584
      2217.8134
 04  9 14 22  9 45.0010000  0  7G 3G 8G13G19G27G10G28
   5439931.90149   4236491.92047  24049053.5914   24049052.4074
     -2533.2974
  -6907344.02349  -5371667.54048  21131673.0524   21131669.5754
      1028.8134
   7520938.05349   5852848.71348  21649907.6854   21649903.8804
     -2808.3124
  -4804480.21349  -3732657.91847  22720532.7004   22720528.1694
      -180.4064
  -1582661.25049  -1235040.34248  20994298.5134   20994295.1654
       -93.0624
  -3090436.21549  -2407447.29847  23615733.3964   23615730.8294
       -82.6094
  -8846001.60349  -6889198.45947  22633851.3724   22633847.6034
      2213.1564
 04  9 14 22 10  0.0010000  0  7G 3G 8G13G19G27G10G28
   5477994.76849   4266151.29347  24056296.7784   24056295.6384
     -2541.4534
  -6922742.70349  -5383666.50648  21128743.0284   21128739.9154
      1024.5314
   7563120.02049   5885717.75148  21657934.4194   21657930.8924
     -2815.7194
  -4801698.29749  -3730490.19247  22721062.1304   22721057.0794
      -190.2974
  -1581235.14149  -1233929.08748  20994570.7084   20994566.7634
       -96.9224
  -3089119.59949  -2406421.38047  23615983.9814   23615982.1614
       -92.6724
  -8879155.49249  -6915032.63047  22627542.2714   22627538.8884
      2207.6884
 04  9 14 22 10 15.0010000  0  7G 3G 8G13G19G27G10G28
   5516177.20049   4295903.81547  24063563.0834   24063561.4814
     -2549.3284
  -6938081.66349  -5395618.93048  21125823.7474   21125820.5484
      1020.7814
   7605410.03249   5918670.99648  21665981.7084   21665978.1494
     -2822.8124
  -4798770.38849  -3728208.70347  22721619.8414   22721614.4894
      -199.8914
  -1579755.14849  -1232775.84548  20994851.9974   20994848.6184
      -100.3444
  -3087655.24349  -2405280.29847  23616262.4034   23616260.4744
      -102.4064
  -8912230.62349  -6940805.44547  22621248.2314   22621244.9424
      2202.5474
 04  9 14 22 10 30.0010000  0  7G 3G 8G13G19G27G10G28
   5554479.87849   4325750.05347  24070851.8644   24070850.8414
     -2557.4534
  -6953359.63549  -5407523.85148  21122917.0674   21122913.5014
      1016.5944
   7647808.77949   5951708.95448  21674050.4274   21674046.6264
     -2830.1414
  -4795695.36849  -3725812.58247  22722204.2244   22722200.2284
      -209.7974
  -1578220.15249  -1231579.74248  20995144.3254   20995140.6264
      -104.0944
  -3086042.15049  -2404023.33747  23616569.4354   23616566.2314
      -112.4694
  -8945225.97049  -6966516.06947  22614969.7244   22614965.9704
      2197.1094
 04  9 14 22 10 45.0010000  0  7G 3G 8G13G19G27G10G28
   5592896.44449   4355685.01447  24078162.7554   24078161.2004
     -2564.5784
  -6968582.62549  -5419385.89948  21120020.1534   21120016.6734
      1013.2344
   7690310.25349   5984826.96048  21682138.4584   21682134.4974
     -2836.6564
  -4792479.16749  -3723306.44948  22722816.6384   22722811.8374
      -218.8914
  -1576636.15249  -1230345.45548  20995445.5134   20995441.8104
      -107.0164
  -3084286.38149  -2402655.19447  23616903.4424   23616901.2824
      -121.5474
  -8978147.28649  -6992169.02147  22608704.5214   22608701.2164
      2192.5784
 04  9 14 22 11  0.0010000  0  7G 3G 8G13G19G27G10G28
   5631431.58449   4385712.37647  24085494.8644   24085493.4034
     -2572.9064
  -6983745.61849  -5431201.21048  21117134.3804   21117131.6184
      1008.8914
   7732918.99349   6018028.56948  21690246.3174   21690243.1774
     -2844.1414
  -4789116.85149  -3720686.45347  22723455.8174   22723451.7904
      -229.0784
  -1574998.18949  -1229069.11248  20995757.4504   20995754.0134
      -111.0164
  -3082383.12449  -2401172.14547  23617265.7634   23617263.3334
      -131.8594
  -9010989.70349  -7017760.48547  22602454.6534   22602451.5284
      2186.8594
 04  9 14 22 11 15.0010000  0  7G 3G 8G13G19G27G10G28
   5670089.32649   4415835.29347  24092851.3804   24092849.5214
     -2581.1874
  -6998844.31249  -5442966.42448  21114261.2314   21114258.0634
      1004.5004
   7775639.07749   6051316.91148  21698375.4974   21698372.4314
     -2851.6254
  -4785604.12949  -3717949.27647  22724124.3644   22724119.8924
      -239.0624
  -1573301.91049  -1227747.34748  20996079.7714   20996076.5564
      -114.9374
  -3080328.02649  -2399570.78147  23617657.3104   23617654.7824
      -142.0004
  -9043748.82949  -7043287.04347  22596221.2084   22596217.4624
      2181.2344
 04  9 14 22 11 30.0010000  0  7G 3G 8G13G19G27G10G28
   5708863.26049   4446048.72647  24100230.0674   24100227.2314
     -2588.7194
  -7013884.68149  -5454686.18848  21111399.0054   21111395.6494
      1000.7034
   7818464.17249   6084687.09548  21706525.2244   21706520.9504
     -2858.5624
  -4781947.04649  -3715099.59147  22724821.1064   22724815.4354
      -248.5474
  -1571553.36449  -1226384.85848  20996413.0134   20996408.9034
      -118.2974
  -3078127.35749  -2397855.97647  23618075.3964   23618073.2944
      -151.6254
  -9076430.62949  -7068753.36147  22590001.5994   22589998.8534
      2176.1884
 04  9 14 22 11 45.0010000  0  7G 3G 8G13G19G27G10G28
   5747753.96749   4476353.16647  24107630.5444   24107629.0484
     -2596.6724
  -7028865.92749  -5466359.88048  21108548.2864   21108545.4744
       996.7194
   7861395.01749   6118139.68048  21714694.5444   21714690.7594
     -2865.5784
  -4778144.65149  -3712136.67447  22725544.3884   22725539.6574
      -258.3914
  -1569751.72949  -1224980.97848  20996755.6614   20996752.0994
      -121.9064
  -3075780.26449  -2396027.05347  23618522.2394   23618519.9384
      -161.4374
  -9109034.16249  -7094158.69447  22583797.1614   22583793.7394
      2170.8914
 04  9 14 22 12  0.0010000  0  7G 3G 8G13G19G27G10G28
   5786762.54549   4506749.44447  24115053.0524   24115052.5914
     -2604.8594
  -7043786.78449  -5477986.50848  21105708.9504   21105705.5404
       992.3444
   7904432.82849   6151675.61948  21722884.1614   21722880.9934
     -2873.2194
  -4774195.58249  -3709059.47847  22726296.1924   22726291.0244
      -268.6254
  -1567895.46349  -1223534.53248  20997108.7554   20997105.2594
      -126.0624
  -3073285.39649  -2394082.99447  23618997.2164   23618994.7004
      -171.6414
  -9141558.00549  -7119501.90947  22577608.4424   22577605.0794
      2165.2194
 04  9 14 22 12 15.0010000  0  7G 3G 8G13G19G27G10G28
   5825890.43149   4537238.66347  24122499.1384   24122498.2004
     -2612.3124
  -7058645.25149  -5489564.51048  21102881.5604   21102878.2594
       988.6254
   7947579.03449   6185296.02148  21731094.9504   21731091.6304
     -2879.8754
  -4770098.08649  -3705866.61447  22727075.6384   22727070.7714
      -277.9844
  -1565982.77349  -1222044.11848  20997473.0134   20997469.0834
      -129.2194
  -3070641.04849  -2392022.46347  23619500.1464   23619497.9274
      -181.1094
  -9174000.29349  -7144781.59447  22571434.3884   22571431.8174
      2160.2344
 04  9 14 22 12 30.0010000  0  7G 3G 8G13G19G27G10G28
   5865130.64349   4567815.46247  24129965.8254   24129965.0714
     -2619.7194
  -7073447.85449  -5501099.00448  21100064.9114   21100061.3334
       985.0164
   7990826.82449   6218995.57848  21739324.6694   21739321.4814
     -2886.5474
  -4765858.78449  -3702563.25147  22727882.0994   22727877.1144
      -287.2814
  -1564020.30649  -1220514.92648  20997846.4424   20997842.7594
      -132.4534
  -3067854.01249  -2389850.74747  23620031.1304   23620028.4664
      -190.5164
  -9206367.64549  -7170002.88347  22565275.4274   22565271.8254
      2155.3284
 04  9 14 22 12 45.0010000  0  7G 3G 8G13G19G27G10G28
   5904480.95549   4598477.99647  24137454.7314   24137453.3724
     -2626.6094
  -7088196.78649  -5512591.66948  21097258.0674   21097254.9814
       981.9534
   8034173.98649   6252772.56248  21747573.1534   21747570.0284
     -2892.6414
  -4761479.69449  -3699150.97647  22728715.9034   22728711.1814
      -296.1254
  -1562010.03349  -1218948.48148  20998228.9194   20998225.1924
      -135.1874
  -3064926.29449  -2387569.39647  23620587.4424   23620585.5484
      -199.3754
  -9238661.94349  -7195167.24447  22559130.1854   22559126.3064
      2150.9844
 04  9 14 22 13  0.0010000  0  7G 3G 8G13G19G27G10G28
   5943944.29249   4629228.68847  24144964.9814   24144962.1304
     -2634.7194
  -7102888.65949  -5524039.87748  21094461.9424   21094458.5754
       977.5164
   8077623.47749   6286629.28948  21755841.5834   21755838.4154
     -2900.0624
  -4756957.50249  -3695627.18147  22729576.1224   22729571.1614
      -306.3594
  -1559948.67949  -1217342.23748  20998620.8644   20998617.0324
      -139.1874
  -3061854.77549  -2385176.00247  23621172.3174   23621169.7864
      -209.6724
  -9270879.99649  -7220272.19347  22552999.2244   22552995.5634
      2145.2974
 04  9 14 22 13 15.0010000  0  7G 3G 8G13G19G27G10G28
   5983517.06749   4660064.63547  24152494.4744   24152493.1184
     -2641.5784
  -7117526.63949  -5535446.08448  21091676.7004   21091673.2314
       974.2814
   8121171.88049   6320563.08948  21764128.0604   21764125.3924
     -2906.2664
  -4752295.43049  -3691994.38647  22730462.7784   22730458.5484
      -315.2504
  -1557839.42749  -1215698.66048  20999022.4194   20999018.6614
      -142.0004
  -3058642.85049  -2382673.21647  23621783.4274   23621780.9934
      -218.5474
  -9303024.88049  -7245320.12347  22546882.1774   22546879.1184
      2140.7504
 04  9 14 22 13 30.0010000  0  7G 3G 8G13G19G27G10G28
   6023200.88049   4690987.05847  24160046.1384   24160044.7554
     -2649.3594
  -7132108.87849  -5546808.85148  21088901.6224   21088898.5324
       970.1884
   8164820.72649   6354575.15448  21772434.4974   21772431.3924
     -2913.2664
  -4747491.67349  -3688251.18147  22731377.1614   22731372.8104
      -325.0624
  -1555680.41749  -1214016.31348  20999433.2474   20999429.4544
      -145.6414
  -3055288.69649  -2380059.57647  23622421.7084   23622419.9744
      -228.5004
  -9335094.79049  -7270309.63147  22540779.4974   22540775.7594
      2135.4534
 04  9 14 22 13 45.0010000  0  7G 3G 8G13G19G27G10G28
   6062997.90449   4721997.68747  24167619.4194   24167617.2554
     -2656.5624
  -7146632.74649  -5558126.14348  21086138.0444   21086134.8134
       966.6564
   8208572.43849   6388667.38648  21780760.4504   21780757.2354
     -2919.8444
  -4742543.72449  -3684395.63247  22732318.6384   22732314.7124
      -334.3594
  -1553469.01349  -1212293.14848  20999854.2394   20999850.5914
      -148.7504
  -3051789.87849  -2377333.22247  23623087.7394   23623085.1924
      -237.7034
  -9367087.00949  -7295238.62547  22534691.3724   22534687.8804
      2130.5164
 04  9 14 22 14  0.0010000  0  7G 3G 8G13G19G27G10G28
   6102900.29649   4753090.46747  24175212.5834   24175210.5794
     -2663.9844
  -7161105.79049  -5569403.83548  21083383.8414   21083380.4384
       962.9064
   8252419.31349   6422833.74948  21789103.9894   21789101.0014
     -2926.6564
  -4737458.93849  -3680433.46747  22733286.4974   22733281.4544
      -343.7664
  -1551212.66749  -1210534.94948  21000283.3334   21000279.6104
      -152.1564
  -3048153.91249  -2374500.00247  23623778.9744   23623777.3534
      -247.2194
  -9399008.94449  -7320112.83147  22528616.8414   22528613.3414
      2125.5004
 04  9 14 22 14 15.0010000  0  7G 3G 8G13G19G27G10G28
   6142914.97949   4784270.74046  24182826.8884   24182825.9424
     -2671.1724
  -7175521.02449  -5580636.46948  21080640.3334   21080637.2594
       959.2664
   8296368.26449   6457079.67548  21797467.6064   21797464.5634
     -2933.1724
  -4732230.15649  -3676359.06547  22734281.4424   22734276.4314
      -353.1724
  -1548904.28449  -1208736.20448  21000722.8334   21000719.0914
      -155.4224
  -3044373.83649  -2371554.48947  23624498.9424   23624496.6264
      -256.5944
  -9430853.31349  -7344926.59247  22522557.5754   22522553.4114
      2120.5944
 04  9 14 22 14 30.0010000  0  7G 3G 8G13G19G27G10G28
   6183040.80749   4815537.60347  24190463.0134   24190461.3254
     -2678.5624
  -7189878.88249  -5591824.39748  21077908.2554   21077905.2824
       955.3914
   8340418.27049   6491404.33248  21805849.7784   21805846.3534
     -2939.9224
  -4726858.22349  -3672173.14347  22735303.9814   22735298.7514
      -362.7974
  -1546544.54849  -1206897.45548  21001171.7394   21001167.8604
      -158.9224
  -3040450.59649  -2368497.42847  23625245.1224   23625243.7204
      -266.1724
  -9462620.96649  -7369680.58447  22516511.8724   22516508.5054
      2115.4224
 04  9 14 22 14 45.0010000  0  7G 3G 8G13G19G27G10G28
   6223275.77449   4846889.50347  24198119.4424   24198117.0874
     -2685.7814
  -7204181.19349  -5602969.05348  21075186.8174   21075183.8254
       951.7504
   8384567.32549   6525806.16948  21814250.5674   21814247.5174
     -2946.4374
  -4721344.82649  -3667876.97847  22736352.8254   22736348.2044
      -372.1414
  -1544135.15049  -1205019.99648  21001630.3254   21001626.5674
      -162.1564
  -3036385.96249  -2365330.17747  23626018.9424   23626016.7204
      -275.5314
  -9494313.57549  -7394376.10047  22510481.0994   22510477.7434
      2110.5004
 04  9 14 22 15  0.0010000  0  7G 3G 8G13G19G27G10G28
   6263615.83149   4878323.29847  24205796.2784   24205794.6534
     -2692.6564
  -7218431.44349  -5614073.13148  21072474.8884   21072471.5634
       948.3914
   8428811.48549   6560282.11648  21822670.5054   21822667.1144
     -2952.6254
  -4715693.59349  -3663473.40147  22737427.6304   22737423.3964
      -381.3284
  -1541679.72449  -1203106.67848  21002097.5674   21002093.5794
      -165.1564
  -3032183.69749  -2362055.68947  23626818.2004   23626816.5444
      -284.5784
  -9525934.71549  -7419015.91947  22504463.5054   22504460.2674
      2105.7194
 04  9 14 22 15 15.0010000  0  7G 3G 8G13G19G27G10G28
   6304062.65949   4909840.30546  24213491.9584   24213491.7204
     -2699.6254
  -7232627.79049  -5625135.21348  21069773.5834   21069770.0674
       945.0004
   8473152.39349   6594833.46048  21831108.3414   21831105.2674
     -2958.9374
  -4709902.74049  -3658961.04247  22738530.4114   22738525.1534
      -390.3444
  -1539176.30349  -1201155.95648  21002573.7784   21002570.1654
      -168.1564
  -3027841.89749  -2358672.46447  23627644.3254   23627642.4354
      -293.7814
  -9557482.51249  -7443598.59147  22498460.4354   22498456.6614
      2101.1254
 04  9 14 22 15 30.0010000  0  7G 3G 8G13G19G27G10G28
   6344612.34749   4941437.42447  24221209.2784   24221208.2714
     -2706.6254
  -7246773.74449  -5636158.02748  21067081.9814   21067078.0994
       941.5164
   8517586.47849   6629457.39448  21839563.5054   21839560.7514
     -2965.2504
  -4703975.66149  -3654342.52747  22739657.6534   22739653.1854
      -399.5004
  -1536628.34749  -1199170.53048  21003058.6774   21003054.5714
      -171.2034
  -3023364.26149  -2355183.39447  23628496.6224   23628494.4354
      -302.8594
  -9588960.25349  -7468126.66847  22492470.3494   22492466.9234
      2096.3444
 04  9 14 22 15 45.0010000  0  7G 3G 8G13G19G27G10G28
   6385266.21749   4973115.75546  24228945.0754   24228943.1064
     -2713.5784
  -7260867.55949  -5647140.20348  21064399.8414   21064396.5174
       938.0164
   8562114.95449   6664154.89148  21848037.0994   21848033.8024
     -2971.5004
  -4697910.80649  -3649616.66147  22740812.3104   22740807.3644
      -408.7664
  -1534034.30649  -1197149.20348  21003552.5914   21003548.6814
      -174.3124
  -3018749.21249  -2351587.23347  23629374.7784   23629372.0094
      -312.0314
  -9620366.36749  -7492598.93847  22486493.7164   22486490.5364
      2091.5164
 04  9 14 22 16  0.0010000  0  7G 3G 8G13G19G27G10G28
   6426025.56549   5004876.29146  24236701.2944   24236699.7084
     -2720.4374
  -7274907.50749  -5658080.41648  21061728.1464   21061724.5834
       934.4384
   8606739.37749   6698927.15248  21856528.8964   21856525.5484
     -2977.9534
  -4691706.50649  -3644782.13047  22741992.4274   22741988.2004
      -417.9844
  -1531392.50249  -1195090.65648  21004055.5284   21004051.4854
      -177.4064
  -3013995.31649  -2347882.92947  23630279.2164   23630276.8604
      -321.3594
  -9651699.15849  -7517014.07547  22480531.5994   22480527.9854
      2086.6414
 04  9 14 22 16 15.0010000  0  7G 3G 8G13G19G27G10G28
   6466886.32449   5036715.78146  24244475.8644   24244475.4384
     -2727.4844
  -7288897.75449  -5668981.89948  21059065.8414   21059062.7354
       931.0164
   8651455.55049   6733770.90448  21865038.0604   21865035.5954
     -2984.1874
  -4685366.68249  -3639841.98447  22743199.3414   22743194.6304
      -427.2194
  -1528706.59149  -1192997.73348  21004566.3024   21004562.8294
      -180.6254
  -3009106.44549  -2344073.40847  23631209.5364   23631207.8414
      -330.5474
  -9682962.42749  -7541375.03447  22474582.2944   22474579.0174
      2081.8134
 04  9 14 22 16 30.0010000  0  7G 3G 8G13G19G27G10G28
   6507851.19949   5068636.45646  24252271.5994   24252270.9274
     -2734.5004
  -7302834.83749  -5679841.96248  21056413.9894   21056410.5604
       927.3444
   8696266.33549   6768688.36448  21873565.6614   21873562.3724
     -2990.5624
  -4678888.17249  -3634793.80047  22744432.5834   22744427.4624
      -436.5624
  -1525973.47949  -1190868.03948  21005086.8104   21005082.7554
      -183.7974
  -3004079.66249  -2340156.43647  23632166.5284   23632164.1064
      -339.7194
  -9714153.05449  -7565679.40247  22468647.1774   22468643.8134
      2076.9064
 04  9 14 22 16 45.0010000  0  7G 3G 8G13G19G27G10G28
   6548917.76349   5100636.38846  24260086.9744   24260085.0364
     -2741.0474
  -7316720.98649  -5690662.31848  21053771.3724   21053768.1344
       924.0784
   8741169.31949   6803677.68648  21882109.9974   21882107.1104
     -2996.5624
  -4672273.34349  -3629639.37347  22745690.4664   22745686.3374
      -445.5004
  -1523195.36749  -1188703.27548  21005614.8414   21005611.0834
      -186.6724
  -2998917.26149  -2336133.77147  23633148.8334   23633146.2944
      -348.6564
  -9745273.05649  -7589928.73047  22462725.0364   22462721.5244
      2072.3754
 04  9 14 22 17  0.0010000  0  7G 3G 8G13G19G27G10G28
   6590086.02349   5132715.53146  24267920.6224   24267918.8454
     -2748.0944
  -7330555.58149  -5701442.50348  21051138.7164   21051135.3924
       920.4384
   8786164.75349   6838739.05048  21890672.8254   21890669.0244
     -3002.9844
  -4665521.53649  -3624378.21947  22746975.1304   22746971.5714
      -454.8444
  -1520371.86749  -1186503.13748  21006152.3254   21006148.8964
      -189.9534
  -2993618.79549  -2332005.09047  23634156.8724   23634154.9354
      -357.8914
  -9776321.96749  -7614122.64947  22456816.3804   22456813.4194
      2067.3914
 04  9 14 22 17 15.0010000  0  7G 3G 8G13G19G27G10G28
   6631354.26249   5164872.59346  24275774.2084   24275772.5054
     -2754.8594
  -7344340.27449  -5712183.82048  21048515.4584   21048512.0634
       916.9384
   8831250.97349   6873871.14348  21899252.5444   21899249.0174
     -3009.1564
  -4658634.15849  -3619011.43147  22748286.1614   22748281.3254
      -464.0944
  -1517504.17449  -1184268.58248  21006698.2784   21006694.5484
      -193.0314
  -2988185.79949  -2327771.59347  23635190.8254   23635188.5714
      -367.0784
  -9807301.20449  -7638262.30347  22450921.1144   22450917.7314
      2062.5944
 04  9 14 22 17 30.0010000  0  7G 3G 8G13G19G27G10G28
   6672727.06249   5197111.08146  24283646.6924   24283645.6494
     -2761.4374
  -7358069.76149  -5722882.11348  21045902.6854   21045899.1384
       913.8134
   8876432.60849   6909077.59148  21907849.9744   21907847.2824
     -3014.9694
  -4651606.48049  -3613535.30547  22749623.2864   22749618.9154
      -472.9064
  -1514587.46749  -1181995.81448  21007253.0834   21007249.5564
      -195.7814
  -2982613.53349  -2323429.53947  23636251.1064   23636249.0054
      -375.8444
  -9838205.76249  -7662343.73947  22445040.4274   22445036.6854
      2058.1564
 04  9 14 22 17 45.0010000  0  7G 3G 8G13G19G27G10G28
   6714202.44749   5229429.55746  24291539.0994   24291537.5714
     -2768.5624
  -7371745.98149  -5733538.90048  21043300.6304   21043297.0174
       909.8444
   8921707.86049   6944356.97948  21916465.9034   21916462.5054
     -3021.5314
  -4644440.19349  -3607951.16847  22750987.5444   22750982.6104
      -482.4534
  -1511623.19549  -1179685.98848  21007817.4974   21007813.2594
      -199.2814
  -2976903.82249  -2318980.41147  23637337.2944   23637335.2944
      -385.2664
  -9869037.24049  -7686368.23947  22439173.1774   22439169.0994
      2052.9384
 04  9 14 22 18  0.0010000  0  7G 3G 8G13G19G27G10G28
   6755779.15449   5261826.98346  24299450.8174   24299450.1304
     -2774.8914
  -7385369.63749  -5744154.72948  21040708.0994   21040704.6144
       906.7504
   8967075.44649   6979708.33248  21925098.9814   21925095.3024
     -3027.3594
  -4637136.17849  -3602259.71247  22752376.5364   22752372.5134
      -491.3444
  -1508612.46549  -1177339.96248  21008390.1464   21008386.4974
      -202.0474
  -2971057.71549  -2314425.02447  23638450.2244   23638447.9034
      -394.1094
  -9899796.54949  -7710336.50847  22433319.9194   22433316.5914
      2048.4844
 04  9 14 22 18 15.0010000  0  7G 3G 8G13G19G27G10G28
   6797456.27749   5294302.67146  24307381.9974   24307381.4154
     -2781.6874
  -7398941.62449  -5754730.28348  21038125.3254   21038121.9274
       903.1724
   9012534.43449   7015130.90048  21933749.4974   21933746.1064
     -3033.5474
  -4629695.08649  -3596461.44447  22753793.1464   22753788.9354
      -500.5474
  -1505555.75549  -1174958.10748  21008971.5914   21008968.0364
      -205.2504
  -2965075.96249  -2309763.91147  23639589.0054   23639586.1184
      -403.2034
  -9930484.32949  -7734249.04247  22427480.4424   22427476.4314
      2043.5474
 04  9 14 22 18 30.0010000  0  7G 3G 8G13G19G27G10G28
   6839232.10349   5326855.26346  24315331.9034   24315331.0954
     -2788.3284
  -7412463.02249  -5765266.43748  21035552.0914   21035548.4934
       899.6724
   9058083.26149   7050623.46948  21942417.0754   21942413.7434
     -3039.5784
  -4622118.23649  -3590557.40147  22755234.2474   22755230.2394
      -509.7344
  -1502454.39549  -1172541.46348  21009561.9744   21009558.5094
      -208.3284
  -2958960.05449  -2304998.26747  23640752.2314   23640750.4744
      -412.1564
  -9961101.76249  -7758106.74747  22421654.2864   22421650.5444
      2038.7664
 04  9 14 22 18 45.0010000  0  7G 3G 8G13G19G27G10G28
   6881110.21149   5359487.47946  24323300.4194   24323299.9974
     -2794.8284
  -7425929.93849  -5775760.13948  21032989.3414   21032985.8414
       896.5474
   9103725.71149   7086188.98648  21951103.1694   21951099.1344
     -3045.3444
  -4614401.92649  -3584544.68647  22756703.1384   22756698.9314
      -518.5624
  -1499304.44949  -1170086.95548  21010161.2314   21010157.7164
      -211.0944
  -2952706.19549  -2300125.12047  23641942.4664   23641940.3454
      -420.9694
  -9991645.04649  -7781906.68747  22415841.7394   22415838.1534
      2034.2814
 04  9 14 22 19  0.0010000  0  7G 3G 8G13G19G27G10G28
   6923084.90349   5392195.04246  24331288.5444   24331287.9034
     -2802.0624
  -7439347.62149  -5786215.46648  21030436.0914   21030432.2004
       892.3594
   9149456.04749   7121822.99148  21959804.8024   21959801.7984
     -3052.2194
  -4606551.49149  -3578427.45747  22758197.0054   22758192.5954
      -528.4224
  -1496111.19749  -1167598.70148  21010768.9744   21010765.2314
      -214.8594
  -2946319.86249  -2295148.76047  23643157.5364   23643155.6384
      -430.7344
 -10022119.41749  -7805652.92747  22410043.0214   22410039.0874
      2028.7814
 04  9 14 22 19 15.0010000  0  7G 3G 8G13G19G27G10G28
   6965167.41349   5424986.56146  24339296.4194   24339295.9664
     -2808.8284
  -7452704.64449  -5796623.53048  21027894.5054   21027891.1344
       888.5944
   9195285.55149   7157534.27448  21968526.3104   21968523.0244
     -3058.5004
  -4598555.36649  -3572196.70948  22759718.3724   22759714.0174
      -537.8444
  -1492863.15649  -1165067.76348  21011386.8254   21011383.3764
      -218.2344
  -2939789.64949  -2290060.28147  23644399.7554   23644397.6184
      -440.0164
 -10052513.25249  -7829336.41047  22404258.7244   22404255.0834
      2023.6724
 04  9 14 22 19 30.0010000  0  7G 3G 8G13G19G27G10G28
   7007351.48249   5457857.28546  24347323.0834   24347322.7164
     -2815.2504
  -7466006.48449  -5806988.60348  21025363.2474   21025359.8414
       885.3914
   9241208.19549   7193318.13448  21977264.8964   21977261.8104
     -3064.1414
  -4590419.42349  -3565857.00147  22761267.0994   22761262.2824
      -546.5784
  -1489566.02149  -1162498.57148  21012014.7864   21012010.9584
      -221.0164
  -2933121.42249  -2284864.25847  23645669.7244   23645666.9624
      -448.7664
 -10082832.37649  -7852961.66247  22398489.3644   22398485.3644
      2019.1884
 04  9 14 22 19 45.0010000  0  7G 3G 8G13G19G27G10G28
   7049633.71549   5490804.44547  24355370.0994   24355368.7124
     -2822.0474
  -7479256.42549  -5817313.22548  21022841.5364   21022838.5834
       881.5634
   9287220.52349   7229171.87148  21986020.6144   21986017.3104
     -3070.5624
  -4582146.74949  -3559410.75447  22762841.4034   22762836.0714
      -556.1254
  -1486222.95549  -1159893.57548  21012650.2864   21012646.7164
      -224.4844
  -2926318.46749  -2279563.27847  23646964.0914   23646961.4424
      -458.0944
 -10113079.79949  -7876531.06047  22392733.4424   22392729.4114
      2014.0004
 04  9 14 22 20  0.0010000  0  7G 3G 8G13G19G27G10G28
   7092014.51749   5523828.42946  24363434.6464   24363433.4384
     -2828.7814
  -7492453.84649  -5827596.92248  21020330.0674   21020326.9154
       878.0474
   9333323.07149   7265095.91248  21994793.5444   21994790.3884
     -3076.5784
  -4573736.70549  -3552857.47547  22764441.7864   22764436.5214
      -565.2504
  -1482833.14549  -1157252.16748  21013295.5284   21013291.8174
      -227.6414
  -2919380.26449  -2274156.88247  23648284.3024   23648281.5134
      -467.1094
 -10143254.91249  -7900044.11747  22386991.1774   22386987.0794
      2009.2194
 04  9 14 22 20 15.0010000  0  7G 3G 8G13G19G27G10G28
   7134498.67249   5556932.94847  24371518.7314   24371517.5914
     -2835.8444
  -7505593.38749  -5837835.52048  21017830.0444   21017826.5174
       873.8914
   9379520.75149   7301094.07448  22003585.0444   22003581.0364
     -3083.2034
  -4565184.17249  -3546193.16548  22766069.0444   22766064.3964
      -575.1254
  -1479391.36049  -1154570.24948  21013950.6144   21013946.7744
      -231.4224
  -2912301.64449  -2268641.07747  23649632.6464   23649628.7634
      -476.7344
 -10173352.37849  -7923496.66347  22381263.6614   22381260.0094
      2003.7034
 04  9 14 22 20 30.0010000  0  7G 3G 8G13G19G27G10G28
   7177089.25249   5590120.34947  24379624.0054   24379623.2474
     -2842.7974
  -7518671.79649  -5848026.47548  21015341.2784   21015338.0874
       870.0784
   9425816.61649   7337168.75548  22012394.4504   22012391.3764
     -3089.4064
  -4556485.90149  -3539415.29048  22767724.6774   22767720.0484
      -584.5784
  -1475894.38449  -1151845.33148  21014616.2784   21014612.2744
      -234.7814
  -2905079.50249  -2263013.44847  23651005.4664   23651003.1964
      -486.0314
 -10203368.89449  -7946886.12847  22375551.7394   22375547.8454
      1998.6414
 04  9 14 22 20 45.0010000  0  7G 3G 8G13G19G27G10G28
   7219782.73849   5623387.99647  24387748.3174   24387747.7824
     -2849.6874
  -7531692.05749  -5858172.13248  21012863.3334   21012860.3494
       866.1414
   9472207.23249   7373317.26548  22021222.9194   22021219.3134
     -3095.8444
  -4547645.07249  -3532526.32247  22769407.2004   22769401.8064
      -594.0944
  -1472345.23149  -1149079.76048  21015291.5364   21015287.3994
      -238.2664
  -2897717.16349  -2257276.54647  23652406.7634   23652404.4704
      -495.4694
 -10233307.50149  -7970214.88247  22369855.2004   22369851.0914
      1993.3444
 04  9 14 22 21  0.0010000  0  7G 3G 8G13G19G27G10G28
   7262577.94049   5656734.86246  24395891.2634   24395891.2904
     -2856.9844
  -7544655.15449  -5868273.24248  21010396.8414   21010393.3494
       861.7814
   9518691.49049   7409538.74248  22030068.2634   22030064.8024
     -3102.6094
  -4538662.63449  -3525527.01648  22771116.1064   22771111.0134
      -604.0944
  -1468744.67749  -1146274.12248  21015976.8334   21015972.5284
      -242.2504
  -2890215.67749  -2251431.21947  23653834.2084   23653831.4314
      -505.2664
 -10263169.12249  -7993483.64547  22364172.3024   22364168.3294
      1987.7194
 04  9 14 22 21 15.0010000  0  6G 8G13G19G27G10G28
  -7557560.10749  -5878329.03148  21007940.8024   21007937.7244
       858.4534
   9565270.05249   7445833.70148  22038932.0284   22038928.7314
     -3108.3444
  -4529537.60149  -3518416.59148  22772852.9194   22772847.9114
      -613.0004
  -1465091.79149  -1143427.72348  21016671.5834   21016667.7944
      -245.1564
  -2882574.16349  -2245476.80347  23655288.1854   23655285.7904
      -514.0314
 -10292952.73249  -8016691.63247  22358504.8334   22358501.1224
      1983.0474
 04  9 14 22 21 30.0010000  0  6G 8G13G19G27G10G28
  -7570409.23049  -5888341.33248  21005495.9424   21005492.3334
       855.0784
   9611940.24449   7482200.05948  22047812.7864   22047809.7944
     -3114.1094
  -4520272.32349  -3511196.89048  22774615.3964   22774610.6104
      -622.1254
  -1461389.08849  -1140542.49448  21017376.5604   21017372.9544
      -248.2344
  -2874795.27349  -2239415.34447  23656768.2714   23656765.4114
      -522.8594
 -10322660.73149  -8039840.68647  22352851.1534   22352847.9464
      1978.2974
 04  9 14 22 21 45.0010000  0  6G 8G13G19G27G10G28
  -7583201.64649  -5898309.43848  21003061.3334   21003058.2284
       850.7814
   9658702.76649   7518638.36248  22056711.5754   22056708.4034
     -3120.7344
  -4510866.19549  -3503867.43548  22776405.4584   22776401.1854
      -631.9064
  -1457635.47049  -1137617.59048  21018090.5754   21018087.1534
      -252.1254
  -2866878.31549  -2233246.27947  23658275.5284   23658272.8294
      -532.5784
 -10352292.24449  -8062930.15447  22347212.6854   22347209.0244
      1972.7664
 04  9 14 22 22  0.0010000  0  6G 8G13G19G27G10G28
  -7595930.49249  -5908228.01548  21000639.6464   21000635.9464
       846.8754
   9705564.04049   7555153.62047  22065628.6534   22065625.6884
     -3127.0474
  -4501312.43749  -3496422.94548  22778223.8644   22778219.2084
      -641.3754
  -1453824.26749  -1134647.82048  21018816.0364   21018811.9744
      -255.6414
  -2858816.61749  -2226964.43147  23659809.3964   23659807.0324
      -541.8284
 -10381840.41049  -8085954.68447  22341589.9424   22341586.2944
      1967.5004
 04  9 14 22 22 15.0010000  0  6G 8G13G19G27G10G28
  -7608599.88049  -5918100.26048  20998228.4424   20998224.9194
       842.5004
   9752519.56449   7591742.32047  22074563.6144   22074560.9814
     -3133.6874
  -4491615.23649  -3488866.68548  22780069.0994   22780063.9664
      -651.3754
  -1449959.56949  -1131636.36648  21019551.2474   21019547.3924
      -259.6094
  -2850614.41149  -2220573.10647  23661369.9194   23661367.5954
      -551.6254
 -10411309.36549  -8108917.47047  22335982.0054   22335978.0564
      1961.7974
 04  9 14 22 22 30.0010000  0  6G 8G13G19G27G10G28
  -7621207.48549  -5927924.35548  20995829.3884   20995826.0484
       838.5004
   9799571.48449   7628406.12347  22083517.7634   22083514.9584
     -3139.9694
  -4481772.43449  -3481196.96947  22781942.1304   22781937.2634
      -661.0004
  -1446039.04749  -1128581.40648  21020297.5444   21020293.6344
      -263.1874
  -2842269.71749  -2214070.73947  23662958.1614   23662955.5754
      -561.0004
 -10440696.78849  -8131816.73648  22330390.0754   22330385.8964
      1956.5474
 04  9 14 22 22 45.0010000  0  6G 8G13G19G27G10G28
  -7633754.46349  -5937701.21948  20993441.7474   20993438.3104
       834.6094
   9846718.33049   7665143.90148  22092489.2634   22092486.5484
     -3146.1414
  -4471785.17249  -3473414.67648  22783842.4744   22783837.6694
      -670.4844
  -1442063.71449  -1125483.74148  21021053.6304   21021050.4464
      -266.7034
  -2833783.74549  -2207458.29447  23664572.3564   23664569.9624
      -570.3124
 -10470003.83249  -8154653.37047  22324812.9034   22324809.1424
      1951.2034
 04  9 14 22 23  0.0010000  0  6G 8G13G19G27G10G28
  -7646242.87649  -5947432.44448  20991065.1774   20991062.3214
       830.5004
   9893957.79149   7701953.85247  22101478.7394   22101476.0994
     -3152.5164
  -4461655.60949  -3465521.52048  22785769.5134   22785764.9234
      -680.2194
  -1438035.78049  -1122345.09748  21021820.5214   21021816.5564
      -270.4224
  -2825158.76449  -2200737.51947  23666214.2004   23666211.7434
      -579.6564
 -10499232.59649  -8177429.00848  22319250.6534   22319246.8104
      1945.8754
 04  9 14 22 23 15.0010000  0  6G 8G13G19G27G10G28
  -7658674.57349  -5957119.47548  20988699.5284   20988695.8764
       826.9844
   9941287.68449   7738834.25548  22110485.6924   22110482.5404
     -3158.2664
  -4451385.84149  -3457519.09847  22787723.9894   22787719.1734
      -689.2344
  -1433957.06749  -1119166.87148  21022596.6304   21022592.9194
      -273.5314
  -2816396.79249  -2193910.01547  23667881.1534   23667878.8804
      -588.6254
 -10528384.86349  -8200145.02948  22313703.5054   22313699.8024
      1941.0474
 04  9 14 22 23 30.0010000  0  6G 8G13G19G27G10G28
  -7671046.98949  -5966760.30548  20986344.8724   20986341.9814
       822.7974
   9988709.99949   7775786.67748  22119509.6224   22119506.4704
     -3164.5314
  -4440973.44049  -3449405.53848  22789705.7944   22789701.0994
      -698.9694
  -1429825.21349  -1115947.24448  21023383.0914   21023378.6264
      -277.2664
  -2807495.76449  -2186974.14747  23669574.5674   23669572.2354
      -598.0624
 -10557458.32049  -8222799.64848  22308170.9274   22308166.5634
      1935.5784
 04  9 14 22 23 45.0010000  0  6G 8G13G19G27G10G28
  -7683365.16149  -5976358.87548  20984001.3334   20983997.9854
       819.3284
  10036219.86249   7812807.33048  22128550.6464   22128548.1424
     -3170.3284
  -4430423.22149  -3441184.57447  22791713.4114   22791708.6534
      -708.0624
  -1425644.82249  -1112689.78948  21024178.2944   21024174.0404
      -280.4064
  -2798460.42749  -2179933.62747  23671294.0444   23671292.1574
      -606.9374
 -10586457.63349  -8245396.48948  22302652.4504   22302648.5094
      1930.7504
 04  9 14 22 24  0.0010000  0  6G 8G13G19G27G10G28
  -7695626.16949  -5985912.89248  20981667.7944   20981664.3804
       815.0474
  10083819.68849   7849898.07947  22137608.4114   22137605.2514
     -3176.7814
  -4419732.43349  -3432854.09647  22793747.9274   22793742.7354
      -717.8124
  -1421413.06049  -1109392.31148  21024983.2004   21024979.8334
      -284.2664
  -2789288.22049  -2172786.44347  23673039.4744   23673037.4584
      -616.4844
 -10615379.99249  -8267933.36048  22297148.6614   22297145.0834
      1925.1564
 04  9 14 22 24 15.0010000  0  6G 8G13G19G27G10G28
  -7707825.27049  -5995418.68148  20979346.2394   20979343.0174
       811.1254
  10131513.98949   7887062.44348  22146684.6464   22146681.7164
     -3182.8284
  -4408896.37149  -3424410.41047  22795809.1614   22795804.6814
      -727.2974
  -1417125.19849  -1106051.11648  21025799.4194   21025795.7514
      -287.7664
  -2779974.49349  -2165528.99347  23674811.8494   23674810.1264
      -625.6724
 -10644220.48349  -8290406.44848  22291660.4584   22291657.0604
      1919.9224
 04  9 14 22 24 30.0010000  0  6G 8G13G19G27G10G28
  -7719965.01349  -6004878.20648  20977036.3804   20977033.0324
       807.2664
  10179299.74449   7924298.07447  22155778.2554   22155775.2514
     -3188.7974
  -4397917.94249  -3415855.78048  22797898.7314   22797894.0244
      -736.5944
  -1412783.99249  -1102668.36048  21026625.3024   21026621.9504
      -291.2194
  -2770522.29449  -2158163.65947  23676610.7554   23676608.6964
      -634.7504
 -10672982.05449  -8312818.03648  22286187.6534   22286183.7474
      1914.7814
 04  9 14 22 24 45.0010000  0  6G 8G13G19G27G10G28
  -7732041.59049  -6014288.52348  20974738.2084   20974734.3724
       802.8444
  10227180.53049   7961607.74647  22164889.2944   22164886.1654
     -3195.2344
  -4386793.30149  -3407187.24448  22800016.2164   22800010.9194
      -746.5944
  -1408385.56449  -1099241.01248  21027462.5914   21027459.1344
      -295.2194
  -2760927.77649  -2150687.41547  23678436.3724   23678434.4784
      -644.4694
 -10701660.73049  -8335165.03348  22280730.0914   22280725.9544
      1909.0944
 04  9 14 22 25  0.0010000  0  6G 8G13G19G27G10G28
  -7744056.82749  -6023651.04248  20972452.2004   20972448.2864
       799.2974
  10275154.25149   7998989.83648  22174017.9194   22174015.8454
     -3200.9064
  -4375524.32049  -3398406.22847  22802160.4114   22802155.1884
      -755.7034
  -1403931.67749  -1095770.44948  21028310.2314   21028306.7594
      -298.3754
  -2751192.97049  -2143101.84347  23680289.3174   23680286.5634
      -653.2664
 -10730258.38349  -8357448.89848  22275288.0914   22275284.1734
      1904.2034
 04  9 14 22 25 15.0010000  0  6G 8G13G19G27G10G28
  -7756016.68049  -6032970.41048  20970175.9664   20970172.1034
       795.4384
  10323214.65649   8036439.47048  22183164.3104   22183161.0604
     -3207.0474
  -4364117.22849  -3389517.57547  22804330.6384   22804326.4384
      -765.1094
  -1399428.19549  -1092261.23848  21029167.0214   21029163.5674
      -301.9064
  -2741324.06449  -2135411.79347  23682166.9354   23682164.6884
      -662.4224
 -10758780.94749  -8379674.24448  22269860.4274   22269856.1224
      1898.9384
 04  9 14 22 25 30.0010000  0  6G 8G13G19G27G10G28
  -7767915.49249  -6042242.19048  20967911.7084   20967907.9194
       791.2974
  10371367.21549   8073960.92248  22192326.9584   22192324.2434
     -3213.2344
  -4352566.23449  -3380516.78447  22806528.8174   22806523.8764
      -774.9064
  -1394869.41149  -1088708.93748  21030034.8414   21030030.6224
      -305.7974
  -2731315.47149  -2127612.89847  23684070.7554   23684069.5014
      -671.8444
 -10787222.71349  -8401836.63048  22264448.3024   22264444.2204
      1893.4224
 04  9 14 22 25 45.0010000  0  6G 8G13G19G27G10G28
  -7779755.13749  -6051467.88848  20965658.4584   20965655.1694
       787.8284
  10419609.22349   8111552.06347  22201507.5834   22201504.2864
     -3218.6254
  -4340873.64949  -3371405.70447  22808753.8884   22808748.8534
      -783.7814
  -1390257.59149  -1085115.31048  21030912.1534   21030908.5244
      -308.7344
  -2721169.75749  -2119707.14447  23686001.5674   23685999.7284
      -680.4694
 -10815585.78949  -8423937.70448  22259050.5364   22259046.5284
      1888.7194
 04  9 14 22 26  0.0010000  0  6G 8G13G19G27G10G28
  -7791538.27549  -6060649.54448  20963416.1924   20963412.5324
       783.3914
  10467938.03649   8149210.85747  22210703.8174   22210700.9384
     -3225.1254
  -4329042.16349  -3362186.35647  22811005.0994   22811000.2084
      -793.6724
  -1385595.21449  -1081482.28848  21031799.2944   21031795.4154
      -312.7664
  -2710889.56149  -2111696.60747  23687958.4504   23687956.2554
      -690.0164
 -10843872.75549  -8445979.47248  22253667.6854   22253663.9854
      1883.0164
 04  9 14 22 26 15.0010000  0  6G 8G13G19G27G10G28
  -7803266.59249  -6069788.48548  20961184.6144   20961180.8534
       779.4844
  10516351.70849   8186935.75947  22219917.1924   22219914.3764
     -3231.0004
  -4317073.44949  -3352860.07747  22813283.3174   22813278.2474
      -803.0474
  -1380883.88049  -1077811.12248  21032695.6924   21032692.0054
      -316.3124
  -2700476.86949  -2103582.83047  23689940.4504   23689937.6964
      -699.2344
 -10872085.37849  -8467963.31548  22248299.5364   22248295.0484
      1877.7504
 04  9 14 22 26 30.0010000  0  6G 8G13G19G27G10G28
  -7814936.70149  -6078882.07148  20958963.7714   20958959.9854
       775.8284
  10564853.50649   8224729.33547  22229146.4034   22229143.3024
     -3236.5944
  -4304964.02549  -3343424.17547  22815587.3174   22815582.3564
      -812.2194
  -1376120.03149  -1074099.04448  21033602.6304   21033598.1884
      -319.5474
  -2689928.12049  -2095363.02447  23691947.8494   23691944.7164
      -708.0004
 -10900219.90449  -8489886.30748  22242945.1464   22242941.2434
      1872.7814
 04  9 14 22 26 45.0010000  0  6G 8G13G19G27G10G28
  -7826544.67049  -6087927.22948  20956754.5364   20956751.0174
       771.8754
  10613446.56349   8262594.03847  22238393.5134   22238390.3134
     -3242.4064
  -4292710.50149  -3333875.96147  22817919.1614   22817914.6924
      -821.5624
  -1371300.05649  -1070343.20948  21034519.4194   21034515.5754
      -323.0624
  -2679240.02949  -2087034.63647  23693981.4744   23693978.5874
      -717.0784
 -10928272.77749  -8511745.64648  22237606.6304   22237602.7944
      1867.6094
 04  9 14 22 27  0.0010000  0  6G 8G13G19G27G10G28
  -7838093.45349  -6096926.27748  20954557.4114   20954553.5134
       767.7664
  10662127.66149   8300527.33347  22247657.3104   22247654.4464
     -3248.4844
  -4280315.98149  -3324217.90247  22820277.4424   22820273.0674
      -831.1874
  -1366427.02449  -1066546.03148  21035447.0604   21035443.4544
      -326.8594
  -2668415.81049  -2078600.19247  23696040.9504   23696038.7204
      -726.4064
 -10956247.08049  -8533543.79248  22232283.3024   22232279.5714
      1862.1254
 04  9 14 22 27 15.0010000  0  6G 8G13G19G27G10G28
  -7849581.95149  -6105878.34448  20952370.8494   20952367.7434
       764.2504
  10710897.87449   8338530.07947  22256937.8254   22256935.1264
     -3253.8754
  -4267779.29549  -3314449.05347  22822663.6304   22822658.8534
      -840.1094
  -1361499.57849  -1062706.47048  21036384.4584   21036380.9154
      -329.9224
  -2657454.29949  -2070058.73247  23698126.5604   23698124.9544
      -734.9064
 -10984141.45249  -8555279.62848  22226975.6224   22226971.8924
      1857.3914
 04  9 14 22 27 30.0010000  0  6G 8G13G19G27G10G28
  -7861011.71449  -6114784.64248  20950195.7634   20950192.4854
       759.5784
  10759755.28649   8376600.75747  22266235.2244   22266231.8214
     -3260.5624
  -4255102.17249  -3304570.77547  22825075.8644   22825071.1734
      -850.3594
  -1356519.31949  -1058825.73748  21037332.2474   21037328.5914
      -334.2034
  -2646357.32249  -2061411.75947  23700238.4974   23700236.2784
      -744.7974
 -11011957.57049  -8576954.51448  22221681.8804   22221678.3414
      1851.2814
 04  9 14 22 27 45.0010000  0  6G 8G13G19G27G10G28
  -7872382.05049  -6123644.63448  20948032.3334   20948028.7164
       756.0004
  10808700.14949   8414739.59047  22275548.8494   22275546.6034
     -3266.0004
  -4242284.09249  -3294582.65347  22827515.4034   22827510.2784
      -859.2814
  -1351485.60749  -1054903.36548  21038290.0284   21038286.5404
      -337.4694
  -2635124.37249  -2052658.80547  23702376.6144   23702373.8254
      -753.4374
 -11039694.85149  -8598567.94948  22216403.9664   22216399.8804
      1846.4694
 04  9 14 22 28  0.0010000  0  6G 8G13G19G27G10G28
  -7883693.63549  -6132458.84948  20945879.4664   20945876.4074
       752.4384
  10857731.60149   8452945.88347  22284879.6144   22284876.6464
     -3271.2814
  -4229325.68749  -3284485.18747  22829980.7004   22829975.5134
      -868.1564
  -1346398.90249  -1050939.69348  21039258.1694   21039254.4424
      -340.5624
  -2623756.40249  -2043800.64047  23704539.5364   23704537.1924
      -762.0474
 -11067353.77849  -8620120.33848  22211140.5524   22211136.6064
      1841.6564
 04  9 14 22 28 15.0010000  0  6G 8G13G19G27G10G28
  -7894947.82749  -6141228.34348  20943738.0284   20943734.9074
       748.4694
  10906847.86749   8491218.27947  22294226.0524   22294222.7004
     -3277.1414
  -4216228.48049  -3274279.56647  22832473.3494   22832468.0994
      -877.6874
  -1341260.66549  -1046935.88048  21040236.2554   21040232.2714
      -344.1094
  -2612254.96349  -2034838.48047  23706728.5284   23706725.6734
      -771.1094
 -11094935.77049  -8641612.78148  22205891.9114   22205888.0874
      1836.3594
 04  9 14 22 28 30.0010000  0  6G 8G13G19G27G10G28
  -7906145.73249  -6149953.96548  20941606.9354   20941603.3414
       744.5944
  10956047.61649   8529555.71347  22303588.5834   22303585.5484
     -3282.8594
  -4202993.74349  -3263966.78047  22834991.4034   22834986.8174
      -886.9374
  -1336072.10249  -1042892.84148  21041223.1694   21041219.2354
      -347.6414
  -2600621.47349  -2025773.43547  23708941.8804   23708939.8684
      -780.1254
 -11122442.07949  -8663046.23848  22200657.7164   22200653.6344
      1831.1724
 04  9 14 22 28 45.0010000  0  6G 8G13G19G27G10G28
  -7917283.70549  -6158632.90248  20939487.4814   20939484.0954
       740.4534
  11005334.08449   8567960.72947  22312967.4424   22312964.4814
     -3288.7194
  -4189617.94549  -3253544.07747  22837536.9584   22837531.7084
      -896.4694
  -1330829.34849  -1038807.58348  21042221.3024   21042217.0014
      -351.3754
  -2588852.46649  -2016602.78847  23711181.2714   23711179.3174
      -789.1724
 -11149868.95549  -8684417.81048  22195438.6304   22195434.6184
      1825.6884
 04  9 14 22 29  0.0010000  0  6G 8G13G19G27G10G28
  -7928354.42649  -6167259.42748  20937380.6774   20937377.4424
       736.0784
  11054714.18949   8606438.70447  22322364.8644   22322360.8174
     -3294.8594
  -4176093.95849  -3243005.90347  22840110.3024   22840105.7944
      -906.2504
  -1325525.38449  -1034674.61648  21043230.0834   21043226.6774
      -355.2814
  -2576940.86449  -2007320.99947  23713447.4274   23713445.7634
      -798.6564
 -11177209.28849  -8705721.94748  22190236.0134   22190231.7204
      1820.1094
 04  9 14 22 29 15.0010000  0  6G 8G13G19G27G10G28
  -7939366.45049  -6175840.21748  20935285.6774   20935281.9424
       732.2194
  11104179.24049   8644982.87447  22331777.2394   22331774.6424
     -3300.4374
  -4162430.37549  -3232358.95347  22842710.9114   22842705.7744
      -915.4694
  -1320168.53349  -1030500.45548  21044249.3494   21044245.5714
      -358.7974
  -2564895.45649  -1997934.99047  23715740.0364   23715737.9664
      -807.3914
 -11204471.57949  -8726965.26348  22185047.5444   22185043.4664
      1814.9534
 04  9 14 22 29 30.0010000  0  6G 8G13G19G27G10G28
  -7950316.75049  -6184372.91448  20933201.6694   20933197.9464
       728.0164
  11153731.78549   8683595.21147  22341207.1384   22341203.6654
     -3306.4064
  -4148624.32949  -3221600.99147  22845337.5604   22845333.2004
      -925.1414
  -1314755.87049  -1026282.78448  21045279.7474   21045276.3064
      -362.6564
  -2552713.39949  -1988442.47547  23718058.3414   23718055.4814
      -816.7034
 -11231652.77549  -8748145.38648  22179875.6614   22179871.5054
      1809.4224
 04  9 14 22 29 45.0010000  0  6G 8G13G19G27G10G28
  -7961208.48649  -6192859.97248  20931129.1614   20931125.7434
       724.3444
  11203368.22749   8722272.94248  22350652.2784   22350648.9664
     -3311.6414
  -4134679.44049  -3210734.83347  22847991.3804   22847986.5404
      -934.0944
  -1309290.72249  -1022024.23148  21046320.0604   21046315.9584
      -365.8754
  -2540398.30349  -1978846.31047  23720401.9744   23720399.7514
      -825.2034
 -11258756.34349  -8769265.02948  22174717.8804   22174713.8134
      1804.5004
 04  9 14 22 30  0.0010000  0  6G 8G13G19G27G10G28
  -7972038.82249  -6201299.18948  20929068.2394   20929064.5484
       719.7344
  11253091.43149   8761018.26547  22360114.4814   22360111.6224
     -3318.0004
  -4120592.47449  -3199757.97947  22850672.5754   22850667.1694
      -944.1094
  -1303769.84549  -1017722.24548  21047370.3884   21047367.1144
      -370.1254
  -2527947.25549  -1969144.19247  23722771.4584   23722769.2984
      -834.7974
 -11285778.95349  -8790321.58948  22169575.5994   22169571.5604
      1798.5784
 04  9 14 22 30 15.0010000  0  6G 8G13G19G27G10G28
  -7982806.70849  -6209689.75948  20927019.0994   20927015.4464
       715.8444
  11302901.97049   8799831.63147  22369592.5364   22369589.8454
     -3323.5624
  -4106362.88549  -3188670.00647  22853380.0994   22853374.7904
      -953.3594
  -1298192.52549  -1013376.30148  21048431.4584   21048427.6534
      -373.7344
  -2515359.61549  -1959335.66247  23725167.0364   23725164.4814
      -843.6724
 -11312719.80849  -8811314.45448  22164448.8334   22164444.5054
      1793.3444
 04  9 14 22 30 30.0010000  0  6G 8G13G19G27G10G28
  -7993513.09149  -6218032.38148  20924981.7634   20924977.9624
       711.9224
  11352798.49649   8838712.02647  22379088.1144   22379085.0994
     -3329.0944
  -4091991.62149  -3177471.60647  22856114.5994   22856110.0014
      -962.6564
  -1292559.43349  -1008986.86348  21049503.6614   21049499.7164
      -377.2504
  -2502636.48849  -1949421.52447  23727588.1224   23727585.4544
      -852.5944
 -11339579.91949  -8832244.38348  22159337.7394   22159333.7944
      1788.1254
 04  9 14 22 30 45.0010000  0  6G 8G13G19G27G10G28
  -8004163.34949  -6226331.26748  20922955.2164   20922952.0094
       707.9844
  11402775.28749   8877654.95747  22388598.0754   22388595.4424
     -3334.6254
  -4077484.44349  -3166167.31047  22858875.5604   22858870.3104
      -971.8444
  -1286876.33249  -1004558.47848  21050585.2314   21050581.3844
      -380.7034
  -2489783.69749  -1939406.35947  23730033.8024   23730031.5284
      -861.3124
 -11366364.78649  -8853115.68348  22154240.6534   22154236.7904
      1782.9694
 04  9 14 22 31  0.0010000  0  6G 8G13G19G27G10G28
  -8014754.15149  -6234583.83248  20920939.7244   20920935.9784
       704.1254
  11452835.40949   8916662.82547  22398124.4584   22398121.4814
     -3340.1094
  -4062837.97849  -3154754.47747  22861662.5834   22861657.5874
      -981.0784
  -1281139.65149  -1000088.33148  21051676.2784   21051672.8764
      -384.2034
  -2476798.13249  -1929287.73847  23732504.5444   23732502.4354
      -870.1874
 -11393071.06949  -8873925.74448  22149158.2864   22149154.5444
      1777.8444
 04  9 14 22 31 15.0010000  0  6G 8G13G19G27G10G28
  -8025286.47649  -6242790.83648  20918935.1924   20918931.8024
       700.1254
  11502977.61049   8955734.64147  22407665.9274   22407662.9934
     -3345.5624
  -4048053.19849  -3143233.87747  22864475.7784   22864470.9704
      -990.3124
  -1275350.34349   -995577.18248  21052778.0284   21052774.3994
      -387.8284
  -2463680.88549  -1919066.52847  23735000.1064   23734998.4034
      -878.9534
 -11419699.71949  -8894675.32348  22144091.5134   22144087.4584
      1772.6094
 04  9 14 22 31 30.0010000  0  6G 8G13G19G27G10G28
  -8035756.63049  -6250949.39448  20916943.0834   20916940.0174
       695.4534
  11553204.92349   8994872.78647  22417224.6924   22417221.1814
     -3351.7814
  -4033126.97449  -3131603.03947  22867316.4894   22867311.6694
     -1000.2664
  -1269505.04649   -991022.40748  21053890.8804   21053886.8064
      -392.0004
  -2450428.71649  -1908740.18547  23737522.9194   23737520.3804
      -888.4534
 -11446247.26649  -8915361.70048  22139038.8644   22139035.1654
      1766.7344
 04  9 14 22 31 45.0010000  0  6G 8G13G19G27G10G28
  -8046160.71849  -6259056.46848  20914963.3334   20914959.7514
       691.3754
  11603521.18249   9034080.22247  22426799.0214   22426796.6064
     -3357.3754
  -4018055.14049  -3119858.76047  22870183.9504   22870179.0914
     -1009.5944
  -1263599.39149   -986420.60048  21055014.6774   21055010.7284
      -395.7194
  -2437037.72249  -1898305.64447  23740071.0994   23740068.6144
      -897.3914
 -11472709.52749  -8935981.61848  22134003.7784   22133999.9424
      1761.2814
 04  9 14 22 32  0.0010000  0  6G 8G13G19G27G10G28
  -8056504.88149  -6267116.85348  20912994.5834   20912990.9584
       687.1414
  11653919.99649   9073352.00847  22436389.5214   22436386.6304
     -3363.0624
  -4002844.13349  -3108006.02447  22873079.1774   22873074.2394
     -1019.0784
  -1257639.70049   -981776.68748  21056148.7474   21056144.9624
      -399.4694
  -2423514.38049  -1887767.94747  23742643.3174   23742642.4464
      -906.3594
 -11499092.84149  -8956540.01748  22128983.1064   22128979.1534
      1755.9064
 04  9 14 22 32 15.0010000  0  6G 8G13G19G27G10G28
  -8066787.27649  -6275129.09448  20911038.2394   20911034.5794
       683.6254
  11704402.84149   9112689.27447  22445996.3564   22445993.1884
     -3368.1724
  -3987492.23349  -3096043.50647  22876000.7314   22875995.8804
     -1027.9534
  -1251623.95049   -977089.08548  21057293.4584   21057289.6964
      -402.7194
  -2409857.04449  -1877125.88547  23745243.0524   23745241.1344
      -914.6724
 -11525395.22349  -8977035.35348  22123977.9424   22123974.3684
      1751.0314
 04  9 14 22 32 30.0010000  0  6G 8G13G19G27G10G28
  -8077009.32249  -6283094.32148  20909093.2864   20909089.8024
       679.5004
  11754967.65949   9152090.40247  22455617.8414   22455614.9894
     -3373.5624
  -3972001.30249  -3083972.64847  22878948.4664   22878943.0244
     -1037.2504
  -1245554.00849   -972359.26248  21058448.3024   21058444.6104
      -406.4224
  -2396067.56249  -1866380.85747  23747867.9974   23747865.2824
      -923.6414
 -11551618.48049  -8997469.03948  22118987.6694   22118983.7514
      1745.6564
 04  9 14 22 32 45.0010000  0  6G 8G13G19G27G10G28
  -8087170.08049  -6291011.78448  20907159.5214   20907155.8134
       675.0944
  11805615.35249   9191556.11947  22465256.5604   22465253.0754
     -3379.5164
  -3956370.29149  -3071792.64047  22881922.5674   22881917.3374
     -1047.0624
  -1239428.69549   -967586.28748  21059613.5914   21059609.8924
      -410.5474
  -2382144.97349  -1855532.08347  23750515.9274   23750513.9424
      -932.8914
 -11577761.47449  -9017840.18248  22114013.1384   22114009.2314
      1739.8754
 04  9 14 22 33  0.0010000  0  6G 8G13G19G27G10G28
  -8097267.57949  -6298879.96948  20905238.0054   20905234.2434
       671.4534
  11856347.66349   9231087.76347  22474909.8174   22474907.6884
     -3384.5624
  -3940597.21749  -3059501.92847  22884923.6774   22884919.4154
     -1055.8444
  -1233245.78149   -962768.44148  21060790.4744   21060786.7744
      -413.6874
  -2368087.64149  -1844578.35247  23753191.4744   23753189.0054
      -941.1724
 -11603822.21549  -9038147.22048  22109053.6854   22109049.3414
      1735.0944
 04  9 14 22 33 15.0010000  0  6G 8G13G19G27G10G28
  -8107304.02749  -6306700.56948  20903328.1854   20903324.6344
       667.0474
  11907161.74049   9270683.12147  22484579.4584   22484576.9894
     -3390.3444
  -3924684.81849  -3047102.65447  22887951.6144   22887947.7004
     -1065.4844
  -1227007.85749   -957907.71248  21061977.5834   21061973.5324
      -417.7344
  -2353898.25949  -1833521.66747  23755891.7314   23755889.0444
      -950.4064
 -11629803.16649  -9058392.10148  22104109.9034   22104105.5484
      1729.4224
 04  9 14 22 33 30.0010000  0  6G 8G13G19G27G10G28
  -8117277.79649  -6314472.34248  20901429.8804   20901426.1734
       662.6414
  11958058.76749   9310343.11047  22494265.2474   22494262.3844
     -3396.0474
  -3908631.74249  -3034593.77147  22891006.7084   22891001.9234
     -1075.0474
  -1220713.40149   -953002.95448  21063175.4664   21063171.2744
      -421.7194
  -2339575.61149  -1822361.17647  23758616.9274   23758615.4114
      -959.5004
 -11655702.95049  -9078573.73548  22099180.7164   22099176.2044
      1723.7664
 04  9 14 22 33 45.0010000  0  6G 8G13G19G27G10G28
  -8127190.38549  -6322196.42548  20899543.5754   20899540.1614
       659.0004
  12009037.11649   9350066.47947  22503965.9194   22503963.1924
     -3401.1094
  -3892439.48249  -3021976.42747  22894088.1384   22894083.3024
     -1083.9844
  -1214363.69949   -948055.13448  21064383.9504   21064379.5404
      -425.0004
  -2325121.16949  -1811097.99847  23761367.5604   23761366.1614
      -967.8594
 -11681522.79949  -9098693.06648  22094267.7004   22094263.3064
      1718.7974
 04  9 14 22 34  0.0010000  0  6G 8G13G19G27G10G28
  -8137042.51049  -6329873.39748  20897668.6534   20897665.2434
       654.5474
  12060095.67949   9389852.34447  22513681.8254   22513679.5484
     -3406.7974
  -3876108.82849  -3009251.23447  22897195.5604   22897190.9034
     -1093.6094
  -1207959.46249   -943064.81848  21065602.4584   21065598.5054
      -428.9844
  -2310535.87449  -1799732.83147  23764143.5834   23764141.2244
      -976.9534
 -11707263.42449  -9118750.67148  22089369.3334   22089365.5014
      1713.1564
 04  9 14 22 34 15.0010000  0  6G 8G13G19G27G10G28
  -8146833.68449  -6337502.88048  20895805.7634   20895802.2004
       650.8444
  12111234.83449   9429701.02147  22523413.7784   22523411.1264
     -3411.8444
  -3859639.26349  -2996417.79847  22900329.2864   22900325.0874
     -1102.4374
  -1201500.00649   -938031.47148  21066831.5754   21066828.2864
      -432.3284
  -2295819.42049  -1788265.44847  23766944.1224   23766941.8334
      -985.2664
 -11732924.25049  -9138746.10348  22084486.3414   22084482.2284
      1708.2194
 04  9 14 22 34 30.0010000  0  6G 8G13G19G27G10G28
  -8156565.04249  -6345085.75048  20893953.9894   20893950.2674
       646.2504
  12162452.93349   9469611.20047  22533160.6384   22533157.0994
     -3417.6254
  -3843032.44849  -2983477.43947  22903489.4034   22903484.8534
     -1112.1724
  -1194986.72349   -932956.19848  21068070.7634   21068067.2044
      -436.4694
  -2280973.45349  -1776697.17047  23769769.1694   23769766.3534
      -994.5164
 -11758506.68549  -9158680.44348  22079618.2944   22079614.2984
      1702.3284
 04  9 14 22 34 45.0010000  0  6G 8G13G19G27G10G28
  -8166229.56349  -6352616.54048  20892114.5994   20892111.1344
       641.9534
  12213756.55749   9509588.01947  22542922.9894   22542920.5754
     -3423.2194
  -3826281.36949  -2970424.64447  22906677.2944   22906672.6654
     -1121.6874
  -1188412.58449   -927833.48648  21069321.8564   21069318.0174
      -440.5004
  -2265991.16749  -1765022.67247  23772620.0364   23772617.7594
     -1003.4844
 -11784003.68549  -9178548.20848  22074765.9814   22074762.3604
      1696.8444
 04  9 14 22 35  0.0010000  0  6G 8G13G19G27G10G28
  -8175827.12649  -6360095.16248  20890288.7784   20890284.9544
       637.6884
  12265145.52349   9549631.34047  22552702.2784   22552699.8964
     -3428.7974
  -3809386.23849  -2957259.62147  22909892.6854   22909887.4704
     -1131.0784
  -1181777.48549   -922663.29048  21070584.8644   21070580.8684
      -444.4064
  -2250872.80849  -1753242.14647  23775496.6924   23775494.3764
     -1012.4064
 -11809415.31149  -9198349.44848  22069930.5674   22069926.5794
      1691.1724
 04  9 14 22 35 15.0010000  0  6G 8G13G19G27G10G28
  -8185362.09149  -6367524.98648  20888473.6304   20888470.4504
       633.5634
  12316615.21349   9589737.56647  22562496.7634   22562493.8994
     -3434.0314
  -3792351.47349  -2943985.76847  22913133.9354   22913129.2004
     -1140.2814
  -1175085.70649   -917448.91248  21071858.2164   21071854.4384
      -447.9534
  -2235622.83449  -1741359.02847  23778398.7004   23778396.1224
     -1021.0314
 -11834745.86549  -9218087.52348  22065110.6144   22065106.7594
      1686.0164
 04  9 14 22 35 30.0010000  0  6G 8G13G19G27G10G28
  -8194834.04249  -6374905.73548  20886671.6224   20886667.8604
       629.5634
  12368165.58849   9629906.67447  22572306.1064   22572303.5054
     -3439.1414
  -3775177.01249  -2930603.06847  22916402.2554   22916397.5134
     -1149.3444
  -1168336.96449   -912190.15548  21073142.4894   21073138.0364
      -451.5474
  -2220241.26249  -1729373.39347  23781325.7394   23781323.6384
     -1029.5474
 -11859995.06949  -9237762.20148  22060305.0604   22060301.7004
      1680.8444
 04  9 14 22 35 45.0010000  0  6G 8G13G19G27G10G28
  -8204239.52949  -6382234.68248  20884881.8724   20884878.0524
       625.1724
  12419799.88649   9670141.15747  22582131.7784   22582129.4034
     -3444.7504
  -3757859.37149  -2917108.81247  22919697.4034   22919692.8024
     -1158.9064
  -1161527.58649   -906884.14748  21074438.1464   21074434.2394
      -455.5474
  -2204724.68749  -1717282.57447  23784278.7004   23784276.5754
     -1038.5314
 -11885159.32349  -9257370.68948  22055516.6854   22055512.7594
      1675.2344
 04  9 14 22 36  0.0010000  0  6G 8G13G19G27G10G28
  -8213589.40449  -6389520.28548  20883102.2864   20883098.8884
       621.1884
  12471507.03649   9710432.41247  22591971.4034   22591968.3964
     -3449.8754
  -3740409.36949  -2903511.41847  22923018.5604   22923013.5794
     -1168.1094
  -1154668.49649   -901539.40648  21075743.3884   21075739.6854
      -459.2504
  -2189084.28549  -1705095.24447  23787254.2784   23787252.9154
     -1047.1874
 -11910249.40249  -9276921.38648  22050742.6144   22050738.3104
      1669.8444
 04  9 14 22 36 15.0010000  0  6G 8G13G19G27G10G28
  -8222872.41749  -6396753.80448  20881335.6614   20881332.1574
       616.7974
  12523297.56249   9750788.64447  22601826.4424   22601824.1424
     -3455.3754
  -3722816.27549  -2889802.51547  22926366.1064   22926361.6344
     -1177.5164
  -1147748.49749   -896147.20748  21077060.7244   21077056.5794
      -463.1874
  -2173309.30049  -1692803.05547  23790256.2474   23790254.2124
     -1056.0004
 -11935254.54649  -9296405.89248  22045983.7554   22045979.7394
      1664.3284
 04  9 14 22 36 30.0010000  0  6G 8G13G19G27G10G28
  -8232089.64849  -6403936.06148  20879581.9974   20879578.4504
       612.3754
  12575170.13049   9791208.79247  22611698.1064   22611695.0284
     -3460.9374
  -3705081.41849  -2875983.15147  22929741.0214   22929735.8374
     -1187.0314
  -1140768.77649   -890708.46948  21078388.4584   21078384.6494
      -467.2034
  -2157401.00649  -1680406.99647  23793283.6614   23793282.6424
     -1065.0004
 -11960175.78349  -9315825.00948  22041241.5834   22041237.3844
      1658.6254
 04  9 14 22 36 45.0010000  0  6G 8G13G19G27G10G28
  -8241241.00249  -6411066.98648  20877840.3414   20877836.7904
       608.1724
  12627124.44449   9831692.65147  22621584.6064   22621582.0524
     -3466.0004
  -3687204.89049  -2862053.38847  22933143.3174   22933138.0714
     -1196.2034
  -1133729.18249   -885223.06648  21079727.4424   21079724.5014
      -471.0474
  -2141359.69649  -1667907.27347  23796336.4504   23796334.6184
     -1073.5784
 -11985013.03949  -9335178.70148  22036515.2554   22036511.2084
      1653.2814
 04  9 14 22 37  0.0010000  0  6G 8G13G19G27G10G28
  -8250331.14249  -6418150.19748  20876110.7784   20876107.0994
       603.9844
  12679155.55049   9872236.33947  22631485.2244   22631482.7124
     -3471.2974
  -3669191.50649  -2848016.97947  22936570.5284   22936566.1304
     -1205.3914
  -1126634.37149   -879694.63948  21081078.0674   21081074.4384
      -474.7974
  -2125190.28949  -1655307.74847  23799413.2474   23799411.1734
     -1082.2344
 -12009770.91749  -9354470.52048  22031804.0134   22031799.8534
      1647.9384
 04  9 14 22 37 15.0010000  0  6G 8G13G19G27G10G28
  -8259359.57449  -6425185.34048  20874392.4814   20874389.3374
       599.9534
  12731263.80149   9912840.14047  22641401.8494   22641399.1654
     -3476.3124
  -3651040.68349  -2833873.48747  22940024.9114   22940019.9504
     -1214.4374
  -1119483.71149   -874122.71148  21082438.7394   21082435.0634
      -478.3914
  -2108892.29549  -1642608.03747  23802515.0674   23802512.0954
     -1090.6564
 -12034448.91749  -9373700.11848  22027108.0364   22027103.6424
      1642.7344
 04  9 14 22 37 30.0010000  0  6G 8G13G19G27G10G28
  -8268322.88749  -6432169.73348  20872687.0834   20872683.9194
       595.5634
  12783452.40449   9953506.55947  22651331.7474   22651330.3134
     -3481.6254
  -3632749.18849  -2819620.39147  22943505.4354   22943499.9664
     -1223.9064
  -1112273.67449   -868504.50348  21083810.8254   21083806.8454
      -482.4694
  -2092462.53749  -1629805.63847  23805641.4814   23805638.7124
     -1099.4694
 -12059043.55449  -9392864.75548  22022427.8104   22022423.2554
      1637.0784
 04  9 14 22 37 45.0010000  0  6G 8G13G19G27G10G28
  -8277222.91149  -6439104.81248  20870993.5054   20870989.6734
       590.9534
  12835718.76149   9994233.56847  22661279.0134   22661276.3884
     -3487.2504
  -3614319.43249  -2805259.54147  22947012.4664   22947007.1694
     -1233.5944
  -1105006.42749   -862841.71348  21085193.8024   21085190.0604
      -486.7504
  -2075903.52049  -1616902.52547  23808792.0524   23808790.1964
     -1108.5474
 -12083557.13849  -9411966.22448  22017763.1064   22017759.2554
      1631.1724
 04  9 14 22 38  0.0010000  0  6G 8G13G19G27G10G28
  -8286057.21049  -6445988.67648  20869312.3564   20869308.7514
       586.9224
  12888065.07549  10035022.86847  22671239.2634   22671237.2634
     -3492.2814
  -3595748.89449  -2790788.99247  22950546.2714   22950541.2944
     -1242.5474
  -1097679.36049   -857132.31548  21086588.2084   21086584.2314
      -490.3284
  -2059212.87349  -1603896.82047  23811967.5834   23811966.4744
     -1116.9844
 -12107986.99949  -9431002.46148  22013114.0444   22013109.8924
      1626.0004
 04  9 14 22 38 15.0010000  0  6G 8G13G19G27G10G28
  -8294827.66049  -6452822.78448  20867643.3724   20867639.7904
       582.3594
  12940488.98349  10075872.64547  22681215.1534   22681213.4854
     -3497.7344
  -3577039.82549  -2776210.49547  22954106.8644   22954101.5954
     -1252.1254
  -1090294.61949   -851377.97948  21087993.2474   21087989.2634
      -494.4064
  -2042392.99249  -1590790.44347  23815169.3334   23815167.2314
     -1125.8914
 -12132335.26049  -9449975.10648  22008480.7864   22008476.8104
      1620.2504
 04  9 14 22 38 30.0010000  0  6G 8G13G19G27G10G28
  -8303529.54449  -6459603.47648  20865987.2554   20865984.0794
       577.9064
  12992995.01649  10116786.40647  22691207.7164   22691204.7984
     -3503.0314
  -3558187.57949  -2761520.43747  22957694.0214   22957690.0284
     -1261.4224
  -1082847.19549   -845574.79648  21089410.4034   21089406.8024
      -498.5624
  -2025439.20849  -1577579.70947  23818394.6224   23818393.0834
     -1134.5944
 -12156596.96149  -9468880.31648  22003864.1694   22003859.7514
      1614.6414
 04  9 14 22 38 45.0010000  0  6G 8G13G19G27G10G28
  -8312166.58149  -6466333.62948  20864343.6854   20864340.1774
       573.6724
  13045579.02949  10157760.93747  22701213.6694   22701211.0954
     -3508.0944
  -3539196.16249  -2746721.93247  22961307.5994   22961303.9354
     -1270.6414
  -1075340.93149   -839725.75348  21090839.1064   21090835.0134
      -502.2664
  -2008355.64549  -1564267.88247  23821646.4974   23821643.1854
     -1143.0624
 -12180776.14749  -9487721.21648  21999262.3724   21999258.2044
      1609.3284
 04  9 14 22 39  0.0010000  0  6G 8G13G19G27G10G28
  -8320736.07249  -6473011.14748  20862712.7634   20862709.6424
       569.2194
  13098243.34149  10198798.03147  22711235.2554   22711233.2204
     -3513.4694
  -3520063.12649  -2731813.08447  22964948.6534   22964944.8254
     -1280.1724
  -1067773.25049   -833828.86248  21092278.8494   21092275.4504
      -506.4224
  -1991139.94549  -1550853.02047  23824922.9894   23824920.1184
     -1152.0004
 -12204870.21149  -9506495.79148  21994677.6924   21994673.7514
      1603.5784
 04  9 14 22 39 15.0010000  0  6G 8G13G19G27G10G28
  -8329241.62749  -6479638.84648  20861094.6224   20861090.8134
       564.7194
  13150984.05949  10239894.66847  22721271.8104   22721269.0754
     -3518.6564
  -3500792.24149  -2716796.81047  22968615.7944   22968611.4814
     -1289.4844
  -1060147.58749   -827886.79248  21093730.2864   21093726.3924
      -510.5164
  -1973795.99649  -1537338.25647  23828223.0994   23828220.4074
     -1160.7504
 -12228882.71749  -9525206.81448  21990108.1064   21990103.9114
      1597.8444
 04  9 14 22 39 30.0010000  0  6G 8G13G19G27G10G28
  -8337677.44749  -6486212.21148  20859489.3104   20859485.9664
       560.2344
  13203806.66549  10281055.10847  22731324.7784   22731321.0604
     -3524.1094
  -3481377.89049  -2701668.74147  22972311.0674   22972305.5014
     -1298.9064
  -1052458.19749   -821895.05948  21095193.2394   21095189.7044
      -514.6254
  -1956318.23049  -1523719.20447  23831549.0914   23831546.5174
     -1169.4844
 -12252807.96949  -9543849.83648  21985555.6064   21985551.3414
      1592.2814
 04  9 14 22 39 45.0010000  0  6G 8G13G19G27G10G28
  -8346048.87849  -6492735.39948  20857896.3174   20857892.7394
       555.8134
  13256705.50349  10322274.95547  22741390.0674   22741387.1924
     -3529.2664
  -3461825.47949  -2686433.10747  22976031.8644   22976026.6854
     -1308.2344
  -1044710.33249   -815857.77548  21096668.0604   21096663.8454
      -518.6414
  -1938712.26849  -1510000.29547  23834898.8414   23834896.5444
     -1178.2034
 -12276651.19449  -9562428.96848  21981018.0214   21981013.8644
      1586.7194
 04  9 14 22 40  0.0010000  0  6G 8G13G19G27G10G28
  -8354354.42949  -6499207.25148  20856315.7004   20856312.2044
       551.4694
  13309681.63849  10363555.04147  22751470.9744   22751468.1264
     -3534.4224
  -3442133.70249  -2671088.85747  22979778.7784   22979773.8134
     -1317.4534
  -1036902.44949   -809773.71348  21098153.6774   21098149.4814
      -522.5314
  -1920977.00249  -1496180.61447  23838274.5604   23838271.5874
     -1186.6724
 -12300411.01449  -9580943.08748  21976496.8494   21976492.5174
      1581.1094
 04  9 14 22 40 15.0010000  0  6G 8G13G19G27G10G28
  -8362593.37049  -6505627.20648  20854747.8334   20854743.9194
       546.7664
  13362735.45849  10404895.63247  22761567.3724   22761564.5214
     -3539.7814
  -3422302.23149  -2655635.77847  22983551.8024   22983547.8294
     -1327.0164
  -1029033.97149   -803642.44248  21099650.9584   21099646.6144
      -526.9064
  -1903112.00749  -1482259.84247  23841673.7394   23841671.2944
     -1195.6094
 -12324086.86149  -9599391.79148  21971991.4974   21971987.0444
      1575.3284
 04  9 14 22 40 30.0010000  0  7G31G 8G13G19G27G10G28
   -171233.91059   -124647.85956  24487178.0214   24487177.9234
      3563.5314
  -8370763.86149  -6511993.81648  20853193.1694   20853189.3844
       542.4844
  13415868.12749  10446297.67747  22771677.5674   22771675.0634
     -3544.6874
  -3402329.61049  -2640072.69647  22987352.5364   22987348.0874
     -1336.1094
  -1021103.27549   -797462.66848  21101160.2864   21101156.2904
      -530.6564
  -1885115.90349  -1468236.88847  23845098.1614   23845096.1654
     -1204.0944
 -12347677.21849  -9617773.86148  21967502.2314   21967498.2824
      1569.9384
 04  9 14 22 40 45.0010000  0  7G31G 8G13G19G27G10G28
   -224684.36249   -166297.45546  24477006.2394   24477006.0634
      3562.9224
  -8378868.77849  -6518309.33648  20851650.8174   20851647.1144
       537.9694
  13469076.65349  10487758.84447  22781802.6384   22781800.0754
     -3550.0004
  -3382218.76949  -2624401.92047  22991180.0444   22991174.7164
     -1345.5164
  -1013113.00749   -791236.49848  21102680.5134   21102676.7714
      -534.7974
  -1866991.62249  -1454114.08547  23848547.0444   23848544.8644
     -1212.6874
 -12371184.69449  -9636091.36048  21963029.3174   21963024.7634
      1564.1884
 04  9 14 22 41  0.0010000  0  7G31G 8G13G19G27G10G28
   -278131.20649   -207944.26546  24466835.2864   24466835.2244
      3562.9224
  -8386910.88249  -6524575.90648  20850120.1924   20850116.7124
       533.8914
  13522358.09049  10529276.82047  22791941.8254   22791939.4154
     -3554.7344
  -3361972.53149  -2608625.64647  22995032.6534   22995027.8494
     -1354.4534
  -1005065.88849   -784966.01948  21104211.8334   21104208.2744
      -538.5624
  -1848742.14549  -1439893.73147  23852020.6854   23852017.7314
     -1221.0004
 -12394612.09149  -9654346.45048  21958570.9814   21958566.7744
      1558.9694
 04  9 14 22 41 15.0010000  0  7G31G 8G13G19G27G10G28
   -331572.44349   -249586.70146  24456667.3644   24456665.9934
      3562.5634
  -8394888.23049  -6530792.01148  20848602.4814   20848599.1304
       529.6884
  13575713.79149  10570852.66947  22802095.6144   22802093.0324
     -3559.5004
  -3341589.24549  -2592742.56347  22998911.5754   22998906.7674
     -1363.5004
   -996960.04849   -778649.77648  21105754.2084   21105750.9154
      -542.2664
  -1830366.09149  -1425574.73347  23855516.6224   23855514.5794
     -1229.2504
 -12417957.65249  -9672537.77148  21954128.4274   21954124.1654
      1553.6564
 04  9 14 22 41 30.0010000  0  7G31G 8G13G19G27G10G28
   -385007.11349   -291224.04746  24446498.4274   24446496.9544
      3562.1094
  -8402800.33649  -6536957.28548  20847096.5444   20847093.4234
       525.3444
  13629143.94449  10612486.51847  22812262.6384   22812260.3414
     -3564.4844
  -3321068.62949  -2576752.46947  23002816.5214   23002811.4814
     -1372.6254
   -988794.96149   -772287.38048  21107308.2244   21107304.7904
      -546.3284
  -1811863.15449  -1411156.87447  23859036.7244   23859035.8844
     -1237.7974
 -12441220.83049  -9690664.90148  21949701.2714   21949697.1464
      1548.1094
 04  9 14 22 41 45.0010000  0  7G31G 8G13G19G27G10G28
   -438435.01749   -332856.14446  24436331.1144   24436330.2434
      3561.5474
  -8410647.26949  -6543071.77648  20845603.5054   20845600.0484
       520.8914
  13682648.15749  10654178.08047  22822444.4034   22822441.8564
     -3569.4844
  -3300410.97549  -2560655.58947  23006747.0364   23006742.8134
     -1381.7504
   -980570.62349   -765878.80248  21108872.9664   21108869.6384
      -550.3444
  -1793233.71049  -1396640.45547  23862582.7314   23862581.0914
     -1246.2344
 -12464401.81849  -9708727.99448  21945289.9504   21945286.0284
      1542.5784
 04  9 14 22 42  0.0010000  0  7G31G 8G13G19G27G10G28
   -491855.77248   -374482.60646  24426164.5754   24426165.2634
      3560.6564
  -8418428.72449  -6549135.25248  20844122.7164   20844119.0324
       516.0944
  13736226.42749  10695927.35247  22832640.1924   22832637.0604
     -3574.8444
  -3279616.21449  -2544451.89647  23010704.5444   23010700.2554
     -1391.3914
   -972286.91149   -759423.97648  21110449.4194   21110445.7394
      -554.6724
  -1774477.90349  -1382025.56147  23866151.6224   23866150.2634
     -1255.1254
 -12487500.38449  -9726726.86848  21940894.5674   21940890.4234
      1536.6564
 04  9 14 22 42 15.0010000  0  7G31G 8G13G19G27G10G28
   -545268.46849   -416102.86346  24416001.2314   24416000.9814
      3560.3284
  -8426143.98449  -6555147.12348  20842654.0284   20842650.8414
       511.9844
  13789878.79049  10737734.36247  22842849.7164   22842847.4354
     -3579.5004
  -3258683.99249  -2528141.06447  23014688.0214   23014683.0404
     -1400.2974
   -963943.13349   -752922.31548  21112037.1854   21112033.5484
      -558.4534
  -1755595.42649  -1367311.93547  23869744.6464   23869743.3644
     -1263.2344
 -12510516.10849  -9744661.17448  21936515.1064   21936510.8454
      1531.4384
 04  9 14 22 42 30.0010000  0  7G31G 8G13G19G27G10G28
   -598673.89849   -457717.35647  24405838.4664   24405838.0404
      3560.2664
  -8433794.22749  -6561108.35848  20841198.8334   20841195.2354
       507.9844
  13843603.79649  10779597.96847  22853073.6144   22853070.6614
     -3583.9694
  -3237615.55449  -2511724.10547  23018696.7314   23018692.1144
     -1408.9374
   -955540.34649   -746374.70348  21113635.9504   21113632.6534
      -562.0474
  -1736587.53849  -1352500.63347  23873360.8104   23873359.6884
     -1271.3284
 -12533450.00649  -9762531.72148  21932150.9894   21932146.8844
      1526.2664
 04  9 14 22 42 45.0010000  0  7G31G 8G13G19G27G10G28
   -652073.84849   -499327.67946  24395676.5914   24395676.7204
      3559.8134
  -8441381.41149  -6567020.43348  20839754.8724   20839751.7824
       503.7194
  13897399.23749  10821516.46247  22863310.0524   22863307.6734
     -3588.6414
  -3216413.21649  -2495202.80247  23022732.0054   23022726.6464
     -1417.8914
   -947080.54949   -739782.65948  21115245.6384   21115242.0954
      -565.8444
  -1717456.54249  -1337593.35447  23877002.5364   23877000.9194
     -1279.4694
 -12556304.06149  -9780340.05748  21927801.6064   21927797.3134
      1521.0164
 04  9 14 22 43  0.0010000  0  7G31G 8G13G19G27G10G28
   -705471.85149   -540936.40346  24385515.5674   24385515.1344
      3559.4534
  -8448909.29849  -6572886.33048  20838322.4894   20838319.1654
       499.5784
  13951260.97249  10863486.61447  22873560.1304   22873557.1574
     -3593.3914
  -3195080.92349  -2478580.25547  23026790.8334   23026785.9314
     -1426.7974
   -938567.56149   -733149.16548  21116866.0134   21116862.3294
      -569.6254
  -1698206.64349  -1322593.46847  23880666.6614   23880664.1424
     -1287.5004
 -12579082.22449  -9798089.26548  21923466.9504   21923462.7824
      1515.6884
 04  9 14 22 43 15.0010000  0  7G31G 8G13G19G27G10G28
   -758859.45849   -582537.02246  24375356.0994   24375355.6854
      3558.5474
  -8456369.85549  -6578699.73448  20836902.7634   20836899.1574
       494.9534
  14005196.81949  10905514.50847  22883823.5754   22883820.6614
     -3598.3444
  -3173610.69949  -2461850.20447  23030876.6534   23030872.2904
     -1436.0784
   -929993.23649   -726467.87748  21118497.8024   21118494.2004
      -573.7974
  -1678829.93649  -1307494.74747  23884353.2004   23884351.0914
     -1296.1094
 -12601776.48649  -9815773.08448  21919148.8334   21919144.3644
      1509.9844
 04  9 14 22 43 30.0010000  0  8G31G 8G13G19G29G27G10G28
   -812236.88749   -624129.82046  24365199.3804   24365198.1884
      3558.4064
  -8463763.40049  -6584460.93748  20835495.5364   20835492.2314
       490.9224
  14059206.00549  10947599.56547  22894101.5364   22894098.2204
     -3602.8444
  -3152003.18849  -2445013.18447  23034988.8024   23034983.9854
     -1444.8444
   -136976.81959    -91552.15057  24656919.0994   24656916.4744
      2915.0944
   -921358.03149   -719739.14448  21120141.1304   21120137.1814
      -577.4694
  -1659327.21249  -1292297.83347  23888064.6144   23888062.2314
     -1304.0624
 -12624387.27049  -9833391.85548  21914845.9664   21914841.7204
      1504.8594
 04  9 14 22 43 45.0010000  0  8G31G 8G13G19G29G27G10G28
   -865615.47649   -665723.51046  24355041.2314   24355040.5404
      3558.3594
  -8471101.49949  -6590178.93448  20834099.2714   20834095.9074
       487.0784
  14113276.44249  10989732.33747  22904390.5444   22904387.9814
     -3607.0004
  -3130270.27449  -2428078.46047  23039124.5914   23039119.5214
     -1453.2664
   -180692.49749   -125616.27647  24648600.4664   24648597.9234
      2913.3444
   -912673.39849   -712971.89848  21121793.1924   21121789.6574
      -580.8594
  -1639710.43249  -1277012.01047  23891797.2314   23891794.9424
     -1311.7974
 -12646926.24349  -9850954.66448  21910556.7474   21910552.5604
      1499.9064
 04  9 14 22 44  0.0010000  0  8G31G 8G13G19G29G27G10G28
   -918985.68549   -707310.58747  24344885.2394   24344884.2394
      3557.7034
  -8478374.98749  -6595846.57448  20832715.3804   20832711.9194
       482.7504
  14167417.16249  11031919.88947  22914693.0214   22914690.6034
     -3611.7504
  -3108402.83149  -2411038.89547  23043285.7474   23043280.7744
     -1462.3124
   -224372.15949   -159652.40447  24640287.9034   24640285.9154
      2910.7814
   -903930.21849   -706159.02348  21123457.0284   21123454.0484
      -584.8914
  -1619970.51849  -1261630.27647  23895553.8564   23895551.7784
     -1320.1094
 -12669384.09949  -9868454.27248  21906283.0834   21906279.1884
      1494.4384
 04  9 14 22 44 15.0010000  0  8G31G 8G13G19G29G27G10G28
   -972348.04949   -748891.60647  24334730.7244   24334730.1384
      3557.3594
  -8485584.56249  -6601464.43748  20831343.7164   20831339.7514
       478.7034
  14221626.97949  11074161.26747  22925008.5754   22925005.9584
     -3616.1724
  -3086402.01549  -2393895.40947  23047471.6924   23047466.9504
     -1471.0164
   -268016.59549   -193661.00847  24631982.1464   24631980.8494
      2908.5314
   -895129.24749   -699301.13748  21125131.8254   21125128.4544
      -588.4534
  -1600108.73949  -1246153.57747  23899333.5524   23899331.0134
     -1327.9374
 -12691761.83749  -9885891.45248  21902024.5604   21902020.8884
      1489.2974
 04  9 14 22 44 30.0010000  0  8G31G 8G13G19G29G27G10G28
  -1025700.16749   -790464.63447  24324578.9114   24324577.7044
      3556.6884
  -8492727.93149  -6607030.69548  20829983.9114   20829979.9894
       474.2664
  14275907.67949  11116457.88147  22935338.1384   22935335.5404
     -3620.7814
  -3064265.73249  -2376646.36947  23051684.2314   23051679.4664
     -1480.0164
   -311623.40949   -227640.31447  24623684.3104   24623682.9034
      2906.2814
   -886268.25649   -692396.47648  21126817.8724   21126814.1614
      -592.5314
  -1580123.08049  -1230580.33147  23903136.3564   23903133.8494
     -1336.2344
 -12714057.26649  -9903264.50148  21897782.3724   21897778.0524
      1483.8284
 04  9 14 22 44 45.0010000  0  8G31G 8G13G19G29G27G10G28
  -1079043.93749   -832031.12147  24314426.6534   24314426.5054
      3556.1414
  -8499807.37549  -6612547.13648  20828637.0214   20828633.2744
       469.9534
  14330256.73149  11158807.75347  22945680.4584   22945678.1854
     -3625.3594
  -3041996.43349  -2359293.66747  23055921.5994   23055916.9664
     -1488.9064
   -355194.65849   -261591.89547  24615392.8884   24615391.1924
      2903.5944
   -877349.45049   -685446.76148  21128515.1854   21128511.5524
      -596.3914
  -1560016.16149  -1214912.59547  23906962.8964   23906960.3024
     -1344.3284
 -12736272.69449  -9920575.20248  21893554.6224   21893550.7674
      1478.5164
 04  9 14 22 45  0.0010000  0  8G31G 8G13G19G29G27G10G28
  -1132379.32849   -873591.13047  24304277.2784   24304276.5634
      3555.3754
  -8506823.12449  -6618013.95848  20827301.9894   20827298.4584
       465.5314
  14384673.52149  11201210.41347  22956035.4194   22956032.8134
     -3630.0314
  -3019594.54749  -2341837.65747  23060185.3804   23060180.7044
     -1498.0164
   -398730.14049   -295515.64347  24607108.5604   24607107.2514
      2901.0784
   -868373.03249   -678452.15148  21130223.3024   21130219.7984
      -600.4374
  -1539788.46549  -1199150.76247  23910811.9504   23910809.4354
     -1352.6414
 -12758408.32349  -9937823.72348  21889342.4274   21889338.1924
      1472.9694
 04  9 14 22 45 15.0010000  0  8G31G 8G13G19G29G27G10G28
  -1185706.67449   -915144.83347  24294130.0994   24294128.4194
      3554.9384
  -8513775.80049  -6623431.62948  20825978.7244   20825975.1814
       461.5004
  14439157.15549  11243665.16047  22966403.7784   22966400.8564
     -3634.3754
  -2997060.99949  -2324279.05247  23064473.6774   23064468.5284
     -1506.5164
   -442230.55549   -329412.01047  24598831.1304   24598828.6064
      2898.9534
   -859339.51149   -671413.04848  21131942.3024   21131939.0174
      -604.0164
  -1519440.84149  -1183295.48247  23914684.2394   23914681.9744
     -1360.4374
 -12780464.90649  -9955010.65548  21885145.4814   21885140.9894
      1467.8914
 04  9 14 22 45 30.0010000  0  8G31G 8G13G19G29G27G10G28
  -1239025.22649   -956691.68047  24283983.9034   24283983.0834
      3554.1564
  -8520664.80649  -6628799.67148  20824667.8964   20824664.4424
       457.0474
  14493707.81449  11286172.12847  22976784.6854   22976782.1184
     -3638.9534
  -2974395.41049  -2306617.56947  23068786.3104   23068781.7314
     -1515.5004
   -485694.87249   -363280.29047  24590560.2394   24590557.5954
      2896.3754
   -850248.44349   -664329.10348  21133672.3334   21133668.8254
      -608.0624
  -1498973.19649  -1167346.65447  23918579.1224   23918575.8564
     -1368.5624
 -12802441.87849  -9972135.55048  21880963.4114   21880958.6654
      1462.4064
 04  9 14 22 45 45.0010000  0  8G31G 8G13G19G29G27G10G28
  -1292336.89649   -998233.18147  24273838.0754   24273837.2714
      3553.7664
  -8527492.17149  -6634119.69148  20823368.6464   20823365.0604
       452.9384
  14548323.02349  11328729.40847  22987177.1924   22987174.4894
     -3643.3124
  -2951600.22149  -2288855.09047  23073124.7004   23073119.8414
     -1524.1254
   -529125.19649   -397122.05547  24582294.6384   24582293.2904
      2894.1094
   -841102.01049   -657202.01148  21135413.0054   21135409.8134
      -611.8124
  -1478387.89549  -1151306.20947  23922496.1924   23922493.5524
     -1376.4694
 -12824341.58949  -9989200.23348  21876795.2784   21876791.6184
      1457.2034
 04  9 14 22 46  0.0010000  0  8G31G 8G13G19G29G27G10G28
  -1345636.98849  -1039765.64447  24263695.1534   24263694.4504
      3552.9224
  -8534253.85649  -6639388.53148  20822082.3334   20822078.2084
       448.5634
  14603006.54049  11371339.91347  22997582.9814   22997580.9314
     -3647.9374
  -2928671.33249  -2270988.41747  23077486.7084   23077482.2284
     -1533.0944
   -572517.00849   -430933.85746  24574037.1614   24574036.0014
      2891.3594
   -831895.84749   -650028.38248  21137165.1384   21137161.9814
      -615.7974
  -1457681.04149  -1135170.99047  23926436.1854   23926433.5834
     -1384.5784
 -12846159.77649 -10006201.39848  21872643.6144   21872639.7674
      1451.7034
 04  9 14 22 46 15.0010000  0  8G31G 8G13G19G29G27G10G28
  -1398925.63749  -1081289.18247  24253555.4814   24253554.5284
      3552.0474
  -8540949.79049  -6644606.14248  20820807.8024   20820804.0564
       444.0944
  14657757.82549  11414003.21447  23008002.2944   23007999.7714
     -3652.4694
  -2905609.22249  -2253017.95847  23081875.5994   23081870.6064
     -1542.0944
   -615870.39549   -464715.68046  24565787.3024   24565786.2284
      2888.7664
   -822630.23949   -642808.42848  21138928.0284   21138924.3454
      -619.7974
  -1436853.14249  -1118941.47447  23930400.1064   23930397.6264
     -1392.7034
 -12867896.67349 -10023139.22448  21868507.3884   21868503.1494
      1446.2974
 04  9 14 22 46 30.0010000  0  8G31G 8G13G19G29G27G10G28
  -1452202.45549  -1122803.51347  24243416.4584   24243415.9704
      3550.7974
  -8547579.98949  -6649772.52348  20819546.3724   20819542.6304
       439.2504
  14712576.39849  11456718.94547  23018433.4504   23018430.8964
     -3657.3754
  -2882414.04849  -2234943.80847  23086289.8644   23086284.8214
     -1551.3284
   -659184.97749   -498467.28946  24557544.1854   24557542.3104
      2885.8284
   -813305.10949   -635542.10248  21140702.5994   21140699.1224
      -624.2194
  -1415904.53849  -1102617.89047  23934386.2474   23934384.4934
     -1401.0944
 -12889552.33849 -10040013.74848  21864386.7244   21864382.6144
      1440.5004
 04  9 14 22 46 45.0010000  0  8G31G 8G13G19G29G27G10G28
  -1505465.63049  -1164307.24347  24233280.8644   24233279.7984
      3550.7034
  -8554142.88649  -6654886.46848  20818297.2084   20818293.9314
       435.5164
  14767463.76349  11499488.29947  23028878.7244   23028875.7244
     -3661.2034
  -2859084.41049  -2216764.87247  23090729.2004   23090724.3994
     -1559.5944
   -702459.07349   -532187.36246  24549310.6774   24549307.8064
      2883.7974
   -803918.85849   -628228.13148  21142489.1304   21142484.8884
      -627.5784
  -1394834.02849  -1086199.33047  23938397.0284   23938393.6694
     -1408.5474
 -12911125.34049 -10056823.85448  21860281.2634   21860276.7904
      1435.6094
 04  9 14 22 47  0.0010000  0  8G31G 8G13G19G29G27G10G28
  -1558716.18449  -1205801.08547  24223147.2164   24223146.6184
      3549.4224
  -8560639.65449  -6659948.87648  20817060.8494   20817057.4314
       430.7344
  14822418.21349  11542309.90747  23039336.0994   23039333.0524
     -3665.9844
  -2835621.95549  -2198482.44947  23095194.2164   23095189.2474
     -1568.7344
   -745693.71549   -565876.65747  24541084.1854   24541081.4074
      2880.9064
   -794472.62849   -620867.44148  21144286.3494   21144282.3804
      -631.9374
  -1373643.21649  -1069687.00947  23942427.5284   23942425.9034
     -1416.9844
 -12932616.83349 -10073570.45948  21856190.7944   21856187.5674
      1429.8754
 04  9 14 22 47 15.0010000  0  8G31G 8G13G19G29G27G10G28
  -1611960.59449  -1247290.21847  24213015.4974   24213014.4814
      3549.2504
  -8567077.25549  -6664965.17248  20815835.7314   20815831.8214
       427.0314
  14877432.70249  11585178.32747  23049804.8804   23049801.7164
     -3669.7194
  -2812033.68649  -2180101.97447  23099683.2394   23099677.8334
     -1576.8444
   -788895.39949   -599540.27046  24532863.6854   24532860.7824
      2878.8754
   -784973.42549   -613465.46248  21146094.0604   21146090.4114
      -635.2194
  -1352339.19849  -1053086.49247  23946482.4974   23946480.0284
     -1424.1094
 -12954033.79249 -10090258.98148  21852115.9194   21852112.1064
      1425.0944
 04  9 14 22 47 30.0010000  0  8G31G 8G13G19G29G27G10G28
  -1665190.68149  -1288768.15847  24202885.3174   24202885.7394
      3548.1884
  -8573447.58149  -6669929.06148  20814623.4504   20814619.6304
       422.5784
  14932514.66649  11628099.30247  23060286.3334   23060284.3684
     -3674.3594
  -2788311.77749  -2161617.38847  23104196.5214   23104192.1304
     -1585.8914
   -832055.99949   -633171.88647  24524649.3414   24524647.3844
      2876.0634
   -775413.14649   -606015.89548  21147913.3414   21147910.0364
      -639.2814
  -1330914.31249  -1036391.79547  23950559.9034   23950556.9504
     -1432.2504
 -12975368.27849 -10106883.22948  21848056.2864   21848051.9544
      1419.5944
 04  9 14 22 47 45.0010000  0  8G31G 8G13G19G29G27G10G28
  -1718406.10349  -1330234.58147  24192758.0444   24192758.9544
      3547.6414
  -8579750.70549  -6674840.57448  20813423.9894   20813420.0094
       418.3754
  14987663.75949  11671072.58447  23070781.6614   23070779.0404
     -3678.4534
  -2764456.45549  -2143028.81547  23108736.2084   23108731.7784
     -1594.3124
   -875175.19849   -666771.22747  24516444.1144   24516441.7164
      2873.6884
   -765791.76749   -598518.71748  21149743.8414   21149740.2984
      -643.0624
  -1309368.85849  -1019603.14847  23954659.5444   23954657.2314
     -1439.9694
 -12996620.33449 -10123443.25248  21844011.9194   21844007.3684
      1414.4844
 04  9 14 22 48  0.0010000  0  8G31G 8G13G19G29G27G10G28
  -1771607.58649  -1371690.22647  24182635.1854   24182634.2864
      3546.2664
  -8585987.46849  -6679700.39748  20812237.2944   20812233.5754
       413.5164
  15042878.71349  11714097.19147  23081288.4894   23081285.8804
     -3683.2344
  -2740468.99149  -2124337.31147  23113300.7244   23113296.5954
     -1603.5784
   -918253.92749   -700339.03846  24508245.9194   24508244.0324
      2870.5314
   -756110.27649   -590974.70148  21151586.6384   21151583.2004
      -647.4374
  -1287704.18449  -1002721.59847  23958782.6924   23958779.9814
     -1448.3124
 -13017790.97249 -10139939.84148  21839983.5054   21839979.2354
      1408.6254
 04  9 14 22 48 15.0010000  0  8G31G 8G13G19G29G27G10G28
  -1824791.80049  -1413132.43847  24172514.5364   24172513.8604
      3545.4384
  -8592154.77049  -6684506.07948  20811063.7244   20811059.6464
       409.1884
  15098162.34149  11757175.28847  23091808.1924   23091805.5284
     -3687.4844
  -2716346.50349  -2105540.55947  23117891.5674   23117886.0834
     -1612.2664
   -961288.86349   -733872.65847  24500056.0524   24500054.6184
      2867.8754
   -746365.58149   -583381.43248  21153441.2164   21153436.7284
      -651.3754
  -1265917.42249   -985744.90147  23962927.6224   23962925.8564
     -1456.0004
 -13038877.21649 -10156370.66548  21835970.6694   21835966.3724
      1403.3594
 04  9 14 22 48 30.0010000  0  8G31G 8G13G19G29G27G10G28
  -1877961.49749  -1454563.31047  24162396.1304   24162395.8724
      3544.1564
  -8598255.79449  -6689260.12048  20809902.8564   20809899.1064
       404.5004
  15153511.11349  11800304.18347  23102340.6224   23102338.2714
     -3692.0784
  -2692092.27949  -2086641.17047  23122507.0914   23122502.0874
     -1621.3594
  -1004282.73449   -767374.39846  24491875.5524   24491873.3964
      2864.7974
   -736560.70149   -575741.27248  21155306.4194   21155302.8964
      -655.7344
  -1244011.98549   -968675.73247  23967096.9424   23967094.6534
     -1464.4064
 -13059882.14949 -10172738.12348  21831973.4504   21831969.2514
      1397.5634
 04  9 14 22 48 45.0010000  0  8G31G 8G13G19G29G27G10G28
  -1931116.47849  -1495982.69547  24152282.6304   24152280.8804
      3543.0004
  -8604290.46949  -6693962.45548  20808754.5134   20808750.5404
       399.9064
  15208924.68249  11843483.54947  23112886.2554   23112883.2674
     -3696.6254
  -2667706.64249  -2067639.38147  23127147.5364   23127142.1424
     -1630.2664
  -1047235.57849   -800844.12647  24483701.8104   24483699.4744
      2861.9224
   -726695.59049   -568054.16948  21157184.2474   21157180.6424
      -659.9064
  -1221988.35949   -951514.48547  23971287.8174   23971285.4384
     -1472.4064
 -13080806.09349 -10189042.48848  21827991.9744   21827987.5914
      1391.9844
 04  9 14 22 49  0.0010000  0  8G31G 8G13G19G29G27G10G28
  -1984252.64349  -1537387.41047  24142170.3024   24142170.0874
      3541.8134
  -8610254.93449  -6698610.08148  20807619.5364   20807616.2634
       395.2974
  15264406.49149  11886716.10647  23123443.7864   23123441.0834
     -3700.9844
  -2643185.94749  -2048532.34347  23131813.7394   23131808.7744
     -1639.1874
  -1090143.16249   -834278.57647  24475537.0994   24475534.1814
      2859.0784
   -716766.49849   -560317.21848  21159073.2084   21159069.6924
      -663.9694
  -1199842.97049   -934258.34847  23975501.6614   23975499.3294
     -1480.4374
 -13101645.04749 -10205280.59948  21824026.5834   21824022.1224
      1386.4534
 04  9 14 22 49 15.0010000  0  8G31G 8G13G19G29G27G10G28
  -2037370.95049  -1578778.25547  24132062.3104   24132061.8804
      3540.8914
  -8616150.57549  -6703204.07748  20806497.2394   20806493.6344
       391.0634
  15319954.87449  11930000.52947  23134014.0754   23134011.8964
     -3705.1564
  -2618531.75749  -2029321.29647  23136505.4424   23136500.0054
     -1647.8124
  -1133006.56549   -867678.64247  24467380.1614   24467377.3334
      2856.2974
   -706774.64349   -552531.36548  21160974.4114   21160971.2744
      -668.0004
  -1177577.46949   -916908.61547  23979739.3254   23979736.6534
     -1488.0944
 -13122400.41749 -10221453.60048  21820077.0134   21820072.9464
      1381.1724
 04  9 14 22 49 30.0010000  0  8G31G 8G13G19G29G27G10G28
  -2090476.14749  -1620158.88847  24121956.7244   24121956.2824
      3539.8914
  -8621982.09749  -6707748.11148  20805387.6144   20805383.9974
       386.5634
  15375564.61749  11973332.75047  23144597.5284   23144594.7674
     -3709.4844
  -2593749.24049  -2010010.25147  23141220.8024   23141216.2714
     -1656.5624
  -1175830.51649   -901047.92147  24459231.4504   24459228.8174
      2853.5004
   -696724.90049   -544700.39548  21162887.1224   21162883.7434
      -672.0784
  -1155196.99149   -899469.29847  23983997.3964   23983995.0324
     -1495.9534
 -13143077.13749 -10237565.31648  21816142.5914   21816137.6534
      1375.7504
 04  9 14 22 49 45.0010000  0  8G31G 8G13G19G29G27G10G28
  -2143561.06649  -1661523.71147  24111855.6854   24111854.1064
      3538.0474
  -8627742.42049  -6712236.66748  20804291.5914   20804287.9234
       381.5164
  15431241.97049  12016717.67647  23155191.6774   23155189.1224
     -3714.3124
  -2568831.81349  -1990594.07747  23145962.5994   23145957.5284
     -1665.8124
  -1218608.02849   -934381.05947  24451090.6774   24451088.2284
      2850.1094
   -686610.57149   -536819.10248  21164811.9194   21164808.3724
      -676.6564
  -1132695.22749   -881935.48547  23988280.0214   23988277.3844
     -1504.3594
 -13163668.60549 -10253610.59348  21812223.7634   21812219.8294
      1369.6884
 04  9 14 22 50  0.0010000  0  8G31G 8G13G19G29G27G10G28
  -2196622.34949  -1702870.12947  24101757.6924   24101756.2474
      3536.9224
  -8633428.57449  -6716667.44048  20803209.9424   20803205.8374
       376.7974
  15486990.01249  12060157.64947  23165800.1854   23165798.1344
     -3718.7034
  -2543776.48249  -1971070.44947  23150730.4354   23150725.2244
     -1674.7194
  -1261335.53949   -967675.14347  24442960.1464   24442957.1064
      2847.0784
   -676428.44649   -528884.99248  21166749.4744   21166745.7244
      -680.9534
  -1110069.20149   -864304.80247  23992584.8334   23992582.9544
     -1512.3594
 -13184171.71549 -10269587.02148  21808322.4274   21808317.9384
      1364.0784
 04  9 14 22 50 15.0010000  0  8G31G 8G13G19G29G27G10G28
  -2249665.64149  -1744202.49147  24091664.1614   24091662.9784
      3535.4694
  -8639046.64649  -6721045.15548  20802140.4504   20802136.5604
       372.1254
  15542802.26249  12103647.68147  23176421.2474   23176419.2004
     -3723.1414
  -2518589.49149  -1951444.22947  23155523.9894   23155518.3174
     -1683.6724
  -1304018.95949  -1000934.92247  24434837.5054   24434834.7244
      2843.9064
   -666184.45849   -520902.66448  21168698.7554   21168695.0524
      -685.1724
  -1087325.24649   -846582.24847  23996912.5604   23996910.5714
     -1520.3124
 -13204592.52149 -10285499.33248  21804435.8494   21804431.3534
      1358.4694
 04  9 14 22 50 30.0010000  0  8G31G 8G13G19G29G27G10G28
  -2302688.25249  -1785518.75547  24081574.2864   24081572.7714
      3534.2974
  -8644594.21449  -6725367.92048  20801085.2244   20801081.2984
       367.6724
  15598680.84949  12147189.41547  23187054.7314   23187052.3534
     -3727.2194
  -2493268.77449  -1931713.79747  23160341.9504   23160336.5244
     -1692.3124
  -1346655.67549  -1034158.31547  24426723.6924   24426720.8454
      2841.0784
   -655876.13249   -512870.20248  21170660.3724   21170656.3374
      -689.1094
  -1064461.35949   -828766.25247  24001264.6774   24001261.7634
     -1528.0784
 -13224928.62349 -10301345.61548  21800566.3334   21800561.8334
      1353.1094
 04  9 14 22 50 45.0010000  0  8G31G 8G13G19G29G27G10G28
  -2355687.52449  -1826816.83047  24071488.9274   24071487.1964
      3532.7194
  -8650068.26049  -6729633.42448  20800043.3494   20800039.2124
       362.6414
  15654628.16649  12190784.67947  23197700.9584   23197698.6264
     -3731.8754
  -2467811.75449  -1911877.17647  23165186.3494   23165181.5244
     -1701.5164
  -1389242.58849  -1067342.91247  24418619.2864   24418617.0604
      2837.6724
   -645500.61449   -504785.38648  21172634.6144   21172631.1654
      -693.7504
  -1041475.05749   -810854.85947  24005638.0054   24005636.5174
     -1536.3284
 -13245177.23049 -10317123.73948  21796713.1924   21796708.8964
      1347.1254
 04  9 14 22 51  0.0010000  0  8G31G 8G13G19G29G27G10G28
  -2408661.82549  -1868095.46147  24061408.2944   24061407.3804
      3531.3134
  -8655468.80449  -6733841.62748  20799015.6144   20799011.9894
       358.0004
  15710643.95349  12234433.30047  23208360.4504   23208358.4384
     -3736.3444
  -2442218.48049  -1891934.36947  23170056.6144   23170052.0484
     -1710.3284
  -1431779.47749  -1100488.51747  24410525.4034   24410523.5954
      2834.5634
   -635057.91349   -496648.22248  21174621.9354   21174618.1464
      -697.9694
  -1018366.58049   -792848.27447  24010034.7394   24010033.6224
     -1544.1874
 -13265338.22849 -10332833.58848  21792876.7634   21792871.9814
      1341.5314
 04  9 14 22 51 15.0010000  0  8G31G 8G13G19G29G27G10G28
  -2461617.69349  -1909359.73547  24051330.8174   24051329.8454
      3529.4224
  -8660801.29449  -6737996.81848  20798000.8024   20797997.0914
       352.9534
  15766722.27749  12278130.67847  23219031.5604   23219029.3214
     -3740.9224
  -2416494.77949  -1871889.93947  23174951.9974   23174946.7164
     -1719.5314
  -1474271.47849  -1133599.13847  24402439.6384   24402437.2434
      2831.0634
   -624553.39449   -488462.88148  21176620.9354   21176617.1964
      -702.6254
   -995141.68049   -774750.94947  24014455.1694   24014452.7714
     -1552.4844
 -13285417.35949 -10348479.66048  21789056.0284   21789051.5094
      1335.5944
 04  9 14 22 51 30.0010000  0  8G31G 8G13G19G29G27G10G28
  -2514550.79049  -1950606.26347  24041257.1854   24041256.1464
      3528.1564
  -8666062.01849  -6742096.07048  20796999.3334   20796996.0634
       348.2344
  15822866.40249  12321879.31147  23229715.3964   23229713.4314
     -3745.1724
  -2390637.37949  -1851741.30547  23179872.1694   23179866.9784
     -1728.3914
  -1516714.94949  -1166671.95847  24394362.7634   24394359.5174
      2827.8914
   -613983.58049   -480226.67048  21178632.3254   21178628.7824
      -706.8754
   -971797.27649   -756560.50747  24018897.3724   24018894.8764
     -1560.3444
 -13305411.12649 -10364059.18348  21785251.0754   21785247.2514
      1330.0314
 04  9 14 22 51 45.0010000  0  8G31G 8G13G19G29G27G10G28
  -2567459.39449  -1991833.69447  24031189.5284   24031188.3964
      3526.6254
  -8671249.55849  -6746138.30548  20796012.2554   20796008.6654
       343.5944
  15879077.62049  12365680.21147  23240412.2004   23240410.4464
     -3749.4064
  -2364644.73349  -1831487.30447  23184817.9274   23184813.2904
     -1737.1724
  -1559108.02649  -1199705.49647  24386295.6694   24386293.1964
      2824.8134
   -603346.79349   -471938.26448  21180656.4274   21180653.2044
      -711.1254
   -948332.03549   -738275.90347  24023362.8884   24023359.9854
     -1568.1414
 -13325317.91049 -10379570.95348  21781462.6464   21781458.4034
      1324.4694
 04  9 14 22 52  0.0010000  0  8G31G 8G13G19G29G27G10G28
  -2620349.21549  -2033046.47447  24021124.9744   24021123.7514
      3525.1094
  -8676370.01249  -6750128.26148  20795038.1924   20795034.4854
       338.8594
  15935349.53049  12409528.42747  23251120.3024   23251118.2394
     -3753.7194
  -2338523.36949  -1811133.00147  23189789.0914   23189783.9234
     -1745.9844
  -1601456.59249  -1232704.38447  24378236.6774   24378234.2824
      2821.5164
   -592649.09749   -463602.39848  21182691.9814   21182688.4314
      -715.5164
   -924752.41549   -719902.20147  24027849.4114   24027847.2284
     -1576.1094
 -13345143.97249 -10395019.80348  21777689.8104   21777685.6774
      1318.7344
 04  9 14 22 52 15.0010000  0  8G31G 8G13G19G29G27G10G28
  -2673216.04049  -2074241.35147  24011064.2084   24011062.7984
      3523.7974
  -8681419.10449  -6754062.60848  20794077.5054   20794073.4194
       334.3914
  15991685.56049  12453426.59347  23261841.0444   23261838.8214
     -3757.7194
  -2312269.68549  -1790675.57647  23194784.7864   23194779.8134
     -1754.5474
  -1643756.57249  -1265665.36947  24370186.6384   24370184.8994
      2818.4224
   -581886.67149   -455216.09448  21184740.0994   21184736.9154
      -719.5164
   -901054.91349   -701436.60347  24032359.5284   24032357.0014
     -1583.5624
 -13364885.50949 -10410402.80348  21773933.3414   21773928.9354
      1313.4384
 04  9 14 22 52 30.0010000  0  8G31G 8G13G19G29G27G10G28
  -2726061.90949  -2115419.89047  24001007.9664   24001006.5324
      3522.4224
  -8686399.30349  -6757943.27348  20793129.5214   20793125.5604
       329.8914
  16048083.07349  12497372.67747  23272572.7004   23272571.0324
     -3761.7504
  -2285886.13749  -1770116.98947  23199804.9274   23199800.7204
     -1763.0784
  -1686009.97849  -1298590.03147  24362146.8104   24362144.5714
      2815.5004
   -571061.75349   -446781.09248  21186800.0054   21186796.3214
      -723.5944
   -877242.11249   -682881.20447  24036890.6224   24036888.5134
     -1591.2344
 -13384544.72349 -10425721.64748  21770192.4194   21770187.6964
      1308.0634
 04  9 14 22 52 45.0010000  0  8G31G 8G13G19G29G27G10G28
  -2778886.28949  -2156581.71247  23990956.3564   23990954.3454
      3520.6564
  -8691310.23949  -6761769.98748  20792195.0444   20792191.0444
       324.8134
  16104542.13349  12541366.71847  23283316.5604   23283314.7124
     -3766.1564
  -2259372.58349  -1749457.08447  23204851.4274   23204846.0674
     -1772.2194
  -1728216.10049  -1331477.89347  24354114.9354   24354112.7634
      2811.8754
   -560173.79149   -438296.97748  21188871.8494   21188868.2514
      -728.1874
   -853313.84149   -664235.81147  24041444.0754   24041441.6654
     -1599.2974
 -13404121.42049 -10440976.20948  21766466.8564   21766461.9074
      1302.1884
 04  9 14 22 53  0.0010000  0  8G31G 8G13G19G29G27G10G28
  -2831684.95749  -2197723.46547  23980909.1854   23980907.2824
      3519.0314
  -8696148.32049  -6765539.91248  20791274.8104   20791271.0634
       320.0784
  16161065.98449  12585411.23847  23294072.7784   23294070.4704
     -3770.4374
  -2232725.73749  -1728693.32247  23209921.0134   23209916.4424
     -1780.9844
  -1770371.12549  -1364325.97347  24346093.6924   24346090.8684
      2808.5944
   -549219.36649   -429761.06648  21190956.2714   21190952.8414
      -732.5474
   -829266.98749   -645497.98747  24046020.2784   24046017.5324
     -1607.1414
 -13423611.97649 -10456163.63648  21762758.1854   21762753.4584
      1296.5164
 04  9 14 22 53 15.0010000  0  8G31G 8G13G19G29G27G10G28
  -2884460.17849  -2238846.94047  23970865.9584   23970864.7204
      3517.4224
  -8700915.64649  -6769254.70848  20790367.3724   20790363.2284
       315.4064
  16217651.84149  12629504.08247  23304840.4664   23304838.8724
     -3774.5004
  -2205948.08349  -1707827.60047  23215017.2084   23215012.0094
     -1789.5624
  -1812477.24549  -1397135.86647  24338080.9354   24338077.8024
      2805.4384
   -538200.59349   -421175.01248  21193053.4034   21193049.6144
      -736.7344
   -805104.18049   -626669.85547  24050618.7554   24050615.8964
     -1614.7504
 -13443018.80649 -10471285.82348  21759065.3884   21759060.3134
      1290.9534
 04  9 14 22 53 30.0010000  0  8G31G 8G13G19G29G27G10G28
  -2937212.90449  -2279952.89947  23960827.5054   23960825.5994
      3516.2194
  -8705613.38549  -6772915.30248  20789473.4814   20789469.7164
       310.9694
  16274298.38649  12673644.20647  23315620.2314   23315618.5634
     -3778.3284
  -2179040.98049  -1686861.05047  23220136.9814   23220132.0484
     -1797.9694
  -1854535.40549  -1429908.44047  24330077.0604   24330074.6104
      2802.2974
   -527118.73249   -412539.80748  21195162.0214   21195158.3994
      -740.7194
   -780826.83049   -607752.47047  24055238.3254   24055235.5364
     -1622.2034
 -13462343.14349 -10486343.73948  21755387.9664   21755383.2204
      1285.7194
